[[{"header":{"parameterUnit":"m.s-1","parameterCategory":1,"la1":31.0,"la2":29.5877,"lo1":-88.7671,"lo2":-86.6584,"dy":0.0162,"dx":0.0185,"nx":115,"ny":88,"refTime":"2024-10-06T12:00:00:Z","depth":0,"parameterNumber":2,"parameterNumberName":"U-component_of_WINDS"},"data":[0.0,0.0,0.0,0.0,0.0,0.0,0.0,0.0,0.0,0.0,0.0,0.0,0.0,0.0,0.0,0.0,0.0,0.0,0.0,0.0,0.0,0.0,0.0,0.0,0.0,0.0,0.0,0.0,0.0,0.0,0.0,0.0,0.0,0.0,0.0,0.0,0.0,0.0,0.0,0.0,0.0,0.0,0.0,0.0,0.0,0.0,0.0,0.0,0.0,0.0,0.0,0.0,0.0,0.0,0.0,0.0,0.0,0.0,0.0,0.0,0.0,0.0,0.0,0.0,0.0,0.0,0.0,0.0,0.0,0.0,0.0,0.0,0.0,0.0,0.0,0.0,0.0,0.0,0.0,0.0,0.0,0.0,0.0,0.0,0.0,0.0,0.0,0.0,0.0,0.0,0.0,0.0,0.0,0.0,0.0,0.0,0.0,0.0,0.0,0.0,0.0,0.0,0.0,0.0,0.0,0.0,0.0,0.0,0.0,0.0,0.0,0.0,0.0,0.0,0.0,0.0,0.0,0.0,0.0,0.0,0.0,0.0,0.0,0.0,0.0,0.0,0.0,0.0,0.0,0.0,0.0,0.0,0.0,0.0,0.0,0.0,0.0,0.0,0.0,0.0,0.0,0.0,0.0,0.0,0.0,0.0,0.0,0.0,0.0,0.0,0.0,0.0,0.0,0.0,0.0,0.0,0.0,0.0,0.0,0.0,0.0,0.0,0.0,0.0,0.0,0.0,0.0,0.0,0.0,0.0,0.0,0.0,0.0,0.0,0.0,0.0,0.0,0.0,0.0,0.0,0.0,0.0,0.0,0.0,0.0,0.0,0.0,0.0,0.0,0.0,0.0,0.0,0.0,0.0,0.0,0.0,0.0,0.0,0.0,0.0,0.0,0.0,0.0,0.0,0.0,0.0,0.0,0.0,0.0,0.0,0.0,0.0,0.0,0.0,0.0,0.0,0.0,0.0,0.0,0.0,0.0,0.0,0.0,0.0,0.0,0.0,0.0,0.0,0.0,0.0,0.0,0.0,0.0,0.0,0.0,0.0,0.0,0.0,0.0,0.0,0.0,0.0,0.0,0.0,0.0,0.0,0.0,0.0,0.0,0.0,0.0,0.0,0.0,0.0,0.0,0.0,0.0,0.0,0.0,0.0,0.0,0.0,0.0,0.0,0.0,0.0,0.0,0.0,0.0,0.0,0.0,0.0,0.0,0.0,0.0,0.0,0.0,0.0,0.0,0.0,0.0,0.0,0.0,0.0,0.0,0.0,0.0,0.0,0.0,0.0,0.0,0.0,0.0,0.0,0.0,0.0,0.0,0.0,0.0,0.0,0.0,0.0,0.0,0.0,0.0,0.0,0.0,0.0,0.0,0.0,0.0,0.0,0.0,0.0,0.0,0.0,0.0,0.0,0.0,0.0,0.0,0.0,0.0,0.0,0.0,0.0,0.0,0.0,0.0,0.0,0.0,0.0,0.0,0.0,0.0,0.0,0.0,0.0,0.0,0.0,0.0,0.0,0.0,0.0,0.0,0.0,0.0,0.0,0.0,0.0,0.0,0.0,0.0,0.0,0.0,0.0,0.0,0.0,0.0,0.0,0.0,0.0,0.0,0.0,0.0,0.0,0.0,0.0,0.0,0.0,0.0,0.0,0.0,0.0,0.0,0.0,0.0,0.0,0.0,0.0,0.0,0.0,0.0,0.0,0.0,0.0,0.0,0.0,0.0,0.0,0.0,0.0,0.0,0.0,0.0,0.0,0.0,0.0,0.0,0.0,0.0,0.0,0.0,0.0,0.0,0.0,0.0,0.0,0.0,0.0,0.0,0.0,0.0,0.0,0.0,0.0,0.0,0.0,0.0,0.0,0.0,0.0,0.0,0.0,0.0,0.0,0.0,0.0,0.0,0.0,0.0,0.0,0.0,0.0,0.0,0.0,0.0,0.0,0.0,0.0,0.0,0.0,0.0,0.0,0.0,0.0,0.0,0.0,0.0,0.0,0.0,0.0,0.0,0.0,0.0,0.0,0.0,0.0,0.0,0.0,0.0,0.0,0.0,0.0,0.0,0.0,0.0,0.0,0.0,0.0,0.0,0.0,0.0,0.0,0.0,0.0,0.0,0.0,0.0,0.0,0.0,0.0,0.0,0.0,0.0,0.0,0.0,0.0,0.0,0.0,0.0,0.0,0.0,0.0,0.0,0.0,0.0,0.0,0.0,0.0,0.0,0.0,0.0,0.0,0.0,0.0,0.0,0.0,0.0,0.0,0.0,0.0,0.0,0.0,0.0,0.0,0.0,0.0,0.0,0.0,0.0,0.0,0.0,0.0,0.0,0.0,0.0,0.0,0.0,0.0,0.0,0.0,0.0,0.0,0.0,0.0,0.0,0.0,0.0,0.0,0.0,0.0,0.0,0.0,0.0,0.0,0.0,0.0,0.0,0.0,0.0,0.0,0.0,0.0,0.0,0.0,0.0,0.0,0.0,0.0,0.0,0.0,0.0,0.0,0.0,0.0,0.0,0.0,0.0,0.0,0.0,0.0,0.0,0.0,0.0,0.0,0.0,0.0,0.0,0.0,0.0,0.0,0.0,0.0,0.0,0.0,0.0,0.0,0.0,0.0,0.0,0.0,0.0,0.0,0.0,0.0,0.0,0.0,0.0,0.0,0.0,0.0,0.0,0.0,0.0,0.0,0.0,0.0,0.0,0.0,0.0,0.0,0.0,0.0,0.0,0.0,0.0,0.0,0.0,0.0,0.0,0.0,0.0,0.0,0.0,0.0,0.0,0.0,0.0,0.0,0.0,0.0,0.0,0.0,0.0,0.0,0.0,0.0,0.0,0.0,0.0,0.0,0.0,0.0,0.0,0.0,0.0,0.0,0.0,0.0,0.0,0.0,0.0,0.0,0.0,0.0,0.0,0.0,0.0,0.0,0.0,0.0,0.0,0.0,0.0,0.0,0.0,0.0,0.0,0.0,0.0,0.0,0.0,0.0,0.0,0.0,0.0,0.0,0.0,0.0,0.0,0.0,0.0,0.0,0.0,0.0,0.0,0.0,0.0,0.0,0.0,0.0,0.0,0.0,0.0,0.0,0.0,0.0,0.0,0.0,0.0,0.0,0.0,0.0,0.0,0.0,0.0,0.0,0.0,0.0,0.0,0.0,0.0,0.0,0.0,0.0,0.0,0.0,0.0,0.0,0.0,0.0,0.0,0.0,0.0,0.0,0.0,0.0,0.0,0.0,0.0,0.0,0.0,0.0,0.0,0.0,0.0,0.0,0.0,0.0,0.0,0.0,0.0,0.0,0.0,0.0,0.0,0.0,0.0,0.0,0.0,0.0,0.0,0.0,0.0,0.0,0.0,0.0,0.0,0.0,0.0,0.0,0.0,0.0,0.0,0.0,0.0,0.0,0.0,0.0,0.0,0.0,0.0,0.0,0.0,0.0,0.0,0.0,0.0,0.0,0.0,0.0,0.0,0.0,0.0,0.0,0.0,0.0,0.0,0.0,0.0,0.0,0.0,0.0,0.0,0.0,0.0,0.0,0.0,0.0,0.0,0.0,0.0,0.0,0.0,0.0,0.0,0.0,0.0,0.0,0.0,0.0,0.0,0.0,0.0,0.0,0.0,0.0,0.0,0.0,0.0,0.0,0.0,0.0,0.0,0.0,0.0,0.0,0.0,0.0,0.0,0.0,0.0,0.0,0.0,0.0,0.0,0.0,0.0,0.0,0.0,0.0,0.0,0.0,0.0,0.0,0.0,0.0,0.0,0.0,0.0,0.0,0.0,0.0,0.0,0.0,0.0,0.0,0.0,0.0,0.0,0.0,0.0,0.0,0.0,0.0,0.0,0.0,0.0,0.0,0.0,0.0,0.0,0.0,0.0,0.0,0.0,0.0,0.0,0.0,0.0,0.0,0.0,0.0,0.0,0.0,0.0,0.0,0.0,0.0,0.0,0.0,0.0,0.0,0.0,0.0,0.0,0.0,0.0,0.0,0.0,0.0,0.0,0.0,0.0,0.0,0.0,0.0,0.0,0.0,0.0,0.0,0.0,0.0,0.0,0.0,0.0,0.0,0.0,0.0,0.0,0.0,0.0,0.0,0.0,0.0,0.0,0.0,0.0,0.0,0.0,0.0,0.0,0.0,0.0,0.0,0.0,0.0,0.0,0.0,0.0,0.0,0.0,0.0,0.0,0.0,0.0,0.0,0.0,0.0,0.0,0.0,0.0,0.0,0.0,0.0,0.0,0.0,0.0,0.0,0.0,0.0,0.0,0.0,0.0,0.0,3.021,0.0,0.0,0.0,0.0,0.0,0.0,0.0,0.0,0.0,0.0,0.0,0.0,0.0,0.0,0.0,0.0,0.0,0.0,0.0,0.0,0.0,0.0,0.0,0.0,0.0,0.0,0.0,0.0,0.0,0.0,0.0,0.0,0.0,0.0,0.0,0.0,0.0,0.0,0.0,0.0,0.0,0.0,0.0,0.0,0.0,0.0,0.0,0.0,0.0,0.0,0.0,0.0,0.0,0.0,0.0,0.0,0.0,0.0,0.0,0.0,0.0,0.0,0.0,0.0,0.0,0.0,0.0,0.0,0.0,0.0,0.0,0.0,0.0,0.0,0.0,0.0,0.0,0.0,0.0,0.0,0.0,0.0,0.0,0.0,0.0,0.0,0.0,0.0,0.0,0.0,0.0,0.0,0.0,0.0,0.0,0.0,0.0,0.0,0.0,0.0,0.0,0.0,0.0,0.0,0.0,0.0,0.0,0.0,0.0,0.0,3.2779,3.1971,3.1577,3.1023,3.0243,0.0,0.0,0.0,0.0,0.0,0.0,0.0,0.0,0.0,0.0,0.0,0.0,0.0,0.0,0.0,0.0,0.0,0.0,0.0,0.0,0.0,0.0,0.0,0.0,0.0,0.0,0.0,0.0,0.0,0.0,0.0,0.0,0.0,0.0,0.0,0.0,0.0,0.0,0.0,0.0,0.0,0.0,0.0,0.0,0.0,0.0,0.0,0.0,0.0,0.0,0.0,0.0,0.0,0.0,0.0,0.0,0.0,0.0,0.0,0.0,0.0,0.0,0.0,0.0,0.0,0.0,0.0,0.0,0.0,0.0,0.0,0.0,0.0,0.0,0.0,0.0,0.0,0.0,0.0,0.0,0.0,0.0,0.0,0.0,0.0,0.0,0.0,0.0,0.0,0.0,0.0,0.0,0.0,0.0,0.0,0.0,0.0,0.0,0.0,0.0,0.0,0.0,0.0,0.0,0.0,0.0,0.0,0.0,0.0,0.0,0.0,0.0,3.2305,3.1861,3.1054,0.0,0.0,0.0,0.0,0.0,0.0,0.0,0.0,0.0,0.0,0.0,0.0,0.0,0.0,0.0,0.0,0.0,0.0,0.0,0.0,0.0,0.0,0.0,0.0,0.0,0.0,0.0,0.0,0.0,0.0,0.0,0.0,0.0,0.0,0.0,0.0,0.0,0.0,0.0,0.0,0.0,0.0,0.0,0.0,0.0,0.0,0.0,0.0,0.0,0.0,0.0,0.0,0.0,0.0,0.0,0.0,0.0,0.0,0.0,0.0,0.0,0.0,0.0,0.0,0.0,0.0,0.0,0.0,0.0,0.0,0.0,0.0,0.0,0.0,0.0,0.0,0.0,0.0,0.0,0.0,0.0,0.0,0.0,0.0,0.0,0.0,0.0,0.0,0.0,0.0,0.0,0.0,0.0,0.0,0.0,0.0,0.0,0.0,0.0,0.0,0.0,0.0,0.0,0.0,0.0,0.0,0.0,0.0,0.0,0.0,3.2896,3.5756,3.5048,0.0,3.3587,0.0,0.0,0.0,0.0,0.0,0.0,0.0,0.0,0.0,0.0,0.0,0.0,0.0,0.0,0.0,0.0,0.0,0.0,0.0,0.0,0.0,0.0,0.0,0.0,0.0,0.0,0.0,0.0,0.0,0.0,0.0,0.0,0.0,0.0,0.0,0.0,0.0,0.0,0.0,0.0,0.0,0.0,0.0,0.0,0.0,0.0,0.0,0.0,0.0,0.0,0.0,0.0,0.0,0.0,0.0,0.0,0.0,0.0,0.0,0.0,0.0,0.0,0.0,0.0,0.0,0.0,0.0,0.0,0.0,0.0,0.0,0.0,0.0,0.0,0.0,0.0,0.0,0.0,0.0,0.0,0.0,0.0,0.0,0.0,0.0,0.0,0.0,0.0,0.0,0.0,0.0,0.0,0.0,0.0,0.0,0.0,0.0,0.0,0.0,0.0,0.0,0.0,0.0,0.0,0.0,0.0,0.0,0.0,0.0,0.0,3.395,3.4798,3.4464,3.391,0.0,0.0,0.0,0.0,0.0,0.0,0.0,0.0,0.0,0.0,0.0,0.0,0.0,0.0,0.0,0.0,0.0,0.0,0.0,0.0,0.0,0.0,0.0,0.0,0.0,0.0,0.0,0.0,0.0,0.0,0.0,0.0,0.0,0.0,0.0,0.0,0.0,0.0,0.0,0.0,0.0,0.0,0.0,0.0,0.0,0.0,0.0,0.0,0.0,0.0,0.0,0.0,0.0,0.0,0.0,0.0,0.0,0.0,0.0,0.0,0.0,0.0,0.0,0.0,0.0,0.0,0.0,0.0,0.0,0.0,0.0,0.0,0.0,0.0,0.0,0.0,0.0,0.0,0.0,0.0,0.0,0.0,0.0,0.0,0.0,0.0,0.0,0.0,0.0,0.0,0.0,0.0,0.0,0.0,0.0,0.0,0.0,0.0,0.0,0.0,0.0,0.0,0.0,0.0,0.0,0.0,0.0,0.0,0.0,0.0,3.372,3.4494,3.4798,3.4801,3.4134,3.2656,0.0,0.0,0.0,0.0,0.0,0.0,0.0,0.0,0.0,0.0,0.0,0.0,0.0,0.0,0.0,0.0,0.0,0.0,0.0,0.0,0.0,0.0,0.0,0.0,0.0,0.0,0.0,0.0,0.0,0.0,0.0,0.0,0.0,0.0,0.0,0.0,0.0,0.0,0.0,0.0,0.0,0.0,0.0,0.0,0.0,0.0,0.0,0.0,0.0,0.0,0.0,0.0,0.0,0.0,0.0,0.0,0.0,0.0,0.0,0.0,0.0,0.0,0.0,0.0,0.0,0.0,0.0,0.0,0.0,0.0,0.0,0.0,0.0,0.0,0.0,0.0,0.0,0.0,0.0,0.0,0.0,0.0,0.0,0.0,0.0,0.0,0.0,0.0,0.0,0.0,0.0,0.0,0.0,0.0,0.0,0.0,0.0,0.0,0.0,0.0,0.0,0.0,0.0,0.0,0.0,0.0,0.0,0.0,3.7727,3.4604,3.4204,3.7199,3.7353,3.5836,0.0,0.0,0.0,0.0,0.0,0.0,0.0,0.0,0.0,0.0,0.0,0.0,0.0,0.0,0.0,0.0,0.0,0.0,0.0,0.0,0.0,0.0,0.0,0.0,0.0,0.0,0.0,0.0,0.0,0.0,0.0,0.0,0.0,0.0,0.0,0.0,0.0,0.0,0.0,0.0,0.0,0.0,0.0,0.0,0.0,0.0,0.0,0.0,0.0,0.0,0.0,0.0,0.0,0.0,0.0,0.0,0.0,0.0,0.0,0.0,0.0,0.0,0.0,0.0,0.0,0.0,0.0,0.0,0.0,0.0,0.0,0.0,0.0,0.0,0.0,0.0,0.0,0.0,0.0,0.0,0.0,0.0,0.0,0.0,0.0,0.0,0.0,0.0,0.0,0.0,0.0,0.0,0.0,0.0,0.0,0.0,0.0,0.0,0.0,0.0,0.0,0.0,0.0,0.0,0.0,0.0,0.0,0.0,0.0,3.2366,3.3029,3.5418,3.946,3.6299,3.4281,0.0,0.0,0.0,0.0,0.0,0.0,0.0,0.0,0.0,0.0,0.0,0.0,0.0,0.0,0.0,0.0,0.0,0.0,0.0,0.0,0.0,0.0,0.0,0.0,0.0,0.0,0.0,0.0,0.0,0.0,0.0,0.0,0.0,0.0,0.0,0.0,0.0,0.0,0.0,0.0,0.0,0.0,0.0,0.0,0.0,0.0,0.0,0.0,0.0,0.0,0.0,0.0,0.0,0.0,0.0,0.0,0.0,0.0,0.0,0.0,0.0,0.0,0.0,0.0,0.0,0.0,0.0,0.0,0.0,0.0,0.0,0.0,0.0,0.0,0.0,0.0,0.0,0.0,0.0,0.0,0.0,0.0,0.0,0.0,0.0,0.0,0.0,0.0,0.0,0.0,0.0,0.0,0.0,0.0,0.0,0.0,0.0,0.0,0.0,0.0,0.0,0.0,0.0,0.0,0.0,0.0,0.0,0.0,0.0,3.1378,0.0,3.7287,3.9272,3.5801,3.3296,0.0,0.0,0.0,0.0,0.0,0.0,0.0,0.0,0.0,0.0,0.0,0.0,0.0,0.0,0.0,0.0,0.0,0.0,0.0,0.0,0.0,0.0,0.0,0.0,0.0,0.0,0.0,0.0,0.0,0.0,0.0,0.0,0.0,0.0,0.0,0.0,0.0,0.0,0.0,0.0,0.0,0.0,0.0,0.0,0.0,0.0,0.0,0.0,0.0,0.0,0.0,0.0,0.0,0.0,0.0,0.0,0.0,0.0,0.0,0.0,0.0,0.0,0.0,0.0,0.0,0.0,0.0,0.0,0.0,0.0,0.0,0.0,0.0,0.0,0.0,0.0,0.0,0.0,0.0,0.0,0.0,0.0,0.0,0.0,0.0,0.0,0.0,0.0,0.0,0.0,0.0,0.0,0.0,0.0,0.0,0.0,0.0,0.0,0.0,0.0,0.0,0.0,0.0,0.0,0.0,0.0,0.0,0.0,3.1408,3.6009,3.9191,3.9367,3.6563,3.6179,3.3143,0.0,0.0,0.0,0.0,0.0,0.0,0.0,0.0,0.0,0.0,0.0,0.0,0.0,0.0,0.0,0.0,0.0,0.0,0.0,0.0,0.0,0.0,0.0,0.0,0.0,0.0,0.0,0.0,0.0,0.0,0.0,0.0,0.0,0.0,0.0,0.0,0.0,0.0,0.0,0.0,0.0,0.0,0.0,0.0,0.0,0.0,0.0,0.0,0.0,0.0,0.0,0.0,0.0,0.0,0.0,0.0,0.0,0.0,0.0,0.0,0.0,0.0,0.0,0.0,0.0,0.0,0.0,0.0,0.0,0.0,0.0,0.0,0.0,0.0,0.0,0.0,0.0,0.0,0.0,0.0,0.0,0.0,0.0,0.0,0.0,0.0,0.0,0.0,0.0,0.0,0.0,0.0,0.0,0.0,0.0,0.0,0.0,0.0,0.0,0.0,0.0,0.0,0.0,0.0,0.0,0.0,0.0,0.0,0.0,3.383,3.6797,3.9029,4.0065,3.5411,3.3155,0.0,0.0,0.0,0.0,0.0,0.0,0.0,0.0,0.0,0.0,0.0,0.0,0.0,0.0,0.0,0.0,0.0,0.0,0.0,0.0,0.0,0.0,0.0,0.0,0.0,0.0,0.0,0.0,0.0,0.0,0.0,0.0,0.0,0.0,0.0,0.0,0.0,0.0,0.0,0.0,0.0,0.0,0.0,0.0,0.0,0.0,0.0,0.0,0.0,0.0,0.0,0.0,0.0,0.0,0.0,0.0,0.0,0.0,0.0,0.0,0.0,0.0,0.0,0.0,0.0,0.0,0.0,0.0,0.0,0.0,0.0,0.0,0.0,0.0,0.0,0.0,0.0,0.0,0.0,0.0,0.0,0.0,0.0,0.0,0.0,0.0,0.0,0.0,0.0,0.0,0.0,0.0,0.0,0.0,0.0,0.0,0.0,0.0,0.0,0.0,0.0,0.0,0.0,0.0,0.0,0.0,0.0,0.0,0.0,3.672,3.9333,4.1309,4.2484,3.7244,3.455,3.4783,0.0,0.0,0.0,0.0,0.0,0.0,0.0,0.0,0.0,0.0,0.0,0.0,0.0,0.0,0.0,0.0,0.0,0.0,0.0,0.0,0.0,0.0,0.0,0.0,0.0,0.0,0.0,0.0,0.0,0.0,0.0,0.0,0.0,0.0,0.0,0.0,0.0,0.0,0.0,0.0,0.0,0.0,0.0,0.0,0.0,0.0,0.0,0.0,0.0,0.0,0.0,0.0,0.0,0.0,0.0,0.0,0.0,0.0,0.0,0.0,0.0,0.0,0.0,0.0,0.0,0.0,0.0,0.0,0.0,0.0,0.0,0.0,0.0,0.0,0.0,0.0,0.0,0.0,0.0,0.0,0.0,0.0,0.0,0.0,0.0,0.0,0.0,0.0,0.0,0.0,0.0,0.0,0.0,0.0,0.0,0.0,0.0,0.0,0.0,0.0,0.0,0.0,0.0,0.0,0.0,0.0,0.0,0.0,4.3497,4.5911,4.6052,4.3788,4.1078,3.7175,0.0,0.0,0.0,0.0,0.0,0.0,0.0,0.0,0.0,0.0,0.0,0.0,0.0,0.0,0.0,0.0,0.0,0.0,0.0,0.0,0.0,0.0,0.0,0.0,0.0,0.0,0.0,0.0,0.0,0.0,0.0,0.0,0.0,0.0,0.0,0.0,0.0,0.0,0.0,0.0,0.0,0.0,0.0,0.0,0.0,0.0,0.0,0.0,0.0,0.0,0.0,0.0,0.0,0.0,0.0,0.0,0.0,0.0,0.0,0.0,0.0,0.0,0.0,0.0,0.0,0.0,0.0,0.0,0.0,0.0,0.0,0.0,0.0,0.0,0.0,0.0,0.0,0.0,0.0,0.0,0.0,0.0,0.0,0.0,0.0,0.0,0.0,0.0,0.0,0.0,0.0,0.0,0.0,0.0,0.0,0.0,0.0,0.0,0.0,0.0,0.0,0.0,0.0,0.0,0.0,0.0,0.0,0.0,0.0,4.7388,5.0381,5.1034,4.9221,4.4054,4.0379,0.0,0.0,0.0,0.0,0.0,0.0,0.0,0.0,0.0,0.0,0.0,0.0,0.0,0.0,0.0,0.0,0.0,0.0,0.0,0.0,0.0,0.0,0.0,0.0,0.0,0.0,0.0,0.0,0.0,0.0,0.0,0.0,0.0,0.0,0.0,0.0,0.0,0.0,0.0,0.0,0.0,0.0,0.0,0.0,0.0,0.0,0.0,0.0,0.0,0.0,0.0,0.0,0.0,0.0,0.0,0.0,0.0,0.0,0.0,0.0,0.0,0.0,0.0,0.0,0.0,0.0,0.0,0.0,0.0,0.0,0.0,0.0,0.0,0.0,0.0,0.0,0.0,0.0,0.0,0.0,0.0,0.0,0.0,0.0,0.0,0.0,0.0,0.0,0.0,0.0,0.0,0.0,0.0,0.0,0.0,0.0,0.0,0.0,0.0,0.0,0.0,0.0,0.0,0.0,0.0,0.0,0.0,0.0,4.6122,4.9982,5.3405,5.4362,5.2617,4.7663,4.3585,0.0,0.0,0.0,0.0,0.0,0.0,0.0,0.0,0.0,0.0,0.0,0.0,0.0,0.0,0.0,0.0,0.0,0.0,0.0,0.0,0.0,0.0,0.0,0.0,0.0,0.0,0.0,0.0,0.0,0.0,0.0,0.0,0.0,0.0,0.0,0.0,0.0,0.0,0.0,0.0,0.0,0.0,0.0,0.0,0.0,0.0,0.0,0.0,0.0,0.0,0.0,0.0,0.0,0.0,0.0,0.0,0.0,0.0,0.0,0.0,0.0,0.0,0.0,0.0,0.0,0.0,0.0,0.0,0.0,0.0,0.0,0.0,0.0,0.0,0.0,0.0,0.0,0.0,0.0,0.0,0.0,0.0,0.0,0.0,0.0,0.0,0.0,0.0,0.0,0.0,0.0,0.0,0.0,0.0,0.0,0.0,0.0,0.0,0.0,0.0,0.0,0.0,0.0,0.0,0.0,0.0,0.0,0.0,4.9013,5.1593,5.5222,5.6236,5.4429,5.1086,4.6498,0.0,0.0,0.0,0.0,0.0,0.0,0.0,0.0,0.0,0.0,0.0,0.0,0.0,0.0,0.0,0.0,0.0,0.0,0.0,0.0,0.0,0.0,0.0,0.0,0.0,0.0,0.0,0.0,0.0,0.0,0.0,0.0,0.0,0.0,0.0,0.0,0.0,0.0,0.0,0.0,0.0,0.0,0.0,0.0,0.0,0.0,0.0,0.0,0.0,0.0,0.0,0.0,0.0,0.0,0.0,0.0,0.0,0.0,0.0,0.0,0.0,0.0,0.0,0.0,0.0,0.0,0.0,0.0,0.0,0.0,0.0,0.0,0.0,0.0,0.0,0.0,0.0,0.0,0.0,0.0,0.0,0.0,0.0,0.0,0.0,0.0,0.0,0.0,0.0,0.0,0.0,0.0,0.0,0.0,0.0,0.0,0.0,0.0,0.0,0.0,0.0,0.0,0.0,0.0,0.0,0.0,0.0,0.0,4.9442,5.2377,5.5084,5.6301,5.5876,5.1599,4.7187,0.0,0.0,0.0,0.0,0.0,0.0,0.0,0.0,0.0,0.0,0.0,0.0,0.0,0.0,0.0,0.0,0.0,0.0,0.0,0.0,0.0,0.0,0.0,0.0,0.0,0.0,0.0,0.0,0.0,0.0,0.0,0.0,0.0,0.0,0.0,0.0,0.0,0.0,0.0,0.0,0.0,0.0,0.0,0.0,0.0,0.0,0.0,0.0,3.0535,0.0,0.0,0.0,0.0,0.0,0.0,0.0,0.0,0.0,0.0,0.0,0.0,0.0,0.0,0.0,0.0,0.0,0.0,0.0,0.0,0.0,0.0,0.0,0.0,0.0,0.0,0.0,0.0,0.0,0.0,0.0,0.0,0.0,0.0,0.0,0.0,0.0,0.0,0.0,0.0,0.0,0.0,0.0,0.0,0.0,0.0,0.0,0.0,0.0,0.0,0.0,0.0,0.0,0.0,0.0,0.0,0.0,0.0,0.0,5.0735,5.2895,5.484,5.5572,5.4904,5.1836,4.8139,0.0,0.0,0.0,0.0,0.0,0.0,0.0,0.0,0.0,0.0,0.0,0.0,0.0,0.0,0.0,0.0,0.0,0.0,0.0,0.0,0.0,0.0,0.0,0.0,0.0,0.0,0.0,0.0,0.0,0.0,0.0,0.0,0.0,0.0,0.0,0.0,0.0,0.0,0.0,0.0,0.0,0.0,0.0,0.0,0.0,0.0,0.0,0.0,0.0,0.0,0.0,0.0,0.0,0.0,0.0,0.0,0.0,0.0,0.0,0.0,0.0,0.0,0.0,0.0,0.0,0.0,0.0,0.0,0.0,0.0,0.0,0.0,0.0,0.0,0.0,0.0,0.0,0.0,0.0,0.0,0.0,0.0,0.0,0.0,0.0,0.0,0.0,0.0,0.0,0.0,0.0,0.0,0.0,0.0,0.0,0.0,0.0,0.0,0.0,0.0,0.0,0.0,0.0,0.0,0.0,0.0,0.0,4.8066,5.1721,5.3353,5.4592,5.473,5.3659,5.1987,4.9002,4.4565,0.0,0.0,0.0,0.0,0.0,0.0,0.0,0.0,0.0,0.0,0.0,0.0,0.0,0.0,0.0,0.0,0.0,0.0,0.0,0.0,0.0,0.0,0.0,0.0,0.0,0.0,0.0,0.0,0.0,0.0,0.0,0.0,0.0,0.0,0.0,0.0,0.0,0.0,3.1348,3.4388,0.0,0.0,0.0,0.0,0.0,0.0,0.0,0.0,3.3642,0.0,0.0,0.0,0.0,0.0,0.0,0.0,0.0,0.0,0.0,0.0,0.0,0.0,0.0,0.0,0.0,0.0,0.0,0.0,0.0,0.0,0.0,0.0,0.0,0.0,0.0,0.0,0.0,0.0,0.0,0.0,0.0,0.0,0.0,0.0,0.0,0.0,0.0,0.0,0.0,0.0,0.0,0.0,0.0,0.0,0.0,0.0,0.0,0.0,0.0,0.0,0.0,0.0,0.0,0.0,0.0,4.6735,4.7838,5.0227,5.4096,5.444,5.4462,5.4224,5.2237,4.9093,4.4673,0.0,0.0,0.0,0.0,0.0,0.0,0.0,0.0,0.0,0.0,0.0,0.0,0.0,0.0,0.0,0.0,0.0,0.0,0.0,0.0,0.0,0.0,0.0,0.0,0.0,0.0,0.0,0.0,0.0,0.0,0.0,0.0,0.0,0.0,0.0,0.0,0.0,0.0,0.0,3.9444,4.0371,0.0,0.0,0.0,0.0,0.0,0.0,0.0,0.0,3.3512,0.0,0.0,0.0,0.0,0.0,0.0,0.0,0.0,0.0,0.0,0.0,0.0,0.0,0.0,0.0,0.0,0.0,0.0,0.0,0.0,0.0,0.0,0.0,0.0,0.0,0.0,0.0,0.0,0.0,0.0,0.0,0.0,0.0,0.0,0.0,0.0,0.0,0.0,0.0,0.0,0.0,0.0,0.0,0.0,0.0,0.0,0.0,0.0,0.0,0.0,0.0,0.0,0.0,0.0,0.0,4.5615,4.8564,5.1282,5.3809,5.393,5.393,5.3845,5.0681,4.7361,0.0,0.0,0.0,0.0,0.0,0.0,0.0,0.0,0.0,0.0,0.0,0.0,0.0,0.0,0.0,0.0,0.0,0.0,0.0,0.0,0.0,0.0,0.0,0.0,0.0,0.0,0.0,0.0,0.0,0.0,0.0,0.0,0.0,0.0,0.0,0.0,0.0,0.0,0.0,0.0,4.0187,4.095,4.0131,0.0,0.0,0.0,0.0,0.0,0.0,3.5836,3.4967,0.0,0.0,0.0,0.0,0.0,0.0,0.0,0.0,0.0,0.0,0.0,0.0,0.0,0.0,0.0,0.0,0.0,0.0,0.0,0.0,0.0,0.0,0.0,0.0,0.0,0.0,0.0,0.0,0.0,0.0,0.0,0.0,0.0,0.0,0.0,0.0,0.0,0.0,0.0,0.0,0.0,0.0,0.0,0.0,0.0,0.0,0.0,0.0,0.0,0.0,0.0,0.0,0.0,0.0,0.0,4.4097,4.8821,5.2007,5.3399,5.3509,5.3509,5.3441,4.9601,4.6177,0.0,0.0,0.0,0.0,0.0,0.0,0.0,0.0,0.0,0.0,0.0,0.0,0.0,0.0,0.0,0.0,0.0,0.0,0.0,0.0,0.0,0.0,0.0,0.0,0.0,0.0,0.0,0.0,0.0,0.0,0.0,0.0,0.0,0.0,0.0,0.0,0.0,0.0,0.0,0.0,0.0,4.153,4.0411,4.0246,0.0,0.0,0.0,0.0,3.9073,3.874,0.0,0.0,0.0,0.0,0.0,0.0,0.0,0.0,0.0,0.0,0.0,0.0,0.0,0.0,0.0,0.0,0.0,0.0,0.0,0.0,0.0,0.0,0.0,0.0,0.0,0.0,0.0,0.0,0.0,0.0,0.0,0.0,0.0,0.0,0.0,0.0,0.0,0.0,0.0,0.0,0.0,0.0,0.0,0.0,0.0,0.0,0.0,0.0,0.0,0.0,0.0,0.0,0.0,0.0,0.0,0.0,4.4339,4.7043,5.0062,5.3315,5.3509,5.3509,5.3475,5.1056,4.7733,0.0,0.0,0.0,0.0,0.0,0.0,0.0,0.0,0.0,0.0,0.0,0.0,0.0,0.0,0.0,0.0,0.0,0.0,0.0,0.0,0.0,0.0,0.0,0.0,0.0,0.0,0.0,0.0,0.0,0.0,0.0,0.0,0.0,0.0,0.0,0.0,0.0,0.0,0.0,0.0,0.0,4.4558,4.2909,4.2268,4.2108,0.0,0.0,4.1447,4.3518,4.3728,0.0,0.0,0.0,0.0,0.0,0.0,0.0,0.0,0.0,0.0,0.0,0.0,0.0,0.0,0.0,0.0,0.0,0.0,0.0,0.0,0.0,0.0,0.0,0.0,0.0,0.0,0.0,0.0,0.0,0.0,0.0,0.0,0.0,0.0,0.0,0.0,0.0,0.0,0.0,0.0,0.0,0.0,0.0,0.0,0.0,0.0,0.0,0.0,0.0,0.0,0.0,0.0,0.0,0.0,0.0,3.9519,4.4458,4.8409,5.1412,5.3408,5.3509,5.3509,5.3475,4.9695,4.5899,0.0,0.0,0.0,0.0,0.0,0.0,0.0,0.0,0.0,0.0,0.0,0.0,0.0,0.0,0.0,0.0,0.0,0.0,0.0,0.0,0.0,0.0,0.0,0.0,0.0,0.0,0.0,0.0,0.0,0.0,0.0,0.0,0.0,0.0,0.0,0.0,0.0,0.0,0.0,0.0,0.0,0.0,4.5152,4.4999,0.0,0.0,0.0,4.4722,4.5676,0.0,0.0,0.0,0.0,0.0,0.0,0.0,0.0,0.0,0.0,0.0,0.0,0.0,0.0,0.0,0.0,0.0,0.0,0.0,0.0,0.0,0.0,0.0,0.0,0.0,0.0,0.0,0.0,0.0,0.0,0.0,0.0,0.0,0.0,0.0,0.0,0.0,0.0,0.0,0.0,0.0,0.0,0.0,0.0,0.0,0.0,0.0,0.0,0.0,0.0,0.0,0.0,0.0,0.0,0.0,0.0,0.0,4.4519,4.9661,5.2706,5.3475,5.3509,5.3509,5.3408,4.8951,0.0,0.0,0.0,0.0,0.0,0.0,0.0,0.0,0.0,0.0,0.0,0.0,0.0,0.0,0.0,0.0,0.0,0.0,0.0,0.0,0.0,0.0,0.0,0.0,0.0,0.0,0.0,2.3297,0.0,0.0,0.0,0.0,0.0,0.0,0.0,0.0,0.0,0.0,0.0,0.0,0.0,0.0,4.5596,4.7142,4.7673,4.8037,0.0,0.0,4.7977,4.8146,4.8485,4.7233,0.0,0.0,0.0,0.0,0.0,0.0,0.0,0.0,0.0,0.0,0.0,0.0,0.0,0.0,0.0,0.0,0.0,0.0,0.0,0.0,0.0,0.0,0.0,0.0,0.0,0.0,0.0,0.0,0.0,0.0,0.0,0.0,0.0,0.0,0.0,0.0,0.0,0.0,0.0,0.0,0.0,0.0,0.0,0.0,0.0,0.0,0.0,0.0,0.0,0.0,0.0,0.0,0.0,0.0,4.0844,4.4608,4.9661,5.2697,5.3475,5.3509,5.3509,5.3441,5.0431,4.6711,0.0,0.0,0.0,0.0,0.0,0.0,0.0,0.0,0.0,0.0,0.0,0.0,0.0,0.0,0.0,0.0,0.0,0.0,0.0,0.0,0.0,0.0,0.0,0.0,0.0,0.0,0.0,0.0,0.0,0.0,0.0,0.0,0.0,0.0,0.0,0.0,0.0,0.0,0.0,0.0,0.0,4.7958,4.8748,5.0025,5.1412,0.0,5.1818,5.1141,5.1826,5.3086,5.1876,4.542,0.0,0.0,0.0,0.0,0.0,0.0,0.0,0.0,0.0,0.0,0.0,0.0,0.0,0.0,0.0,0.0,0.0,0.0,0.0,0.0,0.0,0.0,0.0,0.0,0.0,0.0,0.0,0.0,0.0,0.0,0.0,0.0,0.0,0.0,0.0,0.0,0.0,0.0,0.0,0.0,0.0,0.0,0.0,0.0,0.0,0.0,0.0,0.0,0.0,0.0,0.0,0.0,0.0,4.1305,4.4615,5.0176,5.3205,5.3475,5.3509,5.3509,5.3518,5.1014,4.7571,0.0,0.0,0.0,0.0,0.0,0.0,0.0,0.0,0.0,0.0,0.0,0.0,0.0,0.0,0.0,0.0,0.0,0.0,0.0,0.0,0.0,0.0,0.0,0.0,0.0,0.0,0.0,0.0,3.0205,3.1011,3.0417,0.0,0.0,0.0,0.0,0.0,0.0,0.0,0.0,0.0,0.0,5.0033,5.2131,5.3306,0.0,0.0,5.3695,5.3382,5.3653,5.2646,5.0642,4.7192,4.4843,0.0,0.0,0.0,0.0,0.0,0.0,0.0,0.0,0.0,0.0,0.0,0.0,0.0,0.0,0.0,0.0,0.0,0.0,0.0,0.0,0.0,0.0,0.0,0.0,0.0,0.0,0.0,0.0,0.0,0.0,0.0,0.0,0.0,0.0,0.0,0.0,0.0,0.0,0.0,0.0,0.0,0.0,0.0,0.0,0.0,0.0,0.0,0.0,0.0,0.0,0.0,0.0,4.1806,4.5244,5.0676,5.3611,5.3814,5.3611,5.3509,5.3441,5.1496,4.8436,0.0,0.0,0.0,0.0,0.0,0.0,0.0,0.0,0.0,0.0,0.0,0.0,0.0,0.0,0.0,0.0,0.0,0.0,0.0,0.0,0.0,0.0,0.0,0.0,0.0,0.0,0.0,0.0,3.1997,3.2171,3.0722,0.0,0.0,0.0,0.0,0.0,0.0,0.0,0.0,0.0,0.0,5.2037,5.4566,5.5369,5.5597,5.5285,5.4879,5.4609,5.4609,5.3188,5.1209,4.8623,0.0,0.0,0.0,0.0,0.0,0.0,0.0,0.0,0.0,0.0,0.0,0.0,0.0,0.0,0.0,0.0,0.0,0.0,0.0,0.0,0.0,0.0,0.0,0.0,0.0,0.0,0.0,2.5573,0.0,0.0,2.2388,0.0,0.0,0.0,0.0,0.0,0.0,0.0,0.0,0.0,0.0,0.0,0.0,0.0,0.0,0.0,0.0,0.0,0.0,0.0,0.0,0.0,0.0,4.2307,4.6684,5.1217,5.3856,5.4507,5.3856,5.3509,5.3475,5.2013,4.9442,4.5703,0.0,0.0,0.0,0.0,0.0,0.0,0.0,0.0,0.0,0.0,0.0,0.0,0.0,0.0,0.0,0.0,0.0,0.0,0.0,0.0,0.0,0.0,0.0,0.0,0.0,0.0,3.0243,3.0818,3.076,0.0,0.0,0.0,0.0,0.0,0.0,0.0,0.0,0.0,4.83,5.1522,5.3983,5.5462,5.5733,5.6046,5.6664,5.5556,5.4642,5.471,5.5683,5.4905,0.0,0.0,0.0,0.0,0.0,0.0,0.0,0.0,0.0,0.0,0.0,0.0,0.0,0.0,0.0,0.0,0.0,0.0,0.0,0.0,0.0,0.0,0.0,0.0,0.0,0.0,0.0,3.1704,3.0049,0.0,0.0,0.0,0.0,0.0,0.0,0.0,0.0,0.0,0.0,0.0,4.088,4.2855,0.0,0.0,0.0,0.0,0.0,0.0,0.0,0.0,0.0,0.0,0.0,0.0,4.2787,4.6827,5.1733,5.4338,5.4575,5.4372,5.4,5.3518,5.2503,4.9729,4.5094,0.0,0.0,0.0,0.0,0.0,0.0,0.0,0.0,0.0,0.0,0.0,0.0,0.0,0.0,0.0,0.0,0.0,0.0,0.0,0.0,0.0,0.0,0.0,0.0,0.0,3.2297,0.0,0.0,0.0,0.0,0.0,0.0,0.0,0.0,0.0,0.0,4.37,4.7319,5.0744,5.378,5.5877,5.635,5.7703,5.838,0.0,0.0,0.0,0.0,0.0,0.0,0.0,0.0,0.0,0.0,0.0,0.0,0.0,0.0,5.7737,4.9104,4.7116,4.6846,4.709,0.0,0.0,0.0,0.0,0.0,0.0,0.0,0.0,0.0,0.0,0.0,0.0,0.0,0.0,3.6738,3.5362,3.4342,0.0,0.0,0.0,0.0,0.0,0.0,0.0,0.0,4.3504,4.5858,4.6568,4.8315,4.8168,4.6412,4.5768,4.2381,0.0,0.0,0.0,0.0,0.0,0.0,0.0,0.0,4.4065,4.8274,5.2443,5.4846,5.5319,5.4879,5.4363,5.389,5.2596,5.0202,4.6631,4.4127,4.165,0.0,0.0,0.0,0.0,0.0,0.0,0.0,0.0,0.0,0.0,0.0,0.0,0.0,0.0,0.0,0.0,0.0,0.0,0.0,0.0,0.0,0.0,0.0,3.379,0.0,0.0,0.0,0.0,0.0,0.0,0.0,0.0,0.0,4.4661,4.7902,5.1412,5.46,5.6486,5.7669,5.7915,0.0,0.0,0.0,0.0,0.0,0.0,0.0,5.6409,5.8084,5.7205,5.6553,5.75,6.1119,6.3609,6.2594,0.0,0.0,5.5952,5.4016,5.3746,5.3983,5.5234,5.6292,5.6537,5.8143,5.937,0.0,0.0,0.0,0.0,4.1508,0.0,0.0,0.0,4.2009,4.1637,0.0,3.9952,0.0,0.0,0.0,0.0,3.6174,4.1022,0.0,0.0,5.0913,5.3036,5.2435,5.3103,5.3036,5.2194,5.291,5.1011,4.635,3.8866,0.0,0.0,0.0,0.0,0.0,0.0,4.6087,5.1032,5.3518,5.5344,5.6689,5.5421,5.4642,5.4541,5.2461,5.093,5.015,4.8706,4.5959,4.1644,3.9229,0.0,0.0,0.0,0.0,0.0,0.0,0.0,0.0,0.0,0.0,0.0,0.0,0.0,0.0,0.0,0.0,0.0,0.0,0.0,0.0,3.4162,0.0,0.0,0.0,0.0,0.0,0.0,0.0,0.0,0.0,5.1657,4.983,5.2604,5.6097,5.9573,0.0,0.0,0.0,0.0,5.9462,6.0216,6.096,6.1501,6.1501,6.3125,6.3724,6.1839,0.0,0.0,6.2091,6.4559,6.6071,6.3274,6.5107,6.6718,6.6785,6.4076,6.253,6.3197,6.2361,6.1917,6.2627,6.3937,6.4918,5.2334,0.0,0.0,0.0,0.0,4.7218,4.9018,5.2536,5.0736,4.9044,4.747,4.6007,0.0,0.0,0.0,0.0,0.0,0.0,4.6677,4.9645,5.1716,5.3374,5.4727,5.4964,5.4929,5.464,5.4259,5.3112,5.1185,4.7722,4.2817,3.6755,0.0,0.0,0.0,0.0,4.877,5.1945,5.4727,5.6393,5.679,5.6393,5.5658,5.4609,5.345,5.2461,5.1691,5.0769,4.9164,4.6812,4.3098,0.0,0.0,0.0,0.0,0.0,0.0,0.0,0.0,0.0,0.0,0.0,0.0,0.0,0.0,0.0,0.0,0.0,0.0,0.0,3.5639,3.6502,3.7347,0.0,0.0,0.0,0.0,0.0,0.0,0.0,0.0,0.0,5.8364,5.8998,5.9539,0.0,0.0,6.1308,6.1028,6.21,6.326,6.3971,6.4715,0.0,6.5212,6.4434,6.4299,6.5764,6.7635,6.8731,6.8232,6.9041,6.9558,6.8976,6.9591,7.0306,7.0665,6.791,6.5975,6.6862,6.7395,6.8075,6.9282,7.0308,7.0906,5.9066,5.4524,5.2198,5.2401,5.4177,5.334,5.4761,5.7602,5.6249,5.4896,5.3551,5.2359,4.9864,4.6447,4.508,0.0,0.0,0.0,5.1336,5.4321,5.4752,5.5799,5.7272,5.733,5.7248,5.7034,5.6316,5.5648,5.5122,5.3571,4.978,4.3988,0.0,4.444,4.4394,4.7988,5.1101,5.3483,5.5593,5.6853,5.7239,5.6934,5.6258,5.5074,5.4591,5.4025,5.3247,5.2765,5.1725,4.9924,4.6752,4.32,0.0,0.0,0.0,0.0,0.0,0.0,0.0,0.0,0.0,0.0,0.0,3.0519,2.7448,0.0,0.0,0.0,3.5222,3.7996,4.0506,4.1684,0.0,0.0,0.0,0.0,0.0,0.0,0.0,5.6215,5.9438,6.212,6.3913,6.4309,6.4106,6.3294,6.3507,6.3744,6.3903,0.0,6.573,6.644,6.7381,6.7992,6.7947,6.7052,6.692,6.8615,6.967,7.0501,7.1081,7.1147,7.1358,7.1843,7.1971,7.2033,7.25,7.0491,6.9088,7.0095,7.0747,7.1478,7.2376,7.2871,7.3186,6.4569,6.3646,6.0216,5.8998,5.9361,5.9351,5.9385,5.9453,5.9394,5.9284,5.9115,5.8423,5.6885,5.4744,5.2664,0.0,5.3991,5.5309,5.6991,5.9053,5.9043,5.9302,5.9761,5.9751,5.9591,5.9195,5.8718,5.8355,5.81,5.6962,5.5333,5.3249,5.0535,4.9675,5.0677,5.1546,5.3164,5.5414,5.6172,5.6988,5.7802,5.7126,5.6416,5.5681,5.5614,5.5217,5.4541,5.4499,5.3551,5.148,4.9932,4.6853,4.1975,0.0,0.0,0.0,0.0,0.0,0.0,0.0,0.0,0.0,0.0,0.0,0.0,0.0,0.0,3.8491,4.1143,0.0,4.6793,4.8376,0.0,0.0,0.0,5.219,5.334,5.7002,6.0028,6.1559,0.0,0.0,6.7072,6.8313,6.899,6.8267,6.6924,6.6451,6.7793,6.74,6.7288,6.8044,6.9085,6.9805,6.9704,6.9938,7.0103,7.0282,7.0526,7.0838,7.1406,7.1662,7.1963,7.2582,7.2571,7.2504,7.2538,7.2471,7.2598,7.2673,7.2768,7.2792,7.296,7.3005,7.3096,6.7929,6.7692,6.6812,6.4884,6.2429,6.2429,6.2743,6.3193,6.2665,6.1796,6.0714,5.9921,5.8669,5.7079,5.6537,5.6799,5.7694,5.7919,5.8586,5.9578,5.9458,5.9462,5.9582,5.9582,5.9533,5.9402,5.9127,5.8981,5.8922,5.8468,5.8,5.7393,5.6165,5.4201,5.1613,5.3746,5.5259,5.6005,5.6727,5.7225,5.7415,5.6725,5.6032,5.5469,5.4914,5.4343,5.378,5.3754,5.3518,5.2934,5.0955,4.8748,4.6399,4.117,0.0,0.0,0.0,0.0,0.0,0.0,0.0,0.0,0.0,4.0149,3.3413,0.0,4.3809,0.0,4.6184,4.8552,4.9271,5.0642,0.0,0.0,5.6765,5.7958,6.2062,6.2956,6.3869,6.5314,6.7309,6.8774,6.9316,7.0029,7.049,7.0455,6.9203,6.8436,6.8764,6.9027,6.9345,6.9996,7.0208,7.0328,7.0305,7.0404,7.0492,7.0504,7.0949,7.1371,7.1382,7.1859,7.2386,7.289,7.297,7.3132,7.3621,7.3787,7.3779,7.3833,7.3672,7.3751,7.4299,7.4445,7.4411,6.9417,6.9079,6.9079,6.7895,6.5956,6.5618,6.5324,6.5053,6.4647,6.3835,6.2709,6.1965,6.096,5.9921,5.9887,5.9864,5.9851,6.0059,6.0357,6.0652,6.0534,6.0444,6.0355,6.0355,6.0295,6.0194,6.0083,6.0033,6.0023,5.9613,5.9363,5.9363,5.8634,5.7175,5.5061,5.5818,5.635,5.6547,5.706,5.7308,5.7275,5.6586,5.5886,5.5291,5.4863,5.4043,5.2809,5.2809,5.2581,5.188,5.0433,4.9078,4.7887,4.4174,4.0961,0.0,0.0,0.0,0.0,0.0,0.0,0.0,0.0,0.0,0.0,0.0,4.8097,4.8052,5.1394,5.3966,5.4972,5.7306,5.9902,6.2777,6.299,6.3998,6.6776,6.6968,6.732,6.8324,6.931,7.0029,7.0288,7.0647,7.0905,7.0939,7.0232,6.9771,6.9883,7.003,7.0274,7.0654,7.0537,7.0328,7.0201,7.0178,7.0278,7.0644,7.0999,7.1451,7.1984,7.2425,7.2907,7.3459,7.3587,7.372,7.413,7.4196,7.4196,7.4168,7.4078,7.4177,7.4547,7.4647,7.4647,6.957,6.8986,6.9119,6.9129,6.9016,6.8416,6.7354,6.5977,6.5876,6.5415,6.463,6.392,6.3254,6.2656,6.2515,6.1977,6.1246,6.1712,6.1817,6.1659,6.1628,6.1516,6.1352,6.1386,6.1272,6.1109,6.1109,6.1109,6.1075,6.0456,6.0158,6.0115,5.9396,5.9032,5.8966,5.7684,5.7009,5.7091,5.7163,5.7224,5.719,5.6512,5.5776,5.511,5.4876,5.379,5.1782,5.1917,5.1429,5.0083,4.9603,4.9115,4.8431,4.6876,4.5039,0.0,4.2044,0.0,0.0,0.0,0.0,0.0,0.0,0.0,0.0,5.11,5.2892,5.3272,5.6774,5.98,6.1656,6.4901,6.6986,6.7189,6.8327,6.9084,6.8997,6.9514,7.004,7.046,7.0688,7.0734,7.0528,7.0699,7.0722,7.055,7.0379,7.0358,7.0699,7.0562,7.0424,7.0446,7.0293,7.007,6.9893,6.9822,7.0066,7.0705,7.106,7.1509,7.2825,7.3177,7.3442,7.403,7.413,7.4163,7.4196,7.4196,7.4196,7.4196,7.4288,7.44,7.4446,7.4446,7.4362,6.8418,6.8393,6.9221,6.9251,6.8776,6.9457,6.8887,6.7421,6.6836,6.6065,6.52,6.4472,6.4068,6.3879,6.3066,6.274,6.2693,6.188,6.1496,6.1435,6.1293,6.1212,6.1148,6.1138,6.1161,6.1109,6.1109,6.1109,6.1109,6.0986,6.0877,6.0844,6.0148,5.9794,5.9761,0.0,0.0,0.0,5.7085,5.6805,5.6772,5.6098,5.5424,5.4859,5.3701,0.0,5.1003,5.1514,5.1455,5.0634,5.1185,0.0,0.0,0.0,0.0,0.0,0.0,0.0,0.0,0.0,0.0,0.0,5.4715,5.3803,5.1928,5.7433,6.0467,5.893,6.2574,6.4961,6.4619,6.628,6.7963,6.9098,6.9301,6.9636,7.0366,7.0419,7.0416,7.0482,7.0538,7.055,7.0526,7.0421,7.042,7.0535,7.0155,7.0059,7.036,7.0348,7.0246,7.0235,7.008,6.9881,6.981,6.9831,7.0208,7.0759,7.1409,7.2105,7.2966,7.362,7.3964,7.4196,7.4196,7.4196,7.4196,7.4196,7.4196,7.4196,7.466,7.5091,7.5091,7.5091,7.5257,6.8084,6.8147,6.8667,6.8678,0.0,6.8363,6.7922,6.7174,6.6646,6.5581,6.4252,6.4522,6.4349,6.3832,6.3507,6.3363,6.3373,6.2753,6.243,6.2304,6.1686,6.15,6.1649,6.1095,6.1127,6.1605,6.1285,6.1285,6.1626,6.1285,6.1109,6.1109,6.0721,6.0556,6.0512,5.9827,5.9098,5.8336,5.7617,5.722,5.7229,5.6164,5.5274,5.4656,5.3552,0.0,0.0,0.0,0.0,0.0,0.0,0.0,0.0,0.0,0.0,5.2446,5.1966,5.2083,5.3026,5.4269,5.6194,5.8978,6.0806,6.0778,5.8407,6.1916,6.4076,6.3706,6.6037,6.7562,6.7596,6.8438,6.9368,7.0209,7.0083,7.0113,7.047,7.0433,7.0305,7.0178,7.0248,7.0428,7.0642,7.0754,7.0897,7.1152,7.0728,7.0542,7.0894,7.0465,7.0,7.0,7.0237,7.034,7.0361,7.0693,7.1123,7.184,7.227,7.2813,7.3508,7.3952,7.4196,7.4196,7.4196,7.4196,7.4196,7.4196,7.4196,7.4262,7.4793,7.5422,7.5708,7.5794,7.586,6.7414,6.7388,6.7579,6.7656,6.7591,6.6917,6.64,6.6069,6.5902,0.0,0.0,6.4472,6.4387,6.3294,6.3572,6.3513,6.3242,6.3056,6.2892,6.2684,6.1836,6.1658,6.2045,6.1184,6.126,6.2077,6.1664,6.1697,6.2098,6.1697,6.1323,6.1054,6.1132,6.1036,6.0723,6.0011,5.9459,5.903,5.8356,5.7982,5.7949,5.667,5.57,5.5104,5.4243,5.3193,5.1927,5.1502,5.0964,5.0275,5.076,5.1846,5.3701,5.4488,5.6087,5.8581,5.9392,5.9917,6.0277,6.1577,6.2559,6.2968,6.5262,6.6162,6.5012,6.5457,6.6342,6.7681,6.8339,6.902,6.9793,7.0193,7.0515,7.0744,7.0661,7.0495,7.0411,7.0329,7.0346,7.0201,7.0332,7.0534,7.1051,7.1304,7.1531,7.1814,7.1434,7.1289,7.1686,7.1015,7.0364,7.0385,7.0804,7.109,7.1189,7.1521,7.227,7.2833,7.3032,7.3376,7.3997,7.4196,7.4196,7.4196,7.4196,7.4196,7.4196,7.4196,7.4229,7.4362,7.4991,7.5675,7.6324,7.6609,7.6742,6.4809,6.466,6.558,6.5951,6.5999,6.6791,6.6093,6.4514,6.4881,6.4459,6.3594,6.4678,6.4241,6.2704,6.2885,6.2539,6.1733,6.0954,6.057,6.0566,6.0381,6.0831,6.1742,6.1617,6.1617,6.182,6.2585,6.2563,6.1933,6.2574,6.2244,6.0988,6.1321,6.0861,5.9463,5.8717,5.8742,5.948,5.9009,5.8734,5.8734,5.7906,5.7442,5.7276,5.6008,5.4896,5.412,5.456,5.4536,5.3883,5.5742,5.7053,5.7353,5.8039,5.9017,6.0157,6.0656,6.1546,6.3166,6.4283,6.5802,6.7834,6.8434,6.8403,6.7825,6.8372,6.9131,6.9923,7.0034,7.0155,7.0183,7.0191,7.028,7.0348,7.0624,7.0894,7.1094,7.0951,7.1018,7.1488,7.1147,7.1084,7.1699,7.1889,7.1979,7.1997,7.2084,7.1918,7.1985,7.1852,7.1686,7.1674,7.1753,7.1852,7.1885,7.1918,7.2415,7.2978,7.3132,7.3409,7.4064,7.4196,7.4196,7.4196,7.4196,7.4196,7.4229,7.4196,7.4494,7.4979,7.5695,7.6364,7.6948,7.7484,7.8,6.4244,6.4078,6.4535,6.4726,6.4768,6.5063,6.4577,6.3609,6.3794,6.3302,6.2426,6.3614,6.3415,6.2191,6.2424,6.2336,6.1909,6.1491,6.1315,6.1267,6.0702,6.0797,6.1328,6.0811,6.0867,6.1415,6.1485,6.1506,6.1465,6.154,6.1163,6.0436,6.07,6.0454,5.9669,5.9341,5.9239,5.9318,5.8907,5.8938,5.9475,5.8767,5.8403,5.8369,5.7333,5.6637,5.6306,5.6604,5.6637,5.6306,5.8084,5.9318,5.9717,6.0434,6.1538,6.3064,6.3369,6.4177,6.5791,6.6698,6.7835,6.9333,6.9478,6.938,6.9152,6.9397,6.9741,7.0074,7.0096,7.0119,7.0164,7.0059,7.0189,7.0764,7.0882,7.1105,7.1555,7.1594,7.162,7.1918,7.172,7.1786,7.2502,7.2602,7.278,7.309,7.319,7.3057,7.2668,7.2958,7.2879,7.2204,7.2303,7.2568,7.2602,7.2945,7.3289,7.3653,7.3674,7.3819,7.4163,7.4196,7.4184,7.4196,7.4184,7.4362,7.4635,7.4805,7.5124,7.5708,7.6424,7.6849,7.6644,7.6957,7.7667,6.4104,6.3795,6.3809,6.3809,6.378,6.3524,6.3295,6.3108,6.3137,6.2525,6.1803,6.2858,6.2654,6.1449,6.1906,6.196,6.1615,6.1589,6.1577,6.1501,6.074,6.0617,6.0976,6.0219,6.0294,6.0993,6.0735,6.0779,6.1005,6.0735,6.0459,6.0209,5.9696,5.9468,5.9655,5.9743,5.9531,5.9026,5.8921,5.9123,5.9525,5.9295,5.9204,5.9256,5.8916,5.8787,5.9012,5.8807,5.8787,5.9078,6.0051,6.1043,6.2025,6.2786,6.3979,6.5668,6.6044,6.6706,6.7965,6.8639,6.9181,6.9744,6.9798,6.9798,6.9798,6.9798,6.9798,6.9798,6.9822,6.9905,7.0023,6.9941,7.018,7.1089,7.119,7.15,7.2105,7.2237,7.2337,7.2448,7.2337,7.2502,7.3144,7.3343,7.3554,7.3997,7.4196,7.3964,7.3541,7.3852,7.3633,7.3024,7.3011,7.331,7.3376,7.3753,7.4097,7.4196,7.4163,7.413,7.4158,7.4011,7.3914,7.3864,7.3677,7.375,7.4458,7.4918,7.5266,7.5859,7.6677,7.7026,7.6177,7.5975,7.679,6.3709,6.3237,6.3209,6.318,6.3209,6.3165,6.3137,6.3108,6.3108,6.3048,6.2922,6.3464,6.2388,6.0571,6.133,6.098,5.9617,5.9436,5.9489,5.9503,5.9315,5.9772,6.0656,6.0604,6.0661,6.0817,6.1521,6.1371,6.0748,6.1534,6.1515,6.0504,5.8485,5.779,5.8307,5.868,5.8776,5.869,5.9586,5.9473,5.84,5.939,6.0169,6.0518,6.1038,6.1796,6.2437,6.184,6.1752,6.2669,6.257,6.3287,6.4751,6.5646,6.6451,6.7266,6.7963,6.875,6.9443,6.9678,6.9639,6.9765,6.9751,6.9774,6.9798,6.9798,6.9798,6.9798,6.9798,6.9822,6.9834,6.9855,7.0186,7.0985,7.159,7.2183,7.2833,7.2999,7.3231,7.3931,7.3184,7.3252,7.3726,7.3934,7.4064,7.4163,7.4011,7.394,7.3828,7.3714,7.3813,7.3775,7.3988,7.393,7.3904,7.4084,7.396,7.4011,7.4087,7.3909,7.3634,7.3116,7.2746,7.3112,7.2669,7.2395,7.31,7.3668,7.4709,7.5408,7.6297,7.705,7.6479,7.5626,7.5834,6.3481,6.3122,6.3108,6.3108,6.3108,6.3108,6.3108,6.3108,6.3108,6.3108,6.3121,6.3278,6.2574,6.1296,6.1333,6.0919,6.0296,6.0296,6.0057,5.9697,5.9681,5.9729,5.9726,5.9766,5.9736,5.9793,6.0207,6.0167,5.9908,6.0224,6.0154,5.9719,5.8714,5.8427,5.8664,5.8863,5.8724,5.8347,5.9122,5.8907,5.7967,5.9827,6.1126,6.1289,6.1561,6.1881,6.2317,6.2316,6.2269,6.2183,6.3277,6.4032,6.4143,6.4763,6.5472,6.6205,6.6926,6.7467,6.777,6.7802,6.8079,6.8744,6.8793,6.9038,6.9751,6.9798,6.9798,6.9798,6.9798,6.9798,6.9831,7.0208,7.0759,7.1488,7.2216,7.2908,7.3653,7.3091,7.2815,7.3077,7.2881,7.2769,7.3161,7.3782,7.4158,7.4062,7.3634,7.3168,7.3096,7.2571,7.2111,7.2052,7.2052,7.2419,7.294,7.3122,7.2861,7.2312,7.2084,7.2084,7.2084,7.1769,7.1543,7.2217,7.1784,7.193,7.3168,7.3456,7.415,7.4793,7.4529,7.4962,7.6288,7.4973,7.4678,6.3352,6.3137,6.3108,6.3108,6.3108,6.3108,6.3108,6.3108,6.3108,6.3108,6.3108,6.3108,6.2824,6.2331,6.1658,6.1299,6.112,6.109,6.0851,6.0416,6.0356,6.0116,5.9697,5.9638,5.9624,5.9638,5.9738,5.9681,5.9638,5.9428,5.9368,5.9338,5.9189,5.9099,5.914,5.9339,5.9168,5.8511,5.9141,5.8924,5.8156,6.0126,6.1351,6.1203,6.1319,6.1628,6.2111,6.2356,6.2391,6.2093,6.3475,6.4149,6.3912,6.4564,6.5282,6.602,6.6528,6.6716,6.6441,6.6401,6.6898,6.7921,6.8084,6.8597,6.9526,6.9798,6.9634,6.9334,6.9325,6.9394,6.9853,7.0162,7.0716,7.1395,7.1918,7.2422,7.2953,7.2365,7.1891,7.1891,7.1845,7.1923,7.2084,7.2861,7.3518,7.3031,7.2405,7.1923,7.1842,7.121,7.0683,7.0585,7.0627,7.0975,7.1715,7.1923,7.1402,7.1016,7.0767,7.0822,7.0501,7.0417,7.0343,7.0911,7.0945,7.1231,7.1882,7.2496,7.3657,7.4145,7.387,7.3611,7.5502,7.3855,7.3369,6.3352,6.3122,6.3108,6.3108,6.3108,6.3108,6.3108,6.3108,6.3108,6.3108,6.3108,6.3108,6.3078,6.2974,6.2331,6.1688,6.121,6.121,6.115,6.106,6.106,6.103,6.103,6.1,6.097,6.0851,6.0821,6.088,6.0867,6.0356,6.007,6.001,5.9458,5.9129,5.9281,6.0035,6.0079,5.9318,6.0069,6.0093,5.9278,6.0154,6.0519,6.0099,6.0444,6.1568,6.2821,6.227,6.2421,6.3942,6.3292,6.3547,6.5008,6.6102,6.6908,6.7659,6.7851,6.7452,6.6559,6.6335,6.6807,6.7808,6.7858,6.8465,6.9301,6.9454,6.9083,6.8279,6.8211,6.8637,6.9429,6.9404,6.9567,7.0164,7.0004,7.0272,7.0852,7.1086,7.0711,7.0739,7.0739,7.0767,7.0767,7.1701,7.1896,7.1306,7.0781,7.0683,7.0641,7.0543,7.0318,7.029,7.0332,7.0571,7.0641,7.0683,7.0641,7.0121,6.9793,7.0304,7.0121,6.987,6.9743,6.9678,6.9763,7.0017,7.0462,7.1484,7.2983,7.3537,7.3169,7.3491,7.4485,7.2596,7.2124,6.3539,6.3108,6.3108,6.3108,6.3108,6.3108,6.3108,6.3108,6.3108,6.3108,6.3108,6.3108,6.3108,6.3063,6.2854,6.2614,6.2361,6.2405,6.2165,6.1792,6.1732,6.1509,6.112,6.109,6.109,6.109,6.109,6.109,6.109,6.0864,6.0505,6.013,5.9861,5.9741,5.9823,6.0105,6.0303,6.0409,6.0795,6.0754,6.0425,6.0754,6.0808,6.0637,6.1076,6.1628,6.2252,6.2293,6.2659,6.3267,6.3308,6.3638,6.4248,6.4421,6.4934,6.5781,6.5937,6.6039,6.6269,6.571,6.5804,6.6807,6.6304,6.6507,6.735,6.7624,6.7459,6.7169,6.7448,6.7874,6.8177,6.8506,6.8806,6.9103,6.9758,7.0478,7.131,7.1099,7.0585,7.0487,7.0007,6.9722,7.0375,7.0975,7.1058,7.0641,6.995,6.9521,6.9305,6.8855,6.8414,6.8341,6.8296,6.8296,6.8266,6.9014,6.9261,6.8562,6.8222,6.8282,6.8209,6.8755,6.8774,6.9366,6.9269,6.9819,7.0563,7.0932,7.2377,7.2829,7.2471,7.2502,7.3231,7.1951,7.1631,6.3767,6.3393,6.3197,6.3108,6.3108,6.3108,6.3108,6.3108,6.3108,6.3108,6.3108,6.3108,6.3108,6.3108,6.3108,6.3108,6.3108,6.3108,6.2854,6.2435,6.2421,6.2195,6.1822,6.1748,6.1762,6.1762,6.1732,6.1762,6.1732,6.1523,6.1194,6.0789,6.0535,6.0429,6.0416,6.0429,6.0685,6.103,6.109,6.109,6.109,6.109,6.109,6.1172,6.158,6.1835,6.1822,6.2262,6.2655,6.291,6.3296,6.3692,6.3998,6.3799,6.393,6.4582,6.4734,6.4844,6.5159,6.4596,6.4665,6.571,6.521,6.5169,6.623,6.6401,6.6338,6.6323,6.6551,6.6814,6.6776,6.7251,6.7838,6.82,6.8964,6.9734,7.0456,6.9879,6.9435,6.9323,6.9335,6.9351,6.9456,7.0,6.994,6.9583,6.8679,6.8251,6.8088,6.7593,6.6999,6.6999,6.7137,6.7213,6.7441,6.8197,6.8389,6.7774,6.815,6.7707,6.7493,6.7972,6.8421,6.899,6.9542,7.0171,7.059,7.0813,7.1327,7.2046,7.1903,7.1728,7.1919,7.1808,7.1665,6.4006,6.3827,6.3363,6.3108,6.3108,6.3108,6.3108,6.3108,6.3108,6.3108,6.3108,6.3108,6.3108,6.3108,6.3108,6.3108,6.3108,6.3108,6.3078,6.3018,6.3018,6.3018,6.2928,6.2898,6.2898,6.2898,6.3018,6.3018,6.2898,6.2375,6.2061,6.1912,6.1373,6.109,6.112,6.109,6.112,6.1269,6.1329,6.1239,6.112,6.1269,6.1299,6.1299,6.1831,6.2173,6.2131,6.2161,6.2544,6.3098,6.3117,6.3605,6.434,6.4429,6.4609,6.4665,6.4706,6.4209,6.3535,6.3465,6.3916,6.4654,6.4692,6.5046,6.5866,6.6179,6.6093,6.578,6.5788,6.568,6.5437,6.5936,6.667,6.7437,6.7558,6.7533,6.7487,6.7229,6.7137,6.7623,6.8636,6.8848,6.8031,6.8636,6.9073,6.785,6.732,6.7244,6.7305,6.7091,6.7029,6.7074,6.7074,6.7029,6.7254,6.7524,6.7405,6.7404,6.8275,6.8555,6.8315,6.8541,6.893,6.9423,6.9842,7.041,7.0709,7.0903,7.0903,7.1311,7.1067,7.1164,7.1343,7.1535,7.1649,6.4171,6.3393,6.3183,6.3108,6.3108,6.3108,6.3108,6.3108,6.3108,6.3108,6.3108,6.3108,6.3108,6.3108,6.3108,6.3108,6.3108,6.3108,6.3108,6.3108,6.3108,6.3108,6.3108,6.3108,6.3108,6.3108,6.3108,6.3108,6.3048,6.2898,6.2584,6.2121,6.1912,6.1792,6.1778,6.1778,6.1972,6.2435,6.2465,6.2465,6.2495,6.2465,6.2465,6.2495,6.2704,6.2794,6.2794,6.2794,6.3254,6.4069,6.3478,6.325,6.3535,6.3592,6.3958,6.4596,6.4706,6.5036,6.5254,6.4599,6.4267,6.4563,6.4452,6.4368,6.4728,6.5236,6.5399,6.5298,6.5601,6.5801,6.5817,6.6281,6.6673,6.6567,6.6808,6.7335,6.7954,6.8163,6.8466,6.8773,6.8744,6.8285,6.7948,6.8513,6.8301,6.7422,6.7089,6.7089,6.7029,6.7148,6.7238,6.7553,6.7343,6.7313,6.7703,6.8032,6.8062,6.8092,6.8704,6.9199,6.9019,6.9199,6.9512,6.9812,7.0231,7.0484,7.0783,7.0903,7.0903,7.0903,7.0938,7.1132,7.1373,7.1455,7.1503,6.453,6.3767,6.3317,6.3108,6.3108,6.3108,6.3108,6.3108,6.3108,6.3108,6.3108,6.3108,6.3108,6.3108,6.3108,6.3108,6.3108,6.3108,6.3108,6.3108,6.3108,6.3108,6.3108,6.3108,6.3108,6.3108,6.3108,6.3108,6.3108,6.3108,6.2884,6.2525,6.2465,6.2465,6.245,6.2495,6.2704,6.3078,6.3078,6.3108,6.3108,6.3108,6.3108,6.3108,6.3108,6.3108,6.3108,6.3108,6.3408,6.3874,6.3437,6.3137,6.3108,6.3151,6.3408,6.3902,6.4155,6.4496,6.529,6.4704,6.4556,6.4673,6.4535,6.438,6.4455,6.4829,6.5054,6.5413,6.5727,6.6086,6.6416,6.6984,6.7134,6.6835,6.691,6.7456,6.8287,6.8513,6.8758,6.9062,6.91,6.8665,6.8466,6.863,6.8421,6.7912,6.7762,6.7762,6.7762,6.7777,6.8032,6.8211,6.8136,6.8166,6.8331,6.8571,6.8766,6.893,6.9213,6.9468,6.9468,6.9917,7.032,7.035,7.0649,7.0663,7.0903,7.0903,7.0903,7.0903,7.0932,7.1002,7.1148,7.1083,7.1159,6.5024,6.4845,6.3722,6.3257,6.3227,6.3197,6.3168,6.3108,6.3108,6.3108,6.3108,6.3108,6.3108,6.3108,6.3108,6.3108,6.3108,6.3108,6.3108,6.3108,6.3108,6.3108,6.3108,6.3108,6.3108,6.3108,6.3108,6.3108,6.3108,6.3108,6.3108,6.3018,6.3018,6.3078,6.3018,6.3078,6.3048,6.3078,6.3108,6.3108,6.3108,6.3108,6.3108,6.3108,6.3108,6.3108,6.3108,6.3108,6.3108,6.3137,6.3151,6.3138,6.3153,6.3168,6.3256,6.3492,6.3286,6.3703,6.4034,6.4314,6.4407,6.4917,6.5023,6.5054,6.5099,6.5353,6.5757,6.6176,6.6355,6.6595,6.7194,6.7673,6.7972,6.7972,6.7613,6.7675,6.7973,6.8141,6.8595,6.9117,6.9558,6.9768,6.9139,6.9512,6.9423,6.9034,6.881,6.8734,6.8734,6.8645,6.8914,6.8914,6.8824,6.8854,6.896,6.884,6.9049,6.9424,6.9648,6.9828,7.0007,7.0456,7.0739,7.0799,7.0889,7.0919,7.0903,7.0903,7.1038,7.1188,7.1128,7.0962,7.1052,7.1262,7.1381,6.5443,6.4964,6.465,6.4201,6.3797,6.3767,6.3512,6.3138,6.3138,6.3138,6.3108,6.3108,6.3108,6.3108,6.3108,6.3108,6.3108,6.3108,6.3108,6.3108,6.3108,6.3108,6.3108,6.3108,6.3108,6.3108,6.3108,6.3108,6.3108,6.3108,6.3108,6.3108,6.3108,6.3108,6.3108,6.3108,6.3108,6.3108,6.3108,6.3108,6.3108,6.3108,6.3108,6.3108,6.3138,6.3138,6.3108,6.3108,6.3108,6.3108,6.3108,6.3303,6.3707,6.3767,6.3947,6.4321,6.4441,6.453,6.468,6.474,6.4845,6.5009,6.5577,6.5727,6.5787,6.667,6.7194,6.7553,6.7867,6.8196,6.8435,6.8615,6.872,6.8704,6.8585,6.8525,6.8675,6.8734,6.9004,6.9618,6.9871,6.9842,6.9842,6.9842,6.9812,6.9273,6.9123,6.9123,6.9243,6.9243,6.9363,6.9453,6.9423,6.9453,6.9423,6.9243,6.9349,6.9754,7.0037,7.0231,7.044,7.0769,7.0859,7.0873,7.1038,7.1128,7.1009,7.0949,7.1158,7.1607,7.1368,7.1308,7.186,7.2176,7.2159,6.5772,6.5383,6.5114,6.4755,6.4455,6.4411,6.4201,6.3887,6.3602,6.3482,6.3422,6.3183,6.3108,6.3108,6.3108,6.3108,6.3108,6.3108,6.3108,6.3108,6.3108,6.3108,6.3108,6.3108,6.3108,6.3108,6.3108,6.3108,6.3108,6.3108,6.3108,6.3108,6.3108,6.3108,6.3108,6.3108,6.3108,6.3108,6.3108,6.3108,6.3108,6.3108,6.3108,6.3168,6.3303,6.3572,6.3827,6.3917,6.3812,6.3572,6.3512,6.3767,6.4336,6.4425,6.459,6.4994,6.4994,6.5099,6.5353,6.5428,6.5577,6.5892,6.646,6.6775,6.7029,6.7822,6.8421,6.8451,6.8824,6.8944,6.9079,6.9243,6.9528,6.9752,6.9812,6.9692,6.9453,6.9409,6.9722,7.0141,7.0334,7.0334,7.038,7.035,7.0171,6.9961,6.9931,6.9901,6.9901,6.9812,6.9782,6.9931,7.0081,7.0141,7.0201,7.0081,7.029,7.0636,7.0965,7.1068,7.1128,7.1308,7.1218,7.1248,7.1278,7.1338,7.1338,7.1487,7.195,7.2129,7.1846,7.1936,7.2505,7.2774,7.2787,6.6101,6.6071,6.5458,6.5188,6.5114,6.5129,6.4994,6.4845,6.4366,6.4126,6.3977,6.3497,6.3273,6.3197,6.3168,6.3108,6.3108,6.3108,6.3108,6.3108,6.3108,6.3108,6.3108,6.3108,6.3108,6.3108,6.3108,6.3108,6.3108,6.3108,6.3108,6.3108,6.3108,6.3108,6.3108,6.3108,6.3108,6.3108,6.3108,6.3108,6.3108,6.3108,6.3108,6.3168,6.3662,6.4216,6.468,6.4859,6.471,6.4246,6.4156,6.447,6.5009,6.5099,6.5218,6.5308,6.5458,6.5652,6.6086,6.6311,6.655,6.7148,6.7732,6.8107,6.8151,6.869,6.9093,6.9093,6.9153,6.9363,6.9453,6.9858,7.029,7.0679,7.0843,7.0829,7.0366,7.0187,7.0396,7.0829,7.0903,7.0962,7.0903,7.0903,7.0843,7.047,7.047,7.044,7.044,7.041,7.0454,7.0573,7.0739,7.0859,7.0919,7.0979,7.1338,7.1713,7.2086,7.2235,7.2102,7.2102,7.1816,7.1757,7.1936,7.2026,7.2026,7.2325,7.2727,7.2817,7.2595,7.2804,7.3116,7.3193,7.3206,6.6789,6.6775,6.664,6.6281,6.5817,6.5787,6.5473,6.5024,6.4889,6.48,6.465,6.4096,6.3797,6.3782,6.3333,6.3108,6.3108,6.3108,6.3108,6.3108,6.3108,6.3108,6.3108,6.3138,6.3108,6.3108,6.3108,6.3108,6.3108,6.3108,6.3108,6.3108,6.3108,6.3108,6.3108,6.3108,6.3108,6.3108,6.3108,6.3138,6.3168,6.3168,6.3197,6.3317,6.3797,6.4366,6.4859,6.4994,6.5188,6.5338,6.5159,6.5248,6.5667,6.5817,6.6056,6.64,6.658,6.6849,6.7373,6.7553,6.7852,6.8345,6.86,6.8794,6.8824,6.9409,6.9738,6.9887,7.0201,7.035,7.047,7.1068,7.1248,7.1308,7.1816,7.2146,7.1637,7.1474,7.1338,7.1158,7.1398,7.1487,7.1038,7.1052,7.1022,7.0932,7.0932,7.0903,7.0962,7.1052,7.1112,7.1278,7.1338,7.1457,7.1667,7.1816,7.2206,7.2595,7.3013,7.3313,7.318,7.297,7.2761,7.2654,7.2668,7.2714,7.2684,7.2864,7.3176,7.3283,7.3402,7.3612,7.3762,7.3732,7.3762,6.7284,6.6999,6.6999,6.6805,6.6475,6.646,6.6251,6.5906,6.5577,6.5488,6.5338,6.4784,6.4291,6.3977,6.3662,6.3422,6.3138,6.3108,6.3273,6.3393,6.3303,6.3257,6.3422,6.3257,6.3108,6.3108,6.3108,6.3108,6.3108,6.3108,6.3108,6.3108,6.3108,6.3108,6.3108,6.3108,6.3108,6.3108,6.3108,6.3227,6.3482,6.3512,6.3961,6.435,6.4784,6.5263,6.5906,6.5966,6.6131,6.634,6.64,6.637,6.6535,6.6759,6.7134,6.7403,6.7822,6.8032,6.8391,6.8481,6.86,6.9019,6.9273,6.9423,6.9602,7.0051,7.038,7.047,7.0709,7.0979,7.1338,7.1966,7.2086,7.2086,7.2475,7.2714,7.2445,7.2355,7.2265,7.195,7.2176,7.2176,7.1966,7.168,7.177,7.195,7.1517,7.1517,7.183,7.189,7.1846,7.1906,7.1936,7.2086,7.2368,7.2654,7.306,7.3402,7.3791,7.4061,7.4168,7.3958,7.3732,7.3582,7.3373,7.3373,7.3402,7.3552,7.3762,7.4031,7.4257,7.4407,7.4437,7.4317,7.4377,6.7688,6.7119,6.7044,6.6999,6.6999,6.6969,6.6939,6.6864,6.6385,6.6161,6.5996,6.5443,6.4889,6.4411,6.4216,6.3842,6.3542,6.3317,6.3602,6.4052,6.3393,6.3602,6.3827,6.3662,6.3317,6.3257,6.3138,6.3108,6.3108,6.3108,6.3108,6.3108,6.3108,6.3108,6.3108,6.3108,6.3108,6.3108,6.3108,6.3363,6.3827,6.3947,6.4545,6.5533,6.5772,6.6131,6.664,6.6819,6.6969,6.7164,6.7703,6.7703,6.7613,6.7762,6.8151,6.8151,6.8571,6.8884,6.9079,6.9169,6.9229,6.9289,6.9947,7.0277,7.0456,7.0889,7.1248,7.1262,7.1411,7.1577,7.1996,7.2654,7.2937,7.2937,7.2967,7.3146,7.3086,7.3103,7.3163,7.2817,7.2864,7.2894,7.2774,7.2565,7.2774,7.2834,7.2402,7.2192,7.2505,7.2608,7.2505,7.2415,7.2415,7.2714,7.3013,7.3462,7.3868,7.4018,7.439,7.4557,7.4766,7.4587,7.4287,7.418,7.4061,7.4031,7.4078,7.4257,7.4497,7.4856,7.4856,7.4706,7.4766,7.4886,7.4886,6.7958,6.7778,6.7224,6.6999,6.6999,6.6999,6.7029,6.6984,6.6864,6.6819,6.67,6.6131,6.5757,6.5488,6.5024,6.4755,6.4441,6.4126,6.4201,6.453,6.3857,6.3797,6.456,6.4171,6.3857,6.3677,6.3482,6.3257,6.3108,6.3108,6.3108,6.3108,6.3108,6.3108,6.3168,6.3108,6.3227,6.3333,6.3347,6.3632,6.4066,6.4366,6.4844,6.5981,6.6131,6.646,6.6879,6.7074,6.7254,6.7778,6.7958,6.8271,6.8555,6.8764,6.8854,6.89,6.9034,6.9393,6.9738,6.9887,7.0111,7.056,7.1174,7.1504,7.1683,7.2056,7.2265,7.2398,7.2458,7.2608,7.2727,7.3343,7.3402,7.3373,7.3762,7.421,7.3958,7.4018,7.3988,7.3373,7.3462,7.3642,7.3492,7.3343,7.3373,7.3343,7.3013,7.291,7.3103,7.3086,7.2907,7.2847,7.2834,7.3223,7.3642,7.418,7.4587,7.4527,7.4706,7.4706,7.4856,7.4856,7.4766,7.4557,7.4557,7.4587,7.4706,7.4826,7.4826,7.4886,7.4886,7.4886,7.4886,7.4886,7.4886,6.8856,6.8465,6.8136,6.8046,6.8002,6.7643,6.7523,6.7463,6.7164,6.6999,6.6909,6.664,6.6311,6.5996,6.5727,6.5368,6.4979,6.4695,6.4904,6.5129,6.462,6.456,6.5353,6.4829,6.459,6.4441,6.4216,6.3692,6.3168,6.3108,6.3168,6.3108,6.3108,6.3257,6.3512,6.3588,6.3767,6.3917,6.4066,6.4366,6.4979,6.5263,6.5951,6.6281,6.655,6.6849,6.7373,6.7523,6.7868,6.8451,6.8886,6.9169,6.9498,6.9752,6.9812,6.9632,6.9812,7.0081,7.05,7.0739,7.1145,7.1398,7.2026,7.2385,7.2475,7.2684,7.2984,7.2997,7.3296,7.3432,7.3432,7.4001,7.418,7.4121,7.4527,7.4646,7.4587,7.4736,7.436,7.3911,7.4151,7.4287,7.4227,7.4091,7.3971,7.3821,7.3582,7.3642,7.3762,7.3612,7.3445,7.3642,7.3672,7.3851,7.418,7.4497,7.4886,7.4886,7.4886,7.4886,7.4886,7.4886,7.4886,7.4796,7.4886,7.4886,7.4886,7.4856,7.4886,7.4886,7.4886,7.4886,7.4886,7.4886,7.4886,6.9708,6.9183,6.9064,6.9004,6.8914,6.8451,6.8181,6.8107,6.7673,6.7373,6.7178,6.7164,6.6819,6.634,6.6146,6.5906,6.5398,6.5323,6.5577,6.5892,6.5293,6.5323,6.5847,6.5607,6.5203,6.5188,6.5159,6.459,6.3827,6.3662,6.3542,6.3632,6.3542,6.3677,6.4126,6.4216,6.459,6.4785,6.5024,6.5338,6.5966,6.661,6.6999,6.7029,6.7119,6.7463,6.7868,6.8137,6.8541,6.9139,6.9618,7.0007,7.0217,7.0649,7.0709,7.053,7.0859,7.1038,7.1248,7.1697,7.2042,7.2116,7.2727,7.2997,7.3176,7.3313,7.3432,7.3402,7.3732,7.4091,7.4168,7.4557,7.4796,7.4826,7.4796,7.4886,7.4826,7.4856,7.4856,7.4706,7.4886,7.4796,7.4616,7.4587,7.4437,7.4407,7.4197,7.4257,7.4317,7.4227,7.4197,7.4527,7.4646,7.4646,7.4706,7.4676,7.4886,7.4886,7.4886,7.4886,7.4886,7.4886,7.4886,7.4886,7.4886,7.4886,7.4886,7.4886,7.4886,7.4886,7.4886,7.4886,7.4886,7.4886,7.4886,6.9947,6.9828,6.9243,6.9004,6.9034,6.8944,6.8884,6.8854,6.8675,6.8421,6.7808,6.7792,6.7403,6.6939,6.6819,6.6789,6.655,6.6176,6.6206,6.652,6.5757,6.5787,6.661,6.6191,6.5906,6.5877,6.5877,6.5488,6.4859,6.471,6.468,6.462,6.456,6.4815,6.4859,6.4889,6.4919,6.5024,6.5084,6.5398,6.6026,6.6729,6.6999,6.7194,6.7553,6.8017,6.8271,6.866,6.9183,6.9798,6.9947,7.0277,7.0679,7.0829,7.1218,7.1487,7.1727,7.1803,7.1876,7.2385,7.2774,7.2894,7.3402,7.3702,7.3881,7.418,7.4437,7.4676,7.4706,7.4676,7.4646,7.4796,7.4886,7.4886,7.4886,7.4886,7.4886,7.4886,7.4886,7.4886,7.4886,7.4886,7.4796,7.4826,7.4856,7.4873,7.4873,7.4843,7.4796,7.4646,7.4587,7.4796,7.4886,7.4886,7.4886,7.4886,7.4886,7.4886,7.4886,7.4886,7.4886,7.4886,7.4886,7.4886,7.4886,7.4886,7.4886,7.4886,7.4886,7.4886,7.4886,7.4886,7.4886,7.4886,7.4886,7.053,7.047,7.0217,7.0081,7.0021,6.9738,6.9542,6.9393,6.875,6.8271,6.7958,6.7568,6.7254,6.7029,6.6999,6.6969,6.6954,6.667,6.67,6.6909,6.643,6.643,6.6789,6.6729,6.658,6.652,6.655,6.649,6.5996,6.5368,6.4994,6.5054,6.5054,6.5174,6.5503,6.5562,6.5817,6.6026,6.6191,6.6311,6.6685,6.7164,6.7553,6.7583,6.8211,6.869,6.9079,6.9349,6.9871,7.0396,7.05,7.059,7.0949,7.1218,7.1637,7.1863,7.2671,7.2804,7.2624,7.3133,7.3373,7.3612,7.4048,7.4437,7.4527,7.4676,7.4886,7.4886,7.4886,7.4886,7.4886,7.4886,7.4886,7.4886,7.4886,7.4886,7.4886,7.4886,7.4886,7.4886,7.4886,7.4886,7.4886,7.4886,7.4886,7.4886,7.4873,7.4856,7.4856,7.4826,7.4796,7.4856,7.4886,7.4886,7.4886,7.4886,7.4886,7.4886,7.4886,7.4886,7.4886,7.4886,7.4886,7.4886,7.4886,7.4886,7.4886,7.4886,7.4886,7.4886,7.4886,7.4886,7.4886,7.4886,7.4886,7.0903,7.0903,7.0903,7.0903,7.0859,7.041,7.0217,7.0067,6.9049,6.8421,6.8032,6.7433,6.7029,6.6999,6.6999,6.6999,6.6999,6.6999,6.6999,6.6999,6.6999,6.6939,6.6969,6.6939,6.6939,6.6999,6.6909,6.6849,6.661,6.6161,6.5637,6.5473,6.5697,6.5847,6.6116,6.6265,6.6445,6.6759,6.6819,6.6879,6.7059,6.7628,6.7898,6.8211,6.8764,6.9498,6.9917,7.0187,7.05,7.0739,7.0829,7.0919,7.1248,7.1577,7.2132,7.2521,7.3359,7.3642,7.3612,7.3898,7.4108,7.4317,7.4497,7.4796,7.4826,7.4886,7.4886,7.4886,7.4886,7.4886,7.4886,7.4886,7.4886,7.4886,7.4886,7.4886,7.4886,7.4886,7.4886,7.4886,7.4886,7.4886,7.4886,7.4886,7.4886,7.4886,7.4886,7.4886,7.4886,7.4886,7.4886,7.4886,7.4886,7.4886,7.4886,7.4886,7.4886,7.4886,7.4886,7.4886,7.4886,7.4886,7.4886,7.4886,7.4886,7.4886,7.4886,7.4886,7.4886,7.4886,7.4886,7.4886,7.4886,7.4886,7.4886,7.0903,7.0903,7.0903,7.0903,7.0903,7.0843,7.0829,7.0709,7.0097,6.9379,6.8585,6.7657,6.7059,6.6999,6.6999,6.6999,6.6999,6.6999,6.6999,6.6999,6.6999,6.6999,6.6999,6.6999,6.6999,6.6999,6.6999,6.6999,6.6969,6.6789,6.667,6.6849,6.652,6.6729,6.6819,6.6759,6.6789,6.6999,6.6999,6.7059,6.7238,6.7703,6.8107,6.8391,6.9229,6.9977,7.0053,7.0486,7.0769,7.0903,7.1009,7.1218,7.1623,7.2042,7.2611,7.3329,7.3808,7.4168,7.4407,7.4557,7.4736,7.4826,7.4856,7.4886,7.4886,7.4886,7.4886,7.4886,7.4886,7.4886,7.4886,7.4886,7.4886,7.4886,7.4886,7.4886,7.4886,7.4886,7.4886,7.4886,7.4886,7.4886,7.4886,7.4886,7.4886,7.4886,7.4886,7.4886,7.4886,7.4886,7.4886,7.4886,7.4886,7.4886,7.4886,7.4886,7.4886,7.4886,7.4886,7.4886,7.4886,7.4886,7.4886,7.4886,7.4886,7.4886,7.4886,7.4886,7.4886,7.4886,7.4886,7.4886,7.4886,7.4886,7.4886,7.0903,7.0903,7.0903,7.0903,7.0903,7.0903,7.0903,7.0799,7.0277,6.9349,6.8361,6.7838,6.7373,6.7089,6.6999,6.6999,6.6999,6.6999,6.6999,6.6999,6.6999,6.6999,6.6999,6.6999,6.6999,6.6999,6.6999,6.6999,6.6999,6.6999,6.6999,6.6999,6.6999,6.6969,6.6969,6.6999,6.6999,6.7029,6.7059,6.7148,6.7732,6.8271,6.881,6.9319,6.9961,7.05,7.059,7.0769,7.0873,7.1009,7.1294,7.1653,7.2102,7.2641,7.3283,7.3911,7.4257,7.4587,7.4796,7.4886,7.4886,7.4886,7.4886,7.4886,7.4886,7.4886,7.4886,7.4886,7.4886,7.4886,7.4886,7.4886,7.4886,7.4886,7.4886,7.4886,7.4946,7.4976,7.4886,7.4886,7.4886,7.4886,7.4886,7.4886,7.4886,7.4886,7.4886,7.4886,7.4886,7.4886,7.4886,7.4886,7.4886,7.4886,7.4886,7.4886,7.4886,7.4886,7.4886,7.4886,7.4886,7.4886,7.4886,7.4886,7.4886,7.4886,7.4886,7.4886,7.4886,7.4886,7.4886,7.4886,7.4886,7.4886,7.4886,7.0903,7.0903,7.0903,7.0903,7.0903,7.0903,7.0903,7.0799,7.0247,6.9275,6.8017,6.7808,6.7479,6.7089,6.6999,6.6999,6.6999,6.6999,6.6999,6.6999,6.6999,6.6999,6.6999,6.6999,6.6999,6.6999,6.6999,6.6999,6.6999,6.6999,6.6999,6.6999,6.6999,6.6999,6.6999,6.6999,6.7104,6.7254,6.7343,6.7643,6.8301,6.893,6.9393,6.9947,7.05,7.0783,7.0813,7.0873,7.1038,7.1278,7.1653,7.2102,7.2671,7.33,7.3928,7.4287,7.4557,7.4886,7.4886,7.4886,7.4886,7.4886,7.4886,7.4886,7.4886,7.4886,7.4886,7.4886,7.4886,7.4886,7.4886,7.4886,7.5125,7.5215,7.4946,7.4916,7.5095,7.5185,7.5006,7.4886,7.4886,7.4916,7.4886,7.4886,7.4886,7.4886,7.4886,7.4886,7.4886,7.4886,7.4886,7.4886,7.4886,7.4886,7.4886,7.4886,7.4886,7.4886,7.4886,7.4886,7.4886,7.4886,7.4886,7.4886,7.4886,7.4886,7.4886,7.4886,7.4886,7.4886,7.4886,7.4886,7.4886,7.4886,7.4886,7.0903,7.0903,7.0903,7.0903,7.0903,7.0903,7.0903,7.0829,7.0306,6.9349,6.8137,6.7553,6.7164,6.7029,6.6999,6.6999,6.6999,6.6999,6.6999,6.6999,6.6999,6.6999,6.6999,6.6999,6.6999,6.6999,6.6999,6.6999,6.7089,6.7148,6.7119,6.7238,6.7358,6.7238,6.7059,6.7029,6.7343,6.7882,6.7987,6.8391,6.8944,6.9512,6.9858,7.0247,7.0636,7.0889,7.0903,7.1068,7.1278,7.1653,7.2042,7.2671,7.3509,7.3778,7.4257,7.4753,7.4826,7.4886,7.4886,7.4886,7.4886,7.4886,7.4886,7.4886,7.4886,7.4886,7.4886,7.4886,7.4886,7.4886,7.4886,7.4946,7.5245,7.5407,7.5155,7.5065,7.5275,7.5425,7.5275,7.5035,7.4946,7.4916,7.4916,7.4886,7.4886,7.4886,7.4886,7.4886,7.4886,7.4886,7.4886,7.4886,7.4886,7.4886,7.4886,7.4886,7.4886,7.4886,7.4886,7.4886,7.4886,7.4886,7.4886,7.4886,7.4886,7.4886,7.4886,7.4886,7.5006,7.5095,7.4916,7.4886,7.4886,7.5006,7.5095,7.0903,7.0903,7.0903,7.0903,7.0903,7.0903,7.0903,7.0843,7.059,6.9871,6.8824,6.8375,6.7717,6.7268,6.6999,6.6999,6.6999,6.6999,6.6999,6.6999,6.6999,6.6999,6.6999,6.6999,6.6999,6.6999,6.7029,6.7313,6.7688,6.7643,6.8002,6.8211,6.8136,6.8062,6.7942,6.8002,6.8495,6.8645,6.8704,6.8974,6.9618,6.9917,7.0187,7.053,7.0799,7.0919,7.1009,7.1278,7.1683,7.2132,7.2551,7.3389,7.3988,7.418,7.4616,7.4886,7.4886,7.4886,7.4886,7.4886,7.4886,7.4886,7.4886,7.4886,7.4886,7.4886,7.4886,7.4916,7.4976,7.4946,7.4886,7.4916,7.5185,7.5527,7.5467,7.5425,7.5514,7.5617,7.5557,7.5288,7.5125,7.5125,7.5095,7.5065,7.5065,7.4916,7.4886,7.4886,7.4886,7.4886,7.4886,7.4886,7.4886,7.4886,7.4886,7.4886,7.4886,7.4886,7.4886,7.4886,7.4886,7.4886,7.4886,7.4886,7.4886,7.4886,7.5006,7.5125,7.5275,7.5305,7.5305,7.5215,7.5185,7.5395,7.5617,7.0903,7.0903,7.0903,7.0903,7.0903,7.0903,7.0903,7.0859,7.0679,7.0081,6.9363,6.887,6.8211,6.7463,6.7089,6.6999,6.6999,6.6999,6.6999,6.6999,6.6999,6.6999,6.6999,6.7029,6.6999,6.7059,6.7298,6.7613,6.7958,6.8241,6.8511,6.884,6.9213,6.9079,6.89,6.896,6.9064,6.9213,6.9409,6.9632,7.0127,7.0396,7.05,7.0769,7.0932,7.1009,7.1278,7.1683,7.2132,7.2654,7.3313,7.4031,7.427,7.4587,7.4886,7.4886,7.4886,7.4886,7.4886,7.4886,7.4886,7.4886,7.4886,7.4886,7.4886,7.4886,7.4886,7.4946,7.5095,7.5245,7.5275,7.5275,7.5677,7.6096,7.6096,7.6036,7.6036,7.6138,7.5988,7.5707,7.5647,7.5557,7.5395,7.5305,7.5275,7.5065,7.4886,7.4886,7.4886,7.4886,7.4886,7.4886,7.4886,7.4886,7.4886,7.4886,7.4886,7.4886,7.4886,7.4886,7.4886,7.4886,7.4886,7.4886,7.4886,7.4976,7.5215,7.5395,7.5634,7.5826,7.5946,7.5796,7.5574,7.5826,7.6185,7.0903,7.0903,7.0889,7.0889,7.0903,7.0903,7.0903,7.0843,7.032,7.0067,6.9903,6.8706,6.8211,6.7987,6.7403,6.7238,6.7208,6.7178,6.7238,6.7178,6.7268,6.7208,6.7268,6.7313,6.7448,6.7493,6.7703,6.8151,6.8197,6.893,6.9243,6.9303,6.9798,6.9858,6.9768,6.9618,6.9662,6.9917,7.0037,7.026,7.062,7.0769,7.0799,7.0903,7.0903,7.1248,7.1577,7.1966,7.2701,7.3329,7.3928,7.4347,7.4646,7.4886,7.4886,7.4886,7.4886,7.4886,7.4886,7.4886,7.4886,7.4886,7.4886,7.4886,7.4946,7.5006,7.5155,7.5318,7.5557,7.5766,7.5916,7.6347,7.6796,7.6886,7.6856,7.6826,7.6796,7.6706,7.6497,7.6377,7.6437,7.6347,7.5988,7.5826,7.5587,7.5305,7.5095,7.4886,7.4886,7.4886,7.4886,7.4886,7.4886,7.4886,7.4886,7.4916,7.4886,7.4886,7.4886,7.4886,7.4886,7.4886,7.4886,7.4886,7.4886,7.5065,7.5425,7.5766,7.6078,7.6317,7.6647,7.6467,7.6275,7.6544,7.6856,7.0903,7.0843,7.044,7.0516,7.0889,7.0903,7.0903,7.0843,7.0679,7.044,6.9947,6.9634,6.9079,6.8704,6.8495,6.8421,6.8211,6.8062,6.8151,6.8062,6.7822,6.8062,6.8196,6.8286,6.8345,6.8435,6.8615,6.89,6.9439,6.9991,7.0244,7.0424,7.044,7.0576,7.05,7.041,7.047,7.05,7.056,7.0679,7.0829,7.0903,7.0903,7.0903,7.0979,7.1368,7.1846,7.2415,7.3133,7.3732,7.4377,7.4766,7.4826,7.4886,7.4886,7.4886,7.4886,7.4886,7.4886,7.4886,7.4886,7.4886,7.4886,7.4886,7.5006,7.5258,7.5497,7.5677,7.6125,7.6467,7.6617,7.6976,7.7394,7.7544,7.7454,7.7305,7.7305,7.7394,7.7155,7.7006,7.7095,7.6946,7.6617,7.6258,7.6006,7.5617,7.5347,7.5185,7.4946,7.4976,7.5065,7.5065,7.4916,7.4946,7.4946,7.4946,7.4916,7.4886,7.4886,7.4886,7.4886,7.4886,7.4886,7.5006,7.5185,7.5437,7.5736,7.6125,7.6557,7.7125,7.7424,7.7185,7.7048,7.7305,7.7514,7.0903,7.0859,7.05,7.056,7.0843,7.0903,7.0903,7.0903,7.0903,7.0679,7.032,7.0067,6.9768,6.9393,6.9093,6.8914,6.8884,6.8571,6.8451,6.8241,6.8511,6.8391,6.8615,6.8914,6.8914,6.9064,6.9319,6.9558,7.0097,7.056,7.0843,7.0813,7.0903,7.0903,7.0843,7.0783,7.0813,7.0843,7.0873,7.0903,7.0903,7.0903,7.0903,7.0979,7.1098,7.1637,7.2265,7.2907,7.3582,7.4168,7.4766,7.4886,7.4886,7.4886,7.4886,7.4886,7.4886,7.4886,7.4886,7.4886,7.4886,7.4916,7.4916,7.5095,7.5318,7.5647,7.5766,7.5946,7.6647,7.7215,7.7305,7.7454,7.7813,7.816,7.7921,7.7694,7.7861,7.8041,7.7921,7.7711,7.7574,7.7484,7.7185,7.6814,7.6514,7.6275,7.6125,7.6006,7.5587,7.5215,7.5335,7.5407,7.5185,7.5006,7.5006,7.5006,7.4946,7.4916,7.4886,7.4886,7.4886,7.5006,7.5095,7.5335,7.5587,7.5976,7.6485,7.6724,7.7095,7.7682,7.813,7.7981,7.7873,7.8041,7.819,7.0829,7.0829,7.0889,7.0829,7.0829,7.0843,7.0903,7.0903,7.0903,7.0873,7.0739,7.0336,7.0097,6.9961,6.9632,6.9423,6.9363,6.9213,6.899,6.8287,6.887,6.9019,6.896,6.8854,6.9453,6.9512,6.9708,7.0127,7.0247,7.059,7.0903,7.0903,7.0903,7.0903,7.0903,7.0903,7.0903,7.0903,7.0903,7.0903,7.0903,7.0903,7.0932,7.1128,7.1593,7.2192,7.2894,7.3582,7.4197,7.4646,7.4903,7.4886,7.4886,7.4886,7.4886,7.4886,7.4886,7.4886,7.4886,7.4886,7.5006,7.5006,7.4976,7.5407,7.5796,7.6048,7.6168,7.6604,7.7335,7.7801,7.7951,7.81,7.837,7.8489,7.837,7.819,7.819,7.837,7.84,7.825,7.822,7.81,7.7891,7.7532,7.7143,7.6946,7.6676,7.6557,7.6347,7.5736,7.5677,7.5826,7.5527,7.5305,7.5215,7.5185,7.5035,7.4976,7.4976,7.5095,7.5228,7.5288,7.5335,7.5707,7.6138,7.6814,7.7305,7.7394,7.7622,7.825,7.8579,7.8699,7.8747,7.8657,7.8609,7.0201,7.0277,7.0709,7.0649,7.0306,7.0709,7.0903,7.0903,7.0903,7.0903,7.0843,7.0739,7.0649,7.053,7.0394,7.0244,7.026,6.9901,6.9977,6.9798,6.9871,6.9768,7.0037,7.0021,7.0304,7.0454,7.062,7.0636,7.0649,7.0799,7.0903,7.0903,7.0903,7.0903,7.0903,7.0903,7.0903,7.0903,7.0903,7.0903,7.0903,7.0979,7.1068,7.1474,7.2013,7.2641,7.3283,7.3791,7.4317,7.4766,7.4856,7.4886,7.4886,7.4886,7.4886,7.4886,7.4886,7.4886,7.4886,7.4946,7.5095,7.5467,7.5677,7.6066,7.6347,7.6497,7.6826,7.7365,7.7861,7.825,7.8549,7.8699,7.8789,7.8789,7.8789,7.8639,7.8519,7.8639,7.8789,7.8789,7.8789,7.8639,7.843,7.819,7.7831,7.7424,7.6976,7.6749,7.6838,7.6497,7.6215,7.6228,7.5946,7.5707,7.5647,7.5527,7.5467,7.5245,7.5185,7.5347,7.5587,7.5826,7.6036,7.6347,7.6796,7.7335,7.7711,7.7741,7.8071,7.8609,7.8789,7.8789,7.8789,7.8729,7.8759,6.9558,6.9648,7.0231,7.0306,7.0157,7.0649,7.0903,7.0903,7.0903,7.0903,7.0903,7.0903,7.0903,7.0903,7.0903,7.0903,7.0859,7.0576,7.0306,7.0336,7.053,7.0396,7.059,7.0799,7.0783,7.0873,7.0873,7.0873,7.0903,7.0903,7.0903,7.0903,7.0903,7.0903,7.0903,7.0903,7.0903,7.0903,7.0903,7.0903,7.0962,7.1188,7.1427,7.1893,7.2551,7.318,7.3629,7.4121,7.4527,7.4796,7.4886,7.4886,7.4886,7.4886,7.4886,7.4886,7.4886,7.4886,7.4886,7.4976,7.5228,7.5707,7.5916,7.6155,7.7113,7.7245,7.7275,7.7753,7.825,7.8639,7.8669,7.8789,7.8789,7.8789,7.8789,7.8729,7.8669,7.8729,7.8789,7.8789,7.8789,7.8759,7.8609,7.8579,7.831,7.828,7.7753,7.7604,7.7574,7.7305,7.7035,7.6796,7.6587,7.6604,7.6754,7.6455,7.6048,7.5796,7.5467,7.5886,7.6258,7.6527,7.6779,7.7095,7.7365,7.7664,7.7951,7.8071,7.825,7.8699,7.8789,7.8789,7.8789,7.8789,7.8789,6.8914,6.9093,6.9648,6.9947,7.0067,7.0546,7.0829,7.0889,7.0903,7.0903,7.0903,7.0903,7.0903,7.0903,7.0903,7.0903,7.0843,7.0769,7.0546,7.0486,7.0709,7.062,7.059,7.0649,7.0813,7.0903,7.0903,7.0903,7.0903,7.0903,7.0903,7.0903,7.0903,7.0903,7.0903,7.0903,7.0903,7.0903,7.0903,7.0979,7.1218,7.1577,7.1846,7.2415,7.3133,7.3851,7.418,7.4467,7.4873,7.4886,7.4886,7.4886,7.4886,7.4886,7.4886,7.4886,7.4886,7.4886,7.4886,7.4916,7.5377,7.5826,7.5946,7.6514,7.7502,7.7921,7.7903,7.813,7.8609,7.8777,7.8807,7.8789,7.8789,7.8789,7.8789,7.8789,7.8789,7.8789,7.8789,7.8789,7.8789,7.8789,7.8807,7.8777,7.8777,7.8789,7.8789,7.8789,7.8639,7.819,7.7831,7.7682,7.7532,7.7622,7.7514,7.7125,7.6527,7.6258,7.6036,7.6527,7.6958,7.7335,7.7604,7.7801,7.8071,7.819,7.837,7.8549,7.8729,7.8789,7.8789,7.8789,7.8789,7.8789,7.8789,6.8511,6.9004,6.9153,6.9498,6.9947,7.0127,7.041,7.0859,7.0873,7.0903,7.0873,7.0873,7.0903,7.0873,7.0903,7.0903,7.0903,7.0903,7.0903,7.0829,7.0829,7.0769,7.0769,7.0753,7.0843,7.0903,7.0903,7.0903,7.0903,7.0903,7.0903,7.0903,7.0903,7.0903,7.0903,7.0903,7.0903,7.0903,7.0979,7.1038,7.1564,7.1876,7.2206,7.2804,7.3462,7.4121,7.4587,7.4796,7.4886,7.4886,7.4886,7.4886,7.4886,7.4886,7.4886,7.4886,7.4886,7.4886,7.4886,7.4886,7.5347,7.6228,7.6497,7.7035,7.7861,7.846,7.846,7.8489,7.8807,7.8807,7.8789,7.8789,7.8789,7.8789,7.8789,7.8789,7.8789,7.8789,7.8789,7.8789,7.8789,7.8789,7.8789,7.8807,7.8789,7.8789,7.8789,7.8789,7.8789,7.8687,7.8537,7.84,7.828,7.7664,7.7215,7.7335,7.6946,7.6647,7.6587,7.7006,7.7514,7.819,7.846,7.837,7.843,7.8537,7.8747,7.8789,7.8789,7.8789,7.8789,7.8789,7.8789,7.8789,7.8789]},{"header":{"parameterUnit":"m.s-1","parameterCategory":1,"la1":31.0,"la2":29.5877,"lo1":-88.7671,"lo2":-86.6584,"dy":0.0162,"dx":0.0185,"nx":115,"ny":88,"refTime":"2024-10-06T12:00:00:Z","depth":0,"parameterNumber":3,"parameterNumberName":"V-component_of_WINDS"},"data":[0.0,0.0,0.0,0.0,0.0,0.0,0.0,0.0,0.0,0.0,0.0,0.0,0.0,0.0,0.0,0.0,0.0,0.0,0.0,0.0,0.0,0.0,0.0,0.0,0.0,0.0,0.0,0.0,0.0,0.0,0.0,0.0,0.0,0.0,0.0,0.0,0.0,0.0,0.0,0.0,0.0,0.0,0.0,0.0,0.0,0.0,0.0,0.0,0.0,0.0,0.0,0.0,0.0,0.0,0.0,0.0,0.0,0.0,0.0,0.0,0.0,0.0,0.0,0.0,0.0,0.0,0.0,0.0,0.0,0.0,0.0,0.0,0.0,0.0,0.0,0.0,0.0,0.0,0.0,0.0,0.0,0.0,0.0,0.0,0.0,0.0,0.0,0.0,0.0,0.0,0.0,0.0,0.0,0.0,0.0,0.0,0.0,0.0,0.0,0.0,0.0,0.0,0.0,0.0,0.0,0.0,0.0,0.0,0.0,0.0,0.0,0.0,0.0,0.0,0.0,0.0,0.0,0.0,0.0,0.0,0.0,0.0,0.0,0.0,0.0,0.0,0.0,0.0,0.0,0.0,0.0,0.0,0.0,0.0,0.0,0.0,0.0,0.0,0.0,0.0,0.0,0.0,0.0,0.0,0.0,0.0,0.0,0.0,0.0,0.0,0.0,0.0,0.0,0.0,0.0,0.0,0.0,0.0,0.0,0.0,0.0,0.0,0.0,0.0,0.0,0.0,0.0,0.0,0.0,0.0,0.0,0.0,0.0,0.0,0.0,0.0,0.0,0.0,0.0,0.0,0.0,0.0,0.0,0.0,0.0,0.0,0.0,0.0,0.0,0.0,0.0,0.0,0.0,0.0,0.0,0.0,0.0,0.0,0.0,0.0,0.0,0.0,0.0,0.0,0.0,0.0,0.0,0.0,0.0,0.0,0.0,0.0,0.0,0.0,0.0,0.0,0.0,0.0,0.0,0.0,0.0,0.0,0.0,0.0,0.0,0.0,0.0,0.0,0.0,0.0,0.0,0.0,0.0,0.0,0.0,0.0,0.0,0.0,0.0,0.0,0.0,0.0,0.0,0.0,0.0,0.0,0.0,0.0,0.0,0.0,0.0,0.0,0.0,0.0,0.0,0.0,0.0,0.0,0.0,0.0,0.0,0.0,0.0,0.0,0.0,0.0,0.0,0.0,0.0,0.0,0.0,0.0,0.0,0.0,0.0,0.0,0.0,0.0,0.0,0.0,0.0,0.0,0.0,0.0,0.0,0.0,0.0,0.0,0.0,0.0,0.0,0.0,0.0,0.0,0.0,0.0,0.0,0.0,0.0,0.0,0.0,0.0,0.0,0.0,0.0,0.0,0.0,0.0,0.0,0.0,0.0,0.0,0.0,0.0,0.0,0.0,0.0,0.0,0.0,0.0,0.0,0.0,0.0,0.0,0.0,0.0,0.0,0.0,0.0,0.0,0.0,0.0,0.0,0.0,0.0,0.0,0.0,0.0,0.0,0.0,0.0,0.0,0.0,0.0,0.0,0.0,0.0,0.0,0.0,0.0,0.0,0.0,0.0,0.0,0.0,0.0,0.0,0.0,0.0,0.0,0.0,0.0,0.0,0.0,0.0,0.0,0.0,0.0,0.0,0.0,0.0,0.0,0.0,0.0,0.0,0.0,0.0,0.0,0.0,0.0,0.0,0.0,0.0,0.0,0.0,0.0,0.0,0.0,0.0,0.0,0.0,0.0,0.0,0.0,0.0,0.0,0.0,0.0,0.0,0.0,0.0,0.0,0.0,0.0,0.0,0.0,0.0,0.0,0.0,0.0,0.0,0.0,0.0,0.0,0.0,0.0,0.0,0.0,0.0,0.0,0.0,0.0,0.0,0.0,0.0,0.0,0.0,0.0,0.0,0.0,0.0,0.0,0.0,0.0,0.0,0.0,0.0,0.0,0.0,0.0,0.0,0.0,0.0,0.0,0.0,0.0,0.0,0.0,0.0,0.0,0.0,0.0,0.0,0.0,0.0,0.0,0.0,0.0,0.0,0.0,0.0,0.0,0.0,0.0,0.0,0.0,0.0,0.0,0.0,0.0,0.0,0.0,0.0,0.0,0.0,0.0,0.0,0.0,0.0,0.0,0.0,0.0,0.0,0.0,0.0,0.0,0.0,0.0,0.0,0.0,0.0,0.0,0.0,0.0,0.0,0.0,0.0,0.0,0.0,0.0,0.0,0.0,0.0,0.0,0.0,0.0,0.0,0.0,0.0,0.0,0.0,0.0,0.0,0.0,0.0,0.0,0.0,0.0,0.0,0.0,0.0,0.0,0.0,0.0,0.0,0.0,0.0,0.0,0.0,0.0,0.0,0.0,0.0,0.0,0.0,0.0,0.0,0.0,0.0,0.0,0.0,0.0,0.0,0.0,0.0,0.0,0.0,0.0,0.0,0.0,0.0,0.0,0.0,0.0,0.0,0.0,0.0,0.0,0.0,0.0,0.0,0.0,0.0,0.0,0.0,0.0,0.0,0.0,0.0,0.0,0.0,0.0,0.0,0.0,0.0,0.0,0.0,0.0,0.0,0.0,0.0,0.0,0.0,0.0,0.0,0.0,0.0,0.0,0.0,0.0,0.0,0.0,0.0,0.0,0.0,0.0,0.0,0.0,0.0,0.0,0.0,0.0,0.0,0.0,0.0,0.0,0.0,0.0,0.0,0.0,0.0,0.0,0.0,0.0,0.0,0.0,0.0,0.0,0.0,0.0,0.0,0.0,0.0,0.0,0.0,0.0,0.0,0.0,0.0,0.0,0.0,0.0,0.0,0.0,0.0,0.0,0.0,0.0,0.0,0.0,0.0,0.0,0.0,0.0,0.0,0.0,0.0,0.0,0.0,0.0,0.0,0.0,0.0,0.0,0.0,0.0,0.0,0.0,0.0,0.0,0.0,0.0,0.0,0.0,0.0,0.0,0.0,0.0,0.0,0.0,0.0,0.0,0.0,0.0,0.0,0.0,0.0,0.0,0.0,0.0,0.0,0.0,0.0,0.0,0.0,0.0,0.0,0.0,0.0,0.0,0.0,0.0,0.0,0.0,0.0,0.0,0.0,0.0,0.0,0.0,0.0,0.0,0.0,0.0,0.0,0.0,0.0,0.0,0.0,0.0,0.0,0.0,0.0,0.0,0.0,0.0,0.0,0.0,0.0,0.0,0.0,0.0,0.0,0.0,0.0,0.0,0.0,0.0,0.0,0.0,0.0,0.0,0.0,0.0,0.0,0.0,0.0,0.0,0.0,0.0,0.0,0.0,0.0,0.0,0.0,0.0,0.0,0.0,0.0,0.0,0.0,0.0,0.0,0.0,0.0,0.0,0.0,0.0,0.0,0.0,0.0,0.0,0.0,0.0,0.0,0.0,0.0,0.0,0.0,0.0,0.0,0.0,0.0,0.0,0.0,0.0,0.0,0.0,0.0,0.0,0.0,0.0,0.0,0.0,0.0,0.0,0.0,0.0,0.0,0.0,0.0,0.0,0.0,0.0,0.0,0.0,0.0,0.0,0.0,0.0,0.0,0.0,0.0,0.0,0.0,0.0,0.0,0.0,0.0,0.0,0.0,0.0,0.0,0.0,0.0,0.0,0.0,0.0,0.0,0.0,0.0,0.0,0.0,0.0,0.0,0.0,0.0,0.0,0.0,0.0,0.0,0.0,0.0,0.0,0.0,0.0,0.0,0.0,0.0,0.0,0.0,0.0,0.0,0.0,0.0,0.0,0.0,0.0,0.0,0.0,0.0,0.0,0.0,0.0,0.0,0.0,0.0,0.0,0.0,0.0,0.0,0.0,0.0,0.0,0.0,0.0,0.0,0.0,0.0,0.0,0.0,0.0,0.0,0.0,0.0,0.0,0.0,0.0,0.0,0.0,0.0,0.0,0.0,0.0,0.0,0.0,0.0,0.0,0.0,0.0,0.0,0.0,0.0,0.0,0.0,0.0,0.0,0.0,0.0,0.0,0.0,0.0,0.0,0.0,0.0,0.0,0.0,0.0,0.0,0.0,0.0,0.0,0.0,0.0,0.0,0.0,0.0,0.0,0.0,0.0,0.0,0.0,0.0,0.0,0.0,0.0,0.0,0.0,0.0,0.0,0.0,0.0,0.0,0.0,0.0,0.0,0.0,0.0,0.0,0.0,0.0,0.0,0.0,0.0,0.0,0.0,0.0,0.0,0.0,0.0,0.0,0.0,0.0,0.0,0.0,0.0,0.0,0.0,0.0,0.0,0.0,0.0,0.0,0.0,0.0,0.0,1.0995,0.0,0.0,0.0,0.0,0.0,0.0,0.0,0.0,0.0,0.0,0.0,0.0,0.0,0.0,0.0,0.0,0.0,0.0,0.0,0.0,0.0,0.0,0.0,0.0,0.0,0.0,0.0,0.0,0.0,0.0,0.0,0.0,0.0,0.0,0.0,0.0,0.0,0.0,0.0,0.0,0.0,0.0,0.0,0.0,0.0,0.0,0.0,0.0,0.0,0.0,0.0,0.0,0.0,0.0,0.0,0.0,0.0,0.0,0.0,0.0,0.0,0.0,0.0,0.0,0.0,0.0,0.0,0.0,0.0,0.0,0.0,0.0,0.0,0.0,0.0,0.0,0.0,0.0,0.0,0.0,0.0,0.0,0.0,0.0,0.0,0.0,0.0,0.0,0.0,0.0,0.0,0.0,0.0,0.0,0.0,0.0,0.0,0.0,0.0,0.0,0.0,0.0,0.0,0.0,0.0,0.0,0.0,0.0,0.0,0.0,1.1931,1.1637,1.1464,1.1272,1.1017,0.0,0.0,0.0,0.0,0.0,0.0,0.0,0.0,0.0,0.0,0.0,0.0,0.0,0.0,0.0,0.0,0.0,0.0,0.0,0.0,0.0,0.0,0.0,0.0,0.0,0.0,0.0,0.0,0.0,0.0,0.0,0.0,0.0,0.0,0.0,0.0,0.0,0.0,0.0,0.0,0.0,0.0,0.0,0.0,0.0,0.0,0.0,0.0,0.0,0.0,0.0,0.0,0.0,0.0,0.0,0.0,0.0,0.0,0.0,0.0,0.0,0.0,0.0,0.0,0.0,0.0,0.0,0.0,0.0,0.0,0.0,0.0,0.0,0.0,0.0,0.0,0.0,0.0,0.0,0.0,0.0,0.0,0.0,0.0,0.0,0.0,0.0,0.0,0.0,0.0,0.0,0.0,0.0,0.0,0.0,0.0,0.0,0.0,0.0,0.0,0.0,0.0,0.0,0.0,0.0,0.0,0.0,0.0,0.0,0.0,0.0,0.0,1.1748,1.1597,1.1303,0.0,0.0,0.0,0.0,0.0,0.0,0.0,0.0,0.0,0.0,0.0,0.0,0.0,0.0,0.0,0.0,0.0,0.0,0.0,0.0,0.0,0.0,0.0,0.0,0.0,0.0,0.0,0.0,0.0,0.0,0.0,0.0,0.0,0.0,0.0,0.0,0.0,0.0,0.0,0.0,0.0,0.0,0.0,0.0,0.0,0.0,0.0,0.0,0.0,0.0,0.0,0.0,0.0,0.0,0.0,0.0,0.0,0.0,0.0,0.0,0.0,0.0,0.0,0.0,0.0,0.0,0.0,0.0,0.0,0.0,0.0,0.0,0.0,0.0,0.0,0.0,0.0,0.0,0.0,0.0,0.0,0.0,0.0,0.0,0.0,0.0,0.0,0.0,0.0,0.0,0.0,0.0,0.0,0.0,0.0,0.0,0.0,0.0,0.0,0.0,0.0,0.0,0.0,0.0,0.0,0.0,0.0,0.0,0.0,0.0,1.1953,1.3003,1.2778,0.0,1.2225,0.0,0.0,0.0,0.0,0.0,0.0,0.0,0.0,0.0,0.0,0.0,0.0,0.0,0.0,0.0,0.0,0.0,0.0,0.0,0.0,0.0,0.0,0.0,0.0,0.0,0.0,0.0,0.0,0.0,0.0,0.0,0.0,0.0,0.0,0.0,0.0,0.0,0.0,0.0,0.0,0.0,0.0,0.0,0.0,0.0,0.0,0.0,0.0,0.0,0.0,0.0,0.0,0.0,0.0,0.0,0.0,0.0,0.0,0.0,0.0,0.0,0.0,0.0,0.0,0.0,0.0,0.0,0.0,0.0,0.0,0.0,0.0,0.0,0.0,0.0,0.0,0.0,0.0,0.0,0.0,0.0,0.0,0.0,0.0,0.0,0.0,0.0,0.0,0.0,0.0,0.0,0.0,0.0,0.0,0.0,0.0,0.0,0.0,0.0,0.0,0.0,0.0,0.0,0.0,0.0,0.0,0.0,0.0,0.0,0.0,1.2367,1.2665,1.2555,1.2363,0.0,0.0,0.0,0.0,0.0,0.0,0.0,0.0,0.0,0.0,0.0,0.0,0.0,0.0,0.0,0.0,0.0,0.0,0.0,0.0,0.0,0.0,0.0,0.0,0.0,0.0,0.0,0.0,0.0,0.0,0.0,0.0,0.0,0.0,0.0,0.0,0.0,0.0,0.0,0.0,0.0,0.0,0.0,0.0,0.0,0.0,0.0,0.0,0.0,0.0,0.0,0.0,0.0,0.0,0.0,0.0,0.0,0.0,0.0,0.0,0.0,0.0,0.0,0.0,0.0,0.0,0.0,0.0,0.0,0.0,0.0,0.0,0.0,0.0,0.0,0.0,0.0,0.0,0.0,0.0,0.0,0.0,0.0,0.0,0.0,0.0,0.0,0.0,0.0,0.0,0.0,0.0,0.0,0.0,0.0,0.0,0.0,0.0,0.0,0.0,0.0,0.0,0.0,0.0,0.0,0.0,0.0,0.0,0.0,0.0,1.2315,1.2587,1.2665,1.2656,1.2434,1.1926,0.0,0.0,0.0,0.0,0.0,0.0,0.0,0.0,0.0,0.0,0.0,0.0,0.0,0.0,0.0,0.0,0.0,0.0,0.0,0.0,0.0,0.0,0.0,0.0,0.0,0.0,0.0,0.0,0.0,0.0,0.0,0.0,0.0,0.0,0.0,0.0,0.0,0.0,0.0,0.0,0.0,0.0,0.0,0.0,0.0,0.0,0.0,0.0,0.0,0.0,0.0,0.0,0.0,0.0,0.0,0.0,0.0,0.0,0.0,0.0,0.0,0.0,0.0,0.0,0.0,0.0,0.0,0.0,0.0,0.0,0.0,0.0,0.0,0.0,0.0,0.0,0.0,0.0,0.0,0.0,0.0,0.0,0.0,0.0,0.0,0.0,0.0,0.0,0.0,0.0,0.0,0.0,0.0,0.0,0.0,0.0,0.0,0.0,0.0,0.0,0.0,0.0,0.0,0.0,0.0,0.0,0.0,0.0,1.3755,1.2627,1.247,1.3493,1.3526,1.301,0.0,0.0,0.0,0.0,0.0,0.0,0.0,0.0,0.0,0.0,0.0,0.0,0.0,0.0,0.0,0.0,0.0,0.0,0.0,0.0,0.0,0.0,0.0,0.0,0.0,0.0,0.0,0.0,0.0,0.0,0.0,0.0,0.0,0.0,0.0,0.0,0.0,0.0,0.0,0.0,0.0,0.0,0.0,0.0,0.0,0.0,0.0,0.0,0.0,0.0,0.0,0.0,0.0,0.0,0.0,0.0,0.0,0.0,0.0,0.0,0.0,0.0,0.0,0.0,0.0,0.0,0.0,0.0,0.0,0.0,0.0,0.0,0.0,0.0,0.0,0.0,0.0,0.0,0.0,0.0,0.0,0.0,0.0,0.0,0.0,0.0,0.0,0.0,0.0,0.0,0.0,0.0,0.0,0.0,0.0,0.0,0.0,0.0,0.0,0.0,0.0,0.0,0.0,0.0,0.0,0.0,0.0,0.0,0.0,1.181,1.2042,1.2902,1.4362,1.3223,1.2488,0.0,0.0,0.0,0.0,0.0,0.0,0.0,0.0,0.0,0.0,0.0,0.0,0.0,0.0,0.0,0.0,0.0,0.0,0.0,0.0,0.0,0.0,0.0,0.0,0.0,0.0,0.0,0.0,0.0,0.0,0.0,0.0,0.0,0.0,0.0,0.0,0.0,0.0,0.0,0.0,0.0,0.0,0.0,0.0,0.0,0.0,0.0,0.0,0.0,0.0,0.0,0.0,0.0,0.0,0.0,0.0,0.0,0.0,0.0,0.0,0.0,0.0,0.0,0.0,0.0,0.0,0.0,0.0,0.0,0.0,0.0,0.0,0.0,0.0,0.0,0.0,0.0,0.0,0.0,0.0,0.0,0.0,0.0,0.0,0.0,0.0,0.0,0.0,0.0,0.0,0.0,0.0,0.0,0.0,0.0,0.0,0.0,0.0,0.0,0.0,0.0,0.0,0.0,0.0,0.0,0.0,0.0,0.0,0.0,1.144,0.0,1.3594,1.4306,1.3108,1.2222,0.0,0.0,0.0,0.0,0.0,0.0,0.0,0.0,0.0,0.0,0.0,0.0,0.0,0.0,0.0,0.0,0.0,0.0,0.0,0.0,0.0,0.0,0.0,0.0,0.0,0.0,0.0,0.0,0.0,0.0,0.0,0.0,0.0,0.0,0.0,0.0,0.0,0.0,0.0,0.0,0.0,0.0,0.0,0.0,0.0,0.0,0.0,0.0,0.0,0.0,0.0,0.0,0.0,0.0,0.0,0.0,0.0,0.0,0.0,0.0,0.0,0.0,0.0,0.0,0.0,0.0,0.0,0.0,0.0,0.0,0.0,0.0,0.0,0.0,0.0,0.0,0.0,0.0,0.0,0.0,0.0,0.0,0.0,0.0,0.0,0.0,0.0,0.0,0.0,0.0,0.0,0.0,0.0,0.0,0.0,0.0,0.0,0.0,0.0,0.0,0.0,0.0,0.0,0.0,0.0,0.0,0.0,0.0,1.1471,1.3106,1.4301,1.4389,1.3297,1.3325,1.2299,0.0,0.0,0.0,0.0,0.0,0.0,0.0,0.0,0.0,0.0,0.0,0.0,0.0,0.0,0.0,0.0,0.0,0.0,0.0,0.0,0.0,0.0,0.0,0.0,0.0,0.0,0.0,0.0,0.0,0.0,0.0,0.0,0.0,0.0,0.0,0.0,0.0,0.0,0.0,0.0,0.0,0.0,0.0,0.0,0.0,0.0,0.0,0.0,0.0,0.0,0.0,0.0,0.0,0.0,0.0,0.0,0.0,0.0,0.0,0.0,0.0,0.0,0.0,0.0,0.0,0.0,0.0,0.0,0.0,0.0,0.0,0.0,0.0,0.0,0.0,0.0,0.0,0.0,0.0,0.0,0.0,0.0,0.0,0.0,0.0,0.0,0.0,0.0,0.0,0.0,0.0,0.0,0.0,0.0,0.0,0.0,0.0,0.0,0.0,0.0,0.0,0.0,0.0,0.0,0.0,0.0,0.0,0.0,0.0,1.2355,1.3792,1.4738,1.498,1.3262,1.2489,0.0,0.0,0.0,0.0,0.0,0.0,0.0,0.0,0.0,0.0,0.0,0.0,0.0,0.0,0.0,0.0,0.0,0.0,0.0,0.0,0.0,0.0,0.0,0.0,0.0,0.0,0.0,0.0,0.0,0.0,0.0,0.0,0.0,0.0,0.0,0.0,0.0,0.0,0.0,0.0,0.0,0.0,0.0,0.0,0.0,0.0,0.0,0.0,0.0,0.0,0.0,0.0,0.0,0.0,0.0,0.0,0.0,0.0,0.0,0.0,0.0,0.0,0.0,0.0,0.0,0.0,0.0,0.0,0.0,0.0,0.0,0.0,0.0,0.0,0.0,0.0,0.0,0.0,0.0,0.0,0.0,0.0,0.0,0.0,0.0,0.0,0.0,0.0,0.0,0.0,0.0,0.0,0.0,0.0,0.0,0.0,0.0,0.0,0.0,0.0,0.0,0.0,0.0,0.0,0.0,0.0,0.0,0.0,0.0,1.3775,1.5037,1.5883,1.6202,1.4157,1.3219,1.3483,0.0,0.0,0.0,0.0,0.0,0.0,0.0,0.0,0.0,0.0,0.0,0.0,0.0,0.0,0.0,0.0,0.0,0.0,0.0,0.0,0.0,0.0,0.0,0.0,0.0,0.0,0.0,0.0,0.0,0.0,0.0,0.0,0.0,0.0,0.0,0.0,0.0,0.0,0.0,0.0,0.0,0.0,0.0,0.0,0.0,0.0,0.0,0.0,0.0,0.0,0.0,0.0,0.0,0.0,0.0,0.0,0.0,0.0,0.0,0.0,0.0,0.0,0.0,0.0,0.0,0.0,0.0,0.0,0.0,0.0,0.0,0.0,0.0,0.0,0.0,0.0,0.0,0.0,0.0,0.0,0.0,0.0,0.0,0.0,0.0,0.0,0.0,0.0,0.0,0.0,0.0,0.0,0.0,0.0,0.0,0.0,0.0,0.0,0.0,0.0,0.0,0.0,0.0,0.0,0.0,0.0,0.0,0.0,1.6833,1.7739,1.7807,1.6946,1.5833,1.4445,0.0,0.0,0.0,0.0,0.0,0.0,0.0,0.0,0.0,0.0,0.0,0.0,0.0,0.0,0.0,0.0,0.0,0.0,0.0,0.0,0.0,0.0,0.0,0.0,0.0,0.0,0.0,0.0,0.0,0.0,0.0,0.0,0.0,0.0,0.0,0.0,0.0,0.0,0.0,0.0,0.0,0.0,0.0,0.0,0.0,0.0,0.0,0.0,0.0,0.0,0.0,0.0,0.0,0.0,0.0,0.0,0.0,0.0,0.0,0.0,0.0,0.0,0.0,0.0,0.0,0.0,0.0,0.0,0.0,0.0,0.0,0.0,0.0,0.0,0.0,0.0,0.0,0.0,0.0,0.0,0.0,0.0,0.0,0.0,0.0,0.0,0.0,0.0,0.0,0.0,0.0,0.0,0.0,0.0,0.0,0.0,0.0,0.0,0.0,0.0,0.0,0.0,0.0,0.0,0.0,0.0,0.0,0.0,0.0,1.8682,2.0036,2.0296,1.9358,1.7339,1.6327,0.0,0.0,0.0,0.0,0.0,0.0,0.0,0.0,0.0,0.0,0.0,0.0,0.0,0.0,0.0,0.0,0.0,0.0,0.0,0.0,0.0,0.0,0.0,0.0,0.0,0.0,0.0,0.0,0.0,0.0,0.0,0.0,0.0,0.0,0.0,0.0,0.0,0.0,0.0,0.0,0.0,0.0,0.0,0.0,0.0,0.0,0.0,0.0,0.0,0.0,0.0,0.0,0.0,0.0,0.0,0.0,0.0,0.0,0.0,0.0,0.0,0.0,0.0,0.0,0.0,0.0,0.0,0.0,0.0,0.0,0.0,0.0,0.0,0.0,0.0,0.0,0.0,0.0,0.0,0.0,0.0,0.0,0.0,0.0,0.0,0.0,0.0,0.0,0.0,0.0,0.0,0.0,0.0,0.0,0.0,0.0,0.0,0.0,0.0,0.0,0.0,0.0,0.0,0.0,0.0,0.0,0.0,0.0,1.8898,2.0911,2.1832,2.2483,2.2896,2.0278,1.8487,0.0,0.0,0.0,0.0,0.0,0.0,0.0,0.0,0.0,0.0,0.0,0.0,0.0,0.0,0.0,0.0,0.0,0.0,0.0,0.0,0.0,0.0,0.0,0.0,0.0,0.0,0.0,0.0,0.0,0.0,0.0,0.0,0.0,0.0,0.0,0.0,0.0,0.0,0.0,0.0,0.0,0.0,0.0,0.0,0.0,0.0,0.0,0.0,0.0,0.0,0.0,0.0,0.0,0.0,0.0,0.0,0.0,0.0,0.0,0.0,0.0,0.0,0.0,0.0,0.0,0.0,0.0,0.0,0.0,0.0,0.0,0.0,0.0,0.0,0.0,0.0,0.0,0.0,0.0,0.0,0.0,0.0,0.0,0.0,0.0,0.0,0.0,0.0,0.0,0.0,0.0,0.0,0.0,0.0,0.0,0.0,0.0,0.0,0.0,0.0,0.0,0.0,0.0,0.0,0.0,0.0,0.0,0.0,2.0695,2.3089,2.3263,2.427,2.6162,2.345,2.0702,0.0,0.0,0.0,0.0,0.0,0.0,0.0,0.0,0.0,0.0,0.0,0.0,0.0,0.0,0.0,0.0,0.0,0.0,0.0,0.0,0.0,0.0,0.0,0.0,0.0,0.0,0.0,0.0,0.0,0.0,0.0,0.0,0.0,0.0,0.0,0.0,0.0,0.0,0.0,0.0,0.0,0.0,0.0,0.0,0.0,0.0,0.0,0.0,0.0,0.0,0.0,0.0,0.0,0.0,0.0,0.0,0.0,0.0,0.0,0.0,0.0,0.0,0.0,0.0,0.0,0.0,0.0,0.0,0.0,0.0,0.0,0.0,0.0,0.0,0.0,0.0,0.0,0.0,0.0,0.0,0.0,0.0,0.0,0.0,0.0,0.0,0.0,0.0,0.0,0.0,0.0,0.0,0.0,0.0,0.0,0.0,0.0,0.0,0.0,0.0,0.0,0.0,0.0,0.0,0.0,0.0,0.0,0.0,2.1771,2.344,2.4273,2.4902,2.5372,2.3075,2.1738,0.0,0.0,0.0,0.0,0.0,0.0,0.0,0.0,0.0,0.0,0.0,0.0,0.0,0.0,0.0,0.0,0.0,0.0,0.0,0.0,0.0,0.0,0.0,0.0,0.0,0.0,0.0,0.0,0.0,0.0,0.0,0.0,0.0,0.0,0.0,0.0,0.0,0.0,0.0,0.0,0.0,0.0,0.0,0.0,0.0,0.0,0.0,0.0,1.7265,0.0,0.0,0.0,0.0,0.0,0.0,0.0,0.0,0.0,0.0,0.0,0.0,0.0,0.0,0.0,0.0,0.0,0.0,0.0,0.0,0.0,0.0,0.0,0.0,0.0,0.0,0.0,0.0,0.0,0.0,0.0,0.0,0.0,0.0,0.0,0.0,0.0,0.0,0.0,0.0,0.0,0.0,0.0,0.0,0.0,0.0,0.0,0.0,0.0,0.0,0.0,0.0,0.0,0.0,0.0,0.0,0.0,0.0,0.0,2.3372,2.5745,2.5937,2.6581,2.7674,2.551,2.3821,0.0,0.0,0.0,0.0,0.0,0.0,0.0,0.0,0.0,0.0,0.0,0.0,0.0,0.0,0.0,0.0,0.0,0.0,0.0,0.0,0.0,0.0,0.0,0.0,0.0,0.0,0.0,0.0,0.0,0.0,0.0,0.0,0.0,0.0,0.0,0.0,0.0,0.0,0.0,0.0,0.0,0.0,0.0,0.0,0.0,0.0,0.0,0.0,0.0,0.0,0.0,0.0,0.0,0.0,0.0,0.0,0.0,0.0,0.0,0.0,0.0,0.0,0.0,0.0,0.0,0.0,0.0,0.0,0.0,0.0,0.0,0.0,0.0,0.0,0.0,0.0,0.0,0.0,0.0,0.0,0.0,0.0,0.0,0.0,0.0,0.0,0.0,0.0,0.0,0.0,0.0,0.0,0.0,0.0,0.0,0.0,0.0,0.0,0.0,0.0,0.0,0.0,0.0,0.0,0.0,0.0,0.0,2.2717,2.5034,2.8293,2.7685,2.8358,3.0494,2.8521,2.6158,2.3602,0.0,0.0,0.0,0.0,0.0,0.0,0.0,0.0,0.0,0.0,0.0,0.0,0.0,0.0,0.0,0.0,0.0,0.0,0.0,0.0,0.0,0.0,0.0,0.0,0.0,0.0,0.0,0.0,0.0,0.0,0.0,0.0,0.0,0.0,0.0,0.0,0.0,0.0,1.1857,1.4156,0.0,0.0,0.0,0.0,0.0,0.0,0.0,0.0,1.9387,0.0,0.0,0.0,0.0,0.0,0.0,0.0,0.0,0.0,0.0,0.0,0.0,0.0,0.0,0.0,0.0,0.0,0.0,0.0,0.0,0.0,0.0,0.0,0.0,0.0,0.0,0.0,0.0,0.0,0.0,0.0,0.0,0.0,0.0,0.0,0.0,0.0,0.0,0.0,0.0,0.0,0.0,0.0,0.0,0.0,0.0,0.0,0.0,0.0,0.0,0.0,0.0,0.0,0.0,0.0,0.0,2.6391,2.5352,2.6095,2.8726,2.8661,2.8787,2.9231,2.9198,2.7935,2.5355,0.0,0.0,0.0,0.0,0.0,0.0,0.0,0.0,0.0,0.0,0.0,0.0,0.0,0.0,0.0,0.0,0.0,0.0,0.0,0.0,0.0,0.0,0.0,0.0,0.0,0.0,0.0,0.0,0.0,0.0,0.0,0.0,0.0,0.0,0.0,0.0,0.0,0.0,0.0,1.7433,1.9161,0.0,0.0,0.0,0.0,0.0,0.0,0.0,0.0,1.9299,0.0,0.0,0.0,0.0,0.0,0.0,0.0,0.0,0.0,0.0,0.0,0.0,0.0,0.0,0.0,0.0,0.0,0.0,0.0,0.0,0.0,0.0,0.0,0.0,0.0,0.0,0.0,0.0,0.0,0.0,0.0,0.0,0.0,0.0,0.0,0.0,0.0,0.0,0.0,0.0,0.0,0.0,0.0,0.0,0.0,0.0,0.0,0.0,0.0,0.0,0.0,0.0,0.0,0.0,0.0,2.5513,2.6231,2.7609,2.9827,2.9932,2.9932,2.9924,2.8857,2.7344,0.0,0.0,0.0,0.0,0.0,0.0,0.0,0.0,0.0,0.0,0.0,0.0,0.0,0.0,0.0,0.0,0.0,0.0,0.0,0.0,0.0,0.0,0.0,0.0,0.0,0.0,0.0,0.0,0.0,0.0,0.0,0.0,0.0,0.0,0.0,0.0,0.0,0.0,0.0,0.0,1.8354,1.9491,2.0186,0.0,0.0,0.0,0.0,0.0,0.0,2.0664,2.0138,0.0,0.0,0.0,0.0,0.0,0.0,0.0,0.0,0.0,0.0,0.0,0.0,0.0,0.0,0.0,0.0,0.0,0.0,0.0,0.0,0.0,0.0,0.0,0.0,0.0,0.0,0.0,0.0,0.0,0.0,0.0,0.0,0.0,0.0,0.0,0.0,0.0,0.0,0.0,0.0,0.0,0.0,0.0,0.0,0.0,0.0,0.0,0.0,0.0,0.0,0.0,0.0,0.0,0.0,0.0,2.4224,2.6577,2.8809,3.0791,3.0913,3.0913,3.0874,2.8619,2.666,0.0,0.0,0.0,0.0,0.0,0.0,0.0,0.0,0.0,0.0,0.0,0.0,0.0,0.0,0.0,0.0,0.0,0.0,0.0,0.0,0.0,0.0,0.0,0.0,0.0,0.0,0.0,0.0,0.0,0.0,0.0,0.0,0.0,0.0,0.0,0.0,0.0,0.0,0.0,0.0,0.0,2.0354,2.1515,2.1738,0.0,0.0,0.0,0.0,2.2559,2.2353,0.0,0.0,0.0,0.0,0.0,0.0,0.0,0.0,0.0,0.0,0.0,0.0,0.0,0.0,0.0,0.0,0.0,0.0,0.0,0.0,0.0,0.0,0.0,0.0,0.0,0.0,0.0,0.0,0.0,0.0,0.0,0.0,0.0,0.0,0.0,0.0,0.0,0.0,0.0,0.0,0.0,0.0,0.0,0.0,0.0,0.0,0.0,0.0,0.0,0.0,0.0,0.0,0.0,0.0,0.0,0.0,2.539,2.6956,2.8758,3.0781,3.0913,3.0913,3.0893,2.9459,2.7559,0.0,0.0,0.0,0.0,0.0,0.0,0.0,0.0,0.0,0.0,0.0,0.0,0.0,0.0,0.0,0.0,0.0,0.0,0.0,0.0,0.0,0.0,0.0,0.0,0.0,0.0,0.0,0.0,0.0,0.0,0.0,0.0,0.0,0.0,0.0,0.0,0.0,0.0,0.0,0.0,0.0,2.4762,2.289,2.3415,2.4097,0.0,0.0,2.3914,2.5093,2.5199,0.0,0.0,0.0,0.0,0.0,0.0,0.0,0.0,0.0,0.0,0.0,0.0,0.0,0.0,0.0,0.0,0.0,0.0,0.0,0.0,0.0,0.0,0.0,0.0,0.0,0.0,0.0,0.0,0.0,0.0,0.0,0.0,0.0,0.0,0.0,0.0,0.0,0.0,0.0,0.0,0.0,0.0,0.0,0.0,0.0,0.0,0.0,0.0,0.0,0.0,0.0,0.0,0.0,0.0,0.0,2.2802,2.5652,2.7949,2.9701,3.0854,3.0913,3.0913,3.0893,2.8691,2.6516,0.0,0.0,0.0,0.0,0.0,0.0,0.0,0.0,0.0,0.0,0.0,0.0,0.0,0.0,0.0,0.0,0.0,0.0,0.0,0.0,0.0,0.0,0.0,0.0,0.0,0.0,0.0,0.0,0.0,0.0,0.0,0.0,0.0,0.0,0.0,0.0,0.0,0.0,0.0,0.0,0.0,0.0,2.5141,2.5573,0.0,0.0,0.0,2.582,2.6355,0.0,0.0,0.0,0.0,0.0,0.0,0.0,0.0,0.0,0.0,0.0,0.0,0.0,0.0,0.0,0.0,0.0,0.0,0.0,0.0,0.0,0.0,0.0,0.0,0.0,0.0,0.0,0.0,0.0,0.0,0.0,0.0,0.0,0.0,0.0,0.0,0.0,0.0,0.0,0.0,0.0,0.0,0.0,0.0,0.0,0.0,0.0,0.0,0.0,0.0,0.0,0.0,0.0,0.0,0.0,0.0,0.0,2.5703,2.8672,3.043,3.0893,3.0913,3.0913,3.0854,2.8262,0.0,0.0,0.0,0.0,0.0,0.0,0.0,0.0,0.0,0.0,0.0,0.0,0.0,0.0,0.0,0.0,0.0,0.0,0.0,0.0,0.0,0.0,0.0,0.0,0.0,0.0,0.0,1.3476,0.0,0.0,0.0,0.0,0.0,0.0,0.0,0.0,0.0,0.0,0.0,0.0,0.0,0.0,2.5388,2.7097,2.7506,2.7734,0.0,0.0,2.7682,2.778,2.7975,2.7253,0.0,0.0,0.0,0.0,0.0,0.0,0.0,0.0,0.0,0.0,0.0,0.0,0.0,0.0,0.0,0.0,0.0,0.0,0.0,0.0,0.0,0.0,0.0,0.0,0.0,0.0,0.0,0.0,0.0,0.0,0.0,0.0,0.0,0.0,0.0,0.0,0.0,0.0,0.0,0.0,0.0,0.0,0.0,0.0,0.0,0.0,0.0,0.0,0.0,0.0,0.0,0.0,0.0,0.0,2.3552,2.5706,2.8672,3.0444,3.0893,3.0913,3.0913,3.0874,2.9135,2.6985,0.0,0.0,0.0,0.0,0.0,0.0,0.0,0.0,0.0,0.0,0.0,0.0,0.0,0.0,0.0,0.0,0.0,0.0,0.0,0.0,0.0,0.0,0.0,0.0,0.0,0.0,0.0,0.0,0.0,0.0,0.0,0.0,0.0,0.0,0.0,0.0,0.0,0.0,0.0,0.0,0.0,2.7636,2.8144,2.89,2.9701,0.0,2.9936,2.9545,2.9922,3.063,2.9913,2.6174,0.0,0.0,0.0,0.0,0.0,0.0,0.0,0.0,0.0,0.0,0.0,0.0,0.0,0.0,0.0,0.0,0.0,0.0,0.0,0.0,0.0,0.0,0.0,0.0,0.0,0.0,0.0,0.0,0.0,0.0,0.0,0.0,0.0,0.0,0.0,0.0,0.0,0.0,0.0,0.0,0.0,0.0,0.0,0.0,0.0,0.0,0.0,0.0,0.0,0.0,0.0,0.0,0.0,2.3848,2.5693,2.8951,3.0737,3.0893,3.0913,3.0913,3.0898,2.9453,2.7448,0.0,0.0,0.0,0.0,0.0,0.0,0.0,0.0,0.0,0.0,0.0,0.0,0.0,0.0,0.0,0.0,0.0,0.0,0.0,0.0,0.0,0.0,0.0,0.0,0.0,0.0,0.0,0.0,1.745,1.7927,1.755,0.0,0.0,0.0,0.0,0.0,0.0,0.0,0.0,0.0,0.0,2.8887,3.0098,3.0796,0.0,0.0,3.0981,3.082,3.0976,3.0376,2.9238,2.7246,2.5923,0.0,0.0,0.0,0.0,0.0,0.0,0.0,0.0,0.0,0.0,0.0,0.0,0.0,0.0,0.0,0.0,0.0,0.0,0.0,0.0,0.0,0.0,0.0,0.0,0.0,0.0,0.0,0.0,0.0,0.0,0.0,0.0,0.0,0.0,0.0,0.0,0.0,0.0,0.0,0.0,0.0,0.0,0.0,0.0,0.0,0.0,0.0,0.0,0.0,0.0,0.0,0.0,2.4152,2.6089,2.9258,3.0972,3.1089,3.0972,3.0913,3.0874,2.9712,2.7982,0.0,0.0,0.0,0.0,0.0,0.0,0.0,0.0,0.0,0.0,0.0,0.0,0.0,0.0,0.0,0.0,0.0,0.0,0.0,0.0,0.0,0.0,0.0,0.0,0.0,0.0,0.0,0.0,1.8485,1.8574,1.7726,0.0,0.0,0.0,0.0,0.0,0.0,0.0,0.0,0.0,0.0,3.0025,3.1504,3.1988,3.214,3.1899,3.1665,3.1508,3.1508,3.0689,2.9584,2.8126,0.0,0.0,0.0,0.0,0.0,0.0,0.0,0.0,0.0,0.0,0.0,0.0,0.0,0.0,0.0,0.0,0.0,0.0,0.0,0.0,0.0,0.0,0.0,0.0,0.0,0.0,0.0,1.4533,0.0,0.0,1.2942,0.0,0.0,0.0,0.0,0.0,0.0,0.0,0.0,0.0,0.0,0.0,0.0,0.0,0.0,0.0,0.0,0.0,0.0,0.0,0.0,0.0,0.0,2.4457,2.6953,2.957,3.1094,3.145,3.1094,3.0913,3.0893,3.0067,2.8582,2.6387,0.0,0.0,0.0,0.0,0.0,0.0,0.0,0.0,0.0,0.0,0.0,0.0,0.0,0.0,0.0,0.0,0.0,0.0,0.0,0.0,0.0,0.0,0.0,0.0,0.0,0.0,1.7461,1.7793,1.7737,0.0,0.0,0.0,0.0,0.0,0.0,0.0,0.0,0.0,2.7904,2.9746,3.1187,3.2061,3.2218,3.2378,3.2715,3.2055,3.1528,3.1567,3.2148,3.1699,0.0,0.0,0.0,0.0,0.0,0.0,0.0,0.0,0.0,0.0,0.0,0.0,0.0,0.0,0.0,0.0,0.0,0.0,0.0,0.0,0.0,0.0,0.0,0.0,0.0,0.0,0.0,1.8212,1.725,0.0,0.0,0.0,0.0,0.0,0.0,0.0,0.0,0.0,0.0,0.0,2.3647,2.4758,0.0,0.0,0.0,0.0,0.0,0.0,0.0,0.0,0.0,0.0,0.0,0.0,2.4719,2.7018,2.9849,3.1352,3.1489,3.1372,3.1157,3.0898,3.0312,2.8711,2.6035,0.0,0.0,0.0,0.0,0.0,0.0,0.0,0.0,0.0,0.0,0.0,0.0,0.0,0.0,0.0,0.0,0.0,0.0,0.0,0.0,0.0,0.0,0.0,0.0,0.0,1.867,0.0,0.0,0.0,0.0,0.0,0.0,0.0,0.0,0.0,0.0,2.5246,2.7337,2.9297,3.1069,3.2281,3.2554,3.3336,3.3727,0.0,0.0,0.0,0.0,0.0,0.0,0.0,0.0,0.0,0.0,0.0,0.0,0.0,0.0,3.3356,2.8386,2.722,2.7063,2.7187,0.0,0.0,0.0,0.0,0.0,0.0,0.0,0.0,0.0,0.0,0.0,0.0,0.0,0.0,2.1211,2.0391,1.9815,0.0,0.0,0.0,0.0,0.0,0.0,0.0,0.0,2.5117,2.6509,2.692,2.7877,2.7898,2.7033,2.6508,2.4562,0.0,0.0,0.0,0.0,0.0,0.0,0.0,0.0,2.5473,2.7871,3.0259,3.1645,3.1918,3.1665,3.1387,3.1113,3.0385,2.8984,2.6889,2.5445,2.4032,0.0,0.0,0.0,0.0,0.0,0.0,0.0,0.0,0.0,0.0,0.0,0.0,0.0,0.0,0.0,0.0,0.0,0.0,0.0,0.0,0.0,0.0,0.0,1.9521,0.0,0.0,0.0,0.0,0.0,0.0,0.0,0.0,0.0,2.5769,2.7656,2.9701,3.1523,3.2633,3.3316,3.3437,0.0,0.0,0.0,0.0,0.0,0.0,0.0,3.2609,3.3535,3.3027,3.2672,3.3219,3.531,3.6701,3.6116,0.0,0.0,3.2385,3.1206,3.105,3.1187,3.191,3.25,3.2621,3.359,3.4277,0.0,0.0,0.0,0.0,2.3965,0.0,0.0,0.0,2.4269,2.4054,0.0,2.3066,0.0,0.0,0.0,0.0,2.0938,2.3714,0.0,0.0,2.9394,3.0639,3.0273,3.0678,3.0872,3.0764,3.0779,2.9693,2.737,2.268,0.0,0.0,0.0,0.0,0.0,0.0,2.6659,2.95,3.0898,3.1953,3.275,3.1977,3.1528,3.1469,3.0307,2.9442,2.8918,2.8138,2.6568,2.4043,2.2678,0.0,0.0,0.0,0.0,0.0,0.0,0.0,0.0,0.0,0.0,0.0,0.0,0.0,0.0,0.0,0.0,0.0,0.0,0.0,0.0,1.9736,0.0,0.0,0.0,0.0,0.0,0.0,0.0,0.0,0.0,2.9824,2.8769,3.0371,3.2367,3.4394,0.0,0.0,0.0,0.0,3.4352,3.4766,3.5195,3.5508,3.5508,3.6445,3.6814,3.5703,0.0,0.0,3.5893,3.732,3.8218,3.6577,3.8088,3.9202,3.8777,3.7064,3.6147,3.6556,3.605,3.5725,3.6135,3.6914,3.748,3.0215,0.0,0.0,0.0,0.0,2.7278,2.8301,3.0332,2.9311,2.8334,2.7389,2.6562,0.0,0.0,0.0,0.0,0.0,0.0,2.6966,2.8699,2.9877,3.0835,3.1616,3.1753,3.1813,3.1766,3.1722,3.1207,3.0244,2.8427,2.5363,2.126,0.0,0.0,0.0,0.0,2.8495,3.0028,3.1616,3.2559,3.2808,3.2559,3.2114,3.1508,3.0859,3.0307,2.9844,2.933,2.8439,2.7044,2.4883,0.0,0.0,0.0,0.0,0.0,0.0,0.0,0.0,0.0,0.0,0.0,0.0,0.0,0.0,0.0,0.0,0.0,0.0,0.0,2.0537,2.1074,2.1562,0.0,0.0,0.0,0.0,0.0,0.0,0.0,0.0,0.0,3.3675,3.4062,3.4375,0.0,0.0,3.5374,3.5234,3.5876,3.6523,3.6934,3.7363,0.0,3.7674,3.7225,3.7146,3.7969,3.9024,3.9782,3.9941,4.0491,4.0922,4.0986,4.1557,4.2035,4.212,4.0102,3.8693,3.9188,3.9205,3.9278,4.0,4.0567,4.0937,3.4101,3.1499,3.0137,3.0254,3.1319,3.0815,3.1636,3.3277,3.2496,3.1714,3.0918,3.0249,2.8789,2.6816,2.606,0.0,0.0,0.0,2.9676,3.1382,3.1651,3.2337,3.3379,3.3434,3.3575,3.3784,3.3463,3.321,3.31,3.2268,2.9856,2.5992,0.0,2.6455,2.615,2.8514,3.0233,3.1191,3.238,3.3011,3.3047,3.2871,3.248,3.1797,3.1538,3.1191,3.0742,3.0483,2.9863,2.8842,2.6992,2.4941,0.0,0.0,0.0,0.0,0.0,0.0,0.0,0.0,0.0,0.0,0.0,1.7609,1.5817,0.0,0.0,0.0,2.0322,2.1923,2.3357,2.4051,0.0,0.0,0.0,0.0,0.0,0.0,0.0,3.2476,3.4316,3.5842,3.6877,3.7129,3.7012,3.6543,3.6643,3.6779,3.6894,0.0,3.7949,3.8359,3.9074,3.9577,3.9576,3.9251,3.9321,4.0291,4.0886,4.1477,4.2184,4.2302,4.2559,4.3194,4.3512,4.3711,4.3994,4.2486,4.1333,4.1702,4.1751,4.1973,4.2526,4.2764,4.2922,3.7303,3.6792,3.4766,3.4062,3.4293,3.431,3.4329,3.4368,3.4313,3.4271,3.4173,3.373,3.2801,3.1587,3.0424,0.0,3.1172,3.2013,3.3007,3.4202,3.4218,3.4627,3.5312,3.5328,3.5673,3.6253,3.5609,3.5454,3.5647,3.4587,3.3432,3.2273,3.0646,3.0106,3.0638,3.1164,3.1885,3.2763,3.317,3.3401,3.3477,3.3086,3.2675,3.2229,3.219,3.194,3.1469,3.1465,3.0918,2.9741,2.8828,2.7051,2.425,0.0,0.0,0.0,0.0,0.0,0.0,0.0,0.0,0.0,0.0,0.0,0.0,0.0,0.0,2.2237,2.3739,0.0,2.6999,2.793,0.0,0.0,0.0,3.0151,3.0738,3.291,3.4701,3.5564,0.0,0.0,3.8749,3.949,3.9881,3.9414,3.8614,3.8341,3.9141,3.8962,3.8922,3.9409,4.0416,4.1195,4.1136,4.1661,4.207,4.2151,4.2428,4.259,4.3011,4.3192,4.3373,4.3935,4.4254,4.4512,4.4533,4.4492,4.4434,4.3936,4.3778,4.3738,4.3838,4.3839,4.3839,3.9219,3.9082,3.8574,3.7461,3.6089,3.6089,3.6247,3.6484,3.6226,3.57,3.5075,3.4573,3.3851,3.2934,3.2621,3.2793,3.3352,3.382,3.4381,3.5007,3.5286,3.5508,3.569,3.569,3.5771,3.5913,3.5989,3.6078,3.6174,3.6093,3.5957,3.5603,3.4841,3.3337,3.1204,3.2734,3.3553,3.3527,3.3917,3.4151,3.4137,3.3769,3.3253,3.2592,3.2226,3.1732,3.1069,3.1035,3.0898,3.0581,2.94,2.8144,2.6822,2.3769,0.0,0.0,0.0,0.0,0.0,0.0,0.0,0.0,0.0,2.3194,1.9315,0.0,2.5293,0.0,2.6647,2.8014,2.8411,2.9238,0.0,0.0,3.2773,3.3441,3.5786,3.6348,3.6875,3.7733,3.8885,3.9707,4.0019,4.0814,4.1186,4.078,3.998,3.9512,3.9726,4.0205,4.0669,4.1102,4.1666,4.2075,4.2113,4.2251,4.2408,4.2389,4.271,4.3069,4.3502,4.3847,4.4331,4.5078,4.532,4.5504,4.5753,4.5856,4.5795,4.5633,4.4925,4.4341,4.4643,4.4703,4.4683,4.0078,3.9883,3.9883,3.9199,3.8104,3.7908,3.7715,3.7559,3.7324,3.6855,3.6228,3.5798,3.5195,3.4573,3.4554,3.4671,3.4926,3.5267,3.5686,3.6107,3.6305,3.6453,3.6602,3.6602,3.67,3.6865,3.7045,3.7127,3.7143,3.7137,3.7094,3.7094,3.6639,3.551,3.3803,3.4436,3.4616,3.4292,3.4349,3.4392,3.4372,3.4,3.3497,3.2894,3.262,3.2012,3.1029,3.0874,3.0645,3.0218,2.9209,2.8353,2.7682,2.552,2.3663,0.0,0.0,0.0,0.0,0.0,0.0,0.0,0.0,0.0,0.0,0.0,2.7786,2.7708,2.9654,3.1138,3.1738,3.3086,3.4606,3.6267,3.6367,3.7042,3.887,3.9006,3.9334,4.017,4.0573,4.0891,4.13,4.1614,4.1792,4.1734,4.1318,4.0945,4.0831,4.1276,4.1783,4.2061,4.2409,4.2755,4.2888,4.2926,4.2987,4.3212,4.3455,4.3839,4.4464,4.4791,4.5199,4.5791,4.5954,4.6037,4.6265,4.6307,4.6307,4.6205,4.5757,4.5372,4.5515,4.5576,4.5576,4.098,4.0661,4.0435,4.034,4.0224,3.9624,3.8887,3.8068,3.8009,3.7791,3.7432,3.7021,3.6612,3.6243,3.6252,3.6167,3.6099,3.6464,3.6823,3.7163,3.7213,3.7398,3.7666,3.7686,3.787,3.8208,3.8208,3.8208,3.8187,3.7777,3.7591,3.7587,3.7115,3.6887,3.6846,3.6023,3.5407,3.505,3.4708,3.4532,3.4512,3.4124,3.368,3.3196,3.3054,3.236,3.1075,3.0849,3.037,2.9575,2.8928,2.8446,2.8067,2.7167,2.6052,0.0,2.4366,0.0,0.0,0.0,0.0,0.0,0.0,0.0,0.0,2.954,3.0576,3.0776,3.2758,3.4547,3.5709,3.7588,3.8821,3.8938,3.9623,4.0263,4.0643,4.0998,4.1566,4.231,4.2081,4.2004,4.2273,4.214,4.2101,4.2312,4.2445,4.2328,4.2062,4.2215,4.2446,4.2485,4.2812,4.3176,4.3462,4.3577,4.3702,4.4154,4.4323,4.4711,4.5479,4.5726,4.5892,4.6203,4.6265,4.6286,4.6307,4.6307,4.6307,4.6307,4.6308,4.6349,4.635,4.635,4.641,4.483,4.4654,4.3359,4.2645,4.2223,4.0862,3.9747,3.8926,3.8612,3.8383,3.8238,3.7858,3.7621,3.7557,3.7474,3.7257,3.6952,3.725,3.7431,3.7532,3.7837,3.8041,3.8071,3.8087,3.8125,3.8208,3.8208,3.8208,3.8208,3.8109,3.8063,3.8042,3.7607,3.7363,3.7343,0.0,0.0,0.0,3.5433,3.5216,3.5196,3.4799,3.4256,3.3535,3.2807,0.0,3.0627,3.0838,3.0784,3.0255,3.0244,0.0,0.0,0.0,0.0,0.0,0.0,0.0,0.0,0.0,0.0,0.0,3.1949,3.1495,2.998,3.318,3.4955,3.4023,3.615,3.7718,3.7993,3.8945,3.9859,4.0549,4.1051,4.1404,4.1552,4.1921,4.2232,4.235,4.2331,4.2312,4.2428,4.2601,4.2679,4.2565,4.2964,4.3195,4.2853,4.2872,4.2889,4.2908,4.3235,4.3481,4.3596,4.3635,4.3844,4.4215,4.4649,4.5083,4.5622,4.5975,4.6162,4.6307,4.6307,4.6307,4.6307,4.6307,4.6307,4.6307,4.6596,4.6865,4.6865,4.6865,4.6968,4.5896,4.5803,4.502,4.4573,0.0,4.3474,4.2856,4.2358,4.0915,4.0632,4.113,3.9297,3.8904,3.9524,3.856,3.8119,3.8102,3.822,3.8374,3.8579,3.9488,3.9416,3.8523,3.9251,3.9201,3.8519,3.8295,3.8295,3.8485,3.8295,3.8208,3.8208,3.7943,3.7839,3.7835,3.7384,3.6929,3.6453,3.5981,3.5733,3.5718,3.5138,3.4497,3.3864,3.3199,0.0,0.0,0.0,0.0,0.0,0.0,0.0,0.0,0.0,0.0,3.1028,3.1147,3.1256,3.143,3.2548,3.3744,3.4871,3.6153,3.6047,3.4147,3.6426,3.7838,3.7619,3.8972,3.9847,3.9867,4.059,4.1167,4.1434,4.1799,4.2128,4.2369,4.2582,4.2793,4.2926,4.2811,4.2816,4.329,4.3332,4.3472,4.3655,4.3821,4.3973,4.3924,4.3578,4.3291,4.3291,4.3649,4.3927,4.3967,4.4174,4.4443,4.4918,4.5187,4.5498,4.5933,4.6182,4.6307,4.6307,4.6307,4.6307,4.6307,4.6307,4.6307,4.6348,4.6679,4.7072,4.7279,4.7361,4.7403,4.6876,4.6912,4.6636,4.6526,4.6481,4.6152,4.6144,4.6208,4.3749,0.0,0.0,4.1148,4.0625,4.1744,4.0014,3.9447,3.9879,3.9881,3.9994,4.0319,4.1537,4.1101,3.9432,4.0545,4.0499,3.931,3.8719,3.874,3.9276,3.874,3.8528,3.8662,3.8758,3.8908,3.9035,3.8554,3.8039,3.7403,3.6642,3.6209,3.6188,3.5433,3.4848,3.4475,3.3936,3.3259,3.2408,3.1909,3.1442,3.0997,3.0953,3.1422,3.2507,3.2942,3.3846,3.5308,3.5929,3.6269,3.6352,3.7297,3.7938,3.8093,3.9432,3.9754,3.8558,3.9185,3.9986,4.0792,4.1138,4.1369,4.1445,4.2072,4.237,4.2062,4.2431,4.2856,4.3069,4.3203,4.3399,4.3707,4.3496,4.3541,4.4263,4.4151,4.4157,4.4738,4.461,4.4546,4.4795,4.4321,4.3888,4.3928,4.4216,4.4422,4.4484,4.4691,4.5187,4.5539,4.5663,4.585,4.6183,4.6307,4.6307,4.6307,4.6307,4.6307,4.6307,4.6307,4.6327,4.641,4.6803,4.7258,4.7693,4.79,4.7983,5.0606,5.086,4.9474,4.8912,4.8781,4.7422,4.7525,4.8422,4.6199,4.5239,4.5178,4.3472,4.328,4.4136,4.2567,4.2382,4.3276,4.3228,4.3229,4.3301,4.3493,4.2792,4.1328,4.1513,4.1513,4.121,3.9967,4.0001,4.1041,3.9984,3.9702,4.0487,4.0973,4.1584,4.2292,4.1858,4.0941,3.972,3.7728,3.6701,3.6701,3.6183,3.5894,3.579,3.5019,3.4365,3.3838,3.4093,3.4057,3.3629,3.441,3.4962,3.5146,3.5523,3.5945,3.6325,3.7307,3.7947,3.8142,3.9537,4.072,4.1518,4.1885,4.1636,4.0779,4.1082,4.1564,4.2066,4.2185,4.2362,4.2693,4.2829,4.2909,4.2872,4.3544,4.3924,4.3673,4.3906,4.4242,4.467,4.4404,4.4284,4.4775,4.4839,4.4841,4.4961,4.5043,4.494,4.4981,4.4898,4.4795,4.4814,4.4836,4.4898,4.4919,4.494,4.525,4.5602,4.5725,4.5871,4.6224,4.6307,4.6307,4.6307,4.6307,4.6307,4.6327,4.6307,4.6493,4.6823,4.7299,4.7776,4.8316,4.8711,4.8917,5.1446,5.1716,5.1018,5.0712,5.0659,5.0151,5.0396,5.1052,5.0065,4.9235,4.839,4.5954,4.5495,4.644,4.4732,4.4182,4.4645,4.4624,4.4599,4.4666,4.5431,4.491,4.3443,4.403,4.402,4.3253,4.2332,4.237,4.3113,4.232,4.211,4.2539,4.2775,4.3122,4.3476,4.3263,4.2671,4.1752,3.9453,3.791,3.721,3.6722,3.6494,3.6473,3.5847,3.5412,3.5205,3.5392,3.5412,3.5205,3.6119,3.6797,3.7044,3.7443,3.8035,3.8835,3.9381,3.9932,4.0515,4.1425,4.226,4.2957,4.302,4.2881,4.2506,4.2631,4.2816,4.3021,4.306,4.3022,4.3023,4.3195,4.3355,4.3391,4.3943,4.4324,4.4415,4.4574,4.4753,4.494,4.4815,4.4857,4.5332,4.5394,4.5478,4.5644,4.5706,4.5623,4.5435,4.5561,4.554,4.5146,4.5208,4.5373,4.5394,4.5581,4.5768,4.5996,4.6037,4.6099,4.6286,4.6307,4.6327,4.6307,4.6327,4.641,4.6637,4.6659,4.6886,4.7279,4.7755,4.84,4.9447,5.0186,5.0167,5.1621,5.2064,5.2047,5.2047,5.2082,5.2394,5.2671,5.2895,5.2861,5.2435,5.1287,4.8341,4.7643,4.8497,4.6755,4.6031,4.6167,4.6201,4.6217,4.6318,4.7375,4.6961,4.5455,4.639,4.6292,4.5236,4.4533,4.4539,4.509,4.4533,4.4381,4.4654,4.4755,4.4863,4.5004,4.4561,4.4126,4.3627,4.1569,3.9832,3.8587,3.8438,3.8219,3.7705,3.7511,3.7204,3.6919,3.7172,3.7204,3.6961,3.7981,3.8678,3.8805,3.9209,3.9954,4.1084,4.1294,4.1708,4.2495,4.289,4.3203,4.3554,4.3615,4.3615,4.3615,4.3615,4.3615,4.3615,4.3577,4.3443,4.3253,4.3386,4.3667,4.3831,4.4188,4.4651,4.5083,4.5166,4.5228,4.5271,4.5228,4.5332,4.5705,4.583,4.5934,4.6183,4.6307,4.6162,4.5954,4.612,4.5955,4.5603,4.5623,4.5809,4.585,4.6058,4.6245,4.6307,4.6286,4.6265,4.6367,4.6528,4.6975,4.7198,4.7561,4.8095,4.8296,4.8016,4.8123,4.8502,4.8526,4.8923,5.066,5.173,5.1431,5.2169,5.274,5.2774,5.2809,5.2774,5.2826,5.2861,5.2895,5.2895,5.2845,5.2448,5.0482,4.9765,4.9958,4.8648,4.8397,4.909,4.9186,4.9121,4.9105,4.9332,4.8591,4.723,4.7296,4.7287,4.6957,4.5836,4.5906,4.6983,4.5819,4.5779,4.6979,4.7387,4.7744,4.8038,4.652,4.5638,4.5622,4.4117,4.2814,4.1897,4.273,4.2376,4.0557,4.0905,4.0539,3.9252,4.0472,4.0534,3.9469,4.0925,4.1542,4.0855,4.112,4.1599,4.2211,4.2571,4.2934,4.3446,4.3513,4.3648,4.3594,4.3691,4.3653,4.3615,4.3615,4.3615,4.3615,4.3615,4.3577,4.3558,4.3597,4.3804,4.4222,4.4653,4.5105,4.5539,4.5643,4.5788,4.6141,4.6009,4.5828,4.6321,4.6283,4.6224,4.6286,4.6528,4.6568,4.6526,4.6707,4.677,4.6464,4.6345,4.6365,4.6405,4.6265,4.6609,4.6528,4.6407,4.669,4.7051,4.7851,4.8694,4.9199,5.0265,5.1134,5.1423,5.1224,5.0185,5.0475,5.0052,4.9323,5.1192,5.2923,5.2761,5.2446,5.2878,5.2895,5.2895,5.2895,5.2895,5.2895,5.2895,5.2895,5.2895,5.2818,5.2017,5.1582,5.1348,5.0447,5.0273,5.0594,5.0594,5.0393,5.0092,5.0051,4.9566,4.8771,4.8722,4.8698,4.869,4.8052,4.8101,4.8485,4.8092,4.8117,4.8657,4.8832,4.9053,4.9197,4.8469,4.7899,4.7619,4.7344,4.6673,4.5468,4.3591,4.2232,4.151,4.1597,4.147,4.0954,4.1663,4.2223,4.2488,4.3033,4.3521,4.3981,4.4458,4.4945,4.5395,4.5863,4.6179,4.6359,4.6381,4.5974,4.5044,4.4969,4.4593,4.3691,4.3615,4.3615,4.3615,4.3615,4.3615,4.3635,4.3844,4.4215,4.467,4.5126,4.5641,4.5996,4.6957,4.7598,4.7769,4.7641,4.7596,4.7568,4.6891,4.6367,4.6448,4.7051,4.7772,4.781,4.8605,4.9214,4.9231,4.9231,4.8761,4.8049,4.777,4.8168,4.8919,4.9253,4.9253,4.9253,4.9643,5.0445,5.0979,5.1855,5.2651,5.3007,5.2942,5.2374,5.2614,5.3592,5.3254,5.2034,5.3911,5.4319,5.2602,5.2861,5.2895,5.2895,5.2895,5.2895,5.2895,5.2895,5.2895,5.2895,5.2895,5.2895,5.2686,5.2302,5.1766,5.1465,5.1314,5.1289,5.1088,5.0695,5.0645,5.0444,5.0092,5.0042,5.0058,5.0042,5.0043,5.0051,5.0042,4.9866,4.9816,4.9791,4.9665,4.959,4.9542,4.9242,4.9019,4.9015,4.9051,4.8763,4.7914,4.5026,4.3208,4.3079,4.3186,4.3153,4.2938,4.3611,4.4375,4.5191,4.5277,4.5678,4.6408,4.6506,4.6646,4.7091,4.7454,4.7863,4.8244,4.8299,4.7608,4.6137,4.5896,4.5269,4.3974,4.3615,4.3803,4.4277,4.4218,4.4182,4.3675,4.443,4.516,4.5621,4.6398,4.72,4.7745,4.884,4.9467,4.9467,4.9464,4.9489,4.9253,4.8168,4.7232,4.791,4.8781,4.9489,4.9607,5.0443,5.1178,5.1313,5.1255,5.0772,4.9721,4.9489,5.017,5.0714,5.1062,5.0985,5.1428,5.1543,5.217,5.2651,5.3128,5.3982,5.5188,5.5158,5.4193,5.4584,5.5413,5.5691,5.3236,5.5433,5.6139,5.2602,5.2878,5.2895,5.2895,5.2895,5.2895,5.2895,5.2895,5.2895,5.2895,5.2895,5.2895,5.287,5.2812,5.2302,5.1791,5.1389,5.1389,5.1339,5.1264,5.1264,5.1239,5.1239,5.1214,5.1188,5.1088,5.1063,5.1113,5.113,5.0645,5.0377,5.0327,4.9891,4.9615,4.9495,4.8453,4.8273,4.9389,4.8535,4.8256,4.9192,4.7929,4.6832,4.6481,4.6801,4.6553,4.6115,4.7244,4.7627,4.6831,4.7965,4.8404,4.7557,4.6366,4.5958,4.6175,4.6171,4.682,4.8081,4.8389,4.7736,4.6304,4.623,4.5397,4.4256,4.4088,4.4595,4.5676,4.5847,4.5349,4.4418,4.5747,4.6841,4.7354,4.9102,5.0211,5.0743,5.0617,5.1139,5.1101,5.1101,5.1062,5.1062,4.9741,4.9528,5.0306,5.1043,5.1178,5.1236,5.137,5.1678,5.1716,5.1658,5.1332,5.1236,5.1178,5.1236,5.1946,5.2385,5.1697,5.1946,5.2412,5.3485,5.4653,5.5866,5.692,5.7795,5.7404,5.6065,5.5919,5.6399,5.5979,5.4583,5.7198,5.7854,5.311,5.2895,5.2895,5.2895,5.2895,5.2895,5.2895,5.2895,5.2895,5.2895,5.2895,5.2895,5.2895,5.2887,5.2711,5.2511,5.2327,5.2335,5.2134,5.185,5.18,5.1641,5.1314,5.1289,5.1289,5.1289,5.1289,5.1289,5.1289,5.1071,5.077,5.0427,5.0201,5.0101,5.0003,4.9602,4.9793,5.0521,5.0116,5.0166,5.0562,5.0166,4.9793,4.957,4.8528,4.7825,4.7526,4.8369,4.8598,4.8191,4.9101,4.944,4.916,4.9768,4.9742,4.9009,4.893,4.8727,4.848,4.9236,4.911,4.7736,4.8366,4.8154,4.6967,4.664,4.6879,4.7361,4.7778,4.7581,4.7489,4.8108,4.8768,4.9092,5.019,5.0795,5.0164,5.0598,5.1313,5.1447,5.2099,5.248,5.1601,5.0772,5.0656,5.1236,5.2175,5.2745,5.3029,5.3675,5.4236,5.4391,5.4447,5.4447,5.4423,5.3407,5.3086,5.405,5.454,5.4527,5.4682,5.4874,5.5785,5.6172,5.7706,5.8326,5.8654,5.8699,5.7475,5.6837,5.7356,5.7317,5.6319,5.807,5.8525,5.3507,5.3163,5.297,5.2895,5.2895,5.2895,5.2895,5.2895,5.2895,5.2895,5.2895,5.2895,5.2895,5.2895,5.2895,5.2895,5.2895,5.2895,5.2711,5.236,5.2377,5.2159,5.1875,5.1841,5.1825,5.1825,5.18,5.1825,5.18,5.1624,5.1348,5.0979,5.0795,5.0678,5.0695,5.0678,5.0921,5.1239,5.1289,5.1289,5.1289,5.1289,5.1289,5.113,5.0145,4.9517,4.9534,4.9859,5.0118,5.0237,5.063,5.0635,5.0311,5.1376,5.1712,5.0769,5.0576,5.0434,5.0026,5.0752,5.0664,4.9236,4.9896,4.9949,4.8534,4.8299,4.8585,4.9132,4.9611,4.9977,5.0806,5.1342,5.141,5.1189,5.2057,5.2399,5.1424,5.227,5.2859,5.3134,5.3503,5.3546,5.3025,5.2629,5.2644,5.2793,5.39,5.4441,5.4708,5.538,5.6219,5.6219,5.5992,5.5901,5.581,5.5071,5.4582,5.5405,5.6116,5.6468,5.6602,5.7004,5.738,5.7857,5.8353,5.888,5.9232,5.9452,5.8895,5.7952,5.8129,5.8344,5.8109,5.8246,5.8422,5.3708,5.3557,5.3138,5.2895,5.2895,5.2895,5.2895,5.2895,5.2895,5.2895,5.2895,5.2895,5.2895,5.2895,5.2895,5.2895,5.2895,5.2895,5.287,5.282,5.282,5.282,5.2744,5.2719,5.2719,5.2719,5.282,5.282,5.2719,5.231,5.2076,5.195,5.1498,5.1289,5.1314,5.1289,5.1314,5.144,5.149,5.1414,5.1314,5.144,5.1465,5.1465,5.1682,5.1881,5.1932,5.1957,5.2046,5.2419,5.264,5.2112,5.095,5.0963,5.0734,5.0664,5.0611,5.1303,5.2258,5.2404,5.1729,5.0741,5.0628,5.0364,4.9353,4.8998,4.9636,5.1076,5.1573,5.2215,5.3942,5.4626,5.4411,5.3582,5.4555,5.5453,5.5509,5.5882,5.6054,5.5651,5.5148,5.5133,5.5584,5.5086,5.4789,5.5374,5.5772,5.5864,5.5791,5.6047,5.6182,5.6251,5.6251,5.6244,5.6401,5.6565,5.6403,5.6465,5.7068,5.7524,5.7323,5.7481,5.7807,5.8252,5.8604,5.9081,5.9332,5.9527,5.9527,5.8915,5.927,5.9154,5.8876,5.8642,5.8442,5.3876,5.3163,5.2988,5.2895,5.2895,5.2895,5.2895,5.2895,5.2895,5.2895,5.2895,5.2895,5.2895,5.2895,5.2895,5.2895,5.2895,5.2895,5.2895,5.2895,5.2895,5.2895,5.2895,5.2895,5.2895,5.2895,5.2895,5.2895,5.2845,5.2719,5.2485,5.2126,5.195,5.185,5.1867,5.1867,5.2,5.236,5.2385,5.2385,5.241,5.2385,5.2385,5.241,5.2586,5.2661,5.2661,5.2661,5.223,5.1478,5.2327,5.2663,5.2258,5.2189,5.1677,5.0752,5.0611,5.0186,4.9902,5.0811,5.1292,5.0983,5.1873,5.2474,5.2153,5.227,5.2753,5.3559,5.3927,5.4544,5.5074,5.5616,5.5513,5.4782,5.5594,5.5754,5.4998,5.4676,5.4674,5.5165,5.5761,5.6383,5.6606,5.629,5.6241,5.6199,5.6294,5.6294,5.6244,5.6344,5.642,5.6652,5.6477,5.6451,5.6778,5.7054,5.7079,5.7104,5.765,5.8033,5.7882,5.8033,5.8328,5.8579,5.893,5.9176,5.9427,5.9527,5.9527,5.9527,5.9425,5.9192,5.8901,5.874,5.8681,5.4177,5.3507,5.3071,5.2895,5.2895,5.2895,5.2895,5.2895,5.2895,5.2895,5.2895,5.2895,5.2895,5.2895,5.2895,5.2895,5.2895,5.2895,5.2895,5.2895,5.2895,5.2895,5.2895,5.2895,5.2895,5.2895,5.2895,5.2895,5.2895,5.2895,5.2737,5.2435,5.2385,5.2385,5.2402,5.241,5.2586,5.287,5.287,5.2895,5.2895,5.2895,5.2895,5.2895,5.2895,5.2895,5.2895,5.2895,5.2473,5.1782,5.2439,5.2861,5.2895,5.2843,5.2473,5.1747,5.1432,5.113,5.0496,5.1497,5.1869,5.2284,5.3317,5.3992,5.4084,5.4429,5.4647,5.4949,5.5121,5.5483,5.5698,5.6175,5.6301,5.605,5.6082,5.5854,5.5021,5.4926,5.5246,5.605,5.693,5.7393,5.7387,5.7556,5.738,5.6953,5.6828,5.6828,5.6828,5.6872,5.7054,5.7204,5.7173,5.7198,5.7305,5.7506,5.7637,5.7807,5.8077,5.8259,5.8259,5.8635,5.9006,5.9031,5.9282,5.9326,5.9527,5.9527,5.9527,5.9527,5.9552,5.9347,5.9173,5.9251,5.9281,5.4622,5.4471,5.3439,5.302,5.2995,5.297,5.2945,5.2895,5.2895,5.2895,5.2895,5.2895,5.2895,5.2895,5.2895,5.2895,5.2895,5.2895,5.2895,5.2895,5.2895,5.2895,5.2895,5.2895,5.2895,5.2895,5.2895,5.2895,5.2895,5.2895,5.2895,5.282,5.282,5.287,5.282,5.287,5.2845,5.287,5.2895,5.2895,5.2895,5.2895,5.2895,5.2895,5.2895,5.2895,5.2895,5.2895,5.2895,5.2861,5.2843,5.292,5.2962,5.2945,5.2961,5.2923,5.2986,5.3158,5.3493,5.34,5.3716,5.4141,5.438,5.4647,5.4655,5.4898,5.5207,5.5559,5.5709,5.591,5.6351,5.6753,5.7004,5.7004,5.6702,5.6567,5.6941,5.6924,5.705,5.7644,5.8334,5.851,5.7983,5.8328,5.8252,5.7926,5.7706,5.7675,5.7675,5.76,5.7826,5.7826,5.775,5.7775,5.7832,5.7732,5.7907,5.819,5.8409,5.856,5.871,5.9087,5.9357,5.9408,5.9483,5.9508,5.9527,5.9527,5.9608,5.9734,5.9684,5.9578,5.9653,5.9829,5.9929,5.4974,5.4572,5.4278,5.3901,5.3532,5.3507,5.3264,5.292,5.292,5.292,5.2895,5.2895,5.2895,5.2895,5.2895,5.2895,5.2895,5.2895,5.2895,5.2895,5.2895,5.2895,5.2895,5.2895,5.2895,5.2895,5.2895,5.2895,5.2895,5.2895,5.2895,5.2895,5.2895,5.2895,5.2895,5.2895,5.2895,5.2895,5.2895,5.2895,5.2895,5.2895,5.2895,5.2895,5.292,5.292,5.2895,5.2895,5.2895,5.2895,5.2895,5.3088,5.3457,5.3507,5.3658,5.4002,5.4102,5.4177,5.4303,5.4353,5.4471,5.4579,5.5056,5.5182,5.5232,5.5942,5.6351,5.6652,5.6947,5.7223,5.7424,5.7575,5.7631,5.765,5.7549,5.7499,5.7625,5.7675,5.7901,5.8384,5.8629,5.8604,5.8604,5.8604,5.8579,5.8127,5.8001,5.8001,5.8102,5.8102,5.8202,5.8278,5.8252,5.8278,5.8252,5.8102,5.8158,5.8466,5.8736,5.893,5.9106,5.9382,5.9458,5.9502,5.9608,5.9684,5.9583,5.9533,5.9709,6.0085,5.9885,5.9834,6.0331,6.0563,6.0582,5.5189,5.4924,5.4697,5.4396,5.4084,5.4077,5.3901,5.3607,5.3339,5.3239,5.3188,5.2988,5.2895,5.2895,5.2895,5.2895,5.2895,5.2895,5.2895,5.2895,5.2895,5.2895,5.2895,5.2895,5.2895,5.2895,5.2895,5.2895,5.2895,5.2895,5.2895,5.2895,5.2895,5.2895,5.2895,5.2895,5.2895,5.2895,5.2895,5.2895,5.2895,5.2895,5.2895,5.2945,5.3088,5.3314,5.3557,5.3632,5.3515,5.3314,5.3264,5.3507,5.3984,5.4059,5.4228,5.4597,5.4597,5.4655,5.4898,5.4931,5.5056,5.529,5.5767,5.6,5.6244,5.6878,5.738,5.7405,5.775,5.7851,5.7932,5.8102,5.8309,5.8529,5.8579,5.8478,5.8278,5.8208,5.8504,5.8855,5.905,5.905,5.9056,5.9031,5.888,5.8704,5.8679,5.8654,5.8654,5.8579,5.8554,5.8679,5.8805,5.8855,5.8905,5.8805,5.8981,5.9238,5.9514,5.9633,5.9684,5.9834,5.9759,5.9784,5.9809,5.9859,5.9859,5.9985,6.0406,6.0557,6.0286,6.0362,6.0839,6.1065,6.111,5.5465,5.544,5.4956,5.473,5.4697,5.468,5.4597,5.4471,5.4009,5.3808,5.3683,5.3221,5.3063,5.297,5.2945,5.2895,5.2895,5.2895,5.2895,5.2895,5.2895,5.2895,5.2895,5.2895,5.2895,5.2895,5.2895,5.2895,5.2895,5.2895,5.2895,5.2895,5.2895,5.2895,5.2895,5.2895,5.2895,5.2895,5.2895,5.2895,5.2895,5.2895,5.2895,5.2945,5.3389,5.3884,5.4303,5.4454,5.4328,5.3909,5.3833,5.4127,5.4579,5.4655,5.4755,5.483,5.4956,5.515,5.5483,5.5641,5.5842,5.6344,5.6803,5.7085,5.7154,5.7606,5.7976,5.7976,5.8027,5.8202,5.8278,5.8585,5.8981,5.9307,5.9477,5.9433,5.9012,5.8861,5.9037,5.9433,5.9527,5.9578,5.9527,5.9527,5.9477,5.9131,5.9131,5.9106,5.9106,5.9081,5.9151,5.9251,5.9357,5.9458,5.9508,5.9558,5.9859,6.0141,6.0487,6.0613,6.0468,6.0468,6.0261,6.0211,6.0362,6.0437,6.0437,6.0688,6.1059,6.1135,6.0914,6.109,6.1386,6.1416,6.1461,5.6043,5.6,5.5917,5.5616,5.5257,5.5232,5.4999,5.4622,5.4479,5.4403,5.4278,5.3783,5.3532,5.349,5.3113,5.2895,5.2895,5.2895,5.2895,5.2895,5.2895,5.2895,5.2895,5.292,5.2895,5.2895,5.2895,5.2895,5.2895,5.2895,5.2895,5.2895,5.2895,5.2895,5.2895,5.2895,5.2895,5.2895,5.2895,5.292,5.2945,5.2945,5.297,5.3071,5.3532,5.4009,5.4454,5.4597,5.473,5.4856,5.4705,5.478,5.5132,5.5257,5.5458,5.5717,5.5867,5.6093,5.6502,5.6652,5.6903,5.7349,5.7531,5.7725,5.775,5.8208,5.8485,5.861,5.8905,5.9031,5.9131,5.9633,5.9784,5.9834,6.0261,6.0537,6.0111,5.994,5.9859,5.9709,5.991,5.9985,5.9608,5.9653,5.9628,5.9552,5.9552,5.9527,5.9578,5.9653,5.9703,5.9809,5.9859,5.996,6.0136,6.0261,6.0588,6.0914,6.1266,6.1517,6.1371,6.1195,6.102,6.0964,6.1009,6.1014,6.0989,6.114,6.1436,6.1492,6.1592,6.1768,6.1893,6.1868,6.1893,5.6426,5.6219,5.6219,5.6025,5.581,5.5767,5.5591,5.5333,5.5056,5.4981,5.4856,5.4361,5.3976,5.3683,5.3389,5.3188,5.292,5.2895,5.3063,5.3163,5.3088,5.302,5.3188,5.302,5.2895,5.2895,5.2895,5.2895,5.2895,5.2895,5.2895,5.2895,5.2895,5.2895,5.2895,5.2895,5.2895,5.2895,5.2895,5.2995,5.3239,5.3264,5.364,5.3966,5.4361,5.4762,5.5333,5.5383,5.5491,5.5666,5.5717,5.5691,5.5799,5.6018,5.6301,5.6527,5.6878,5.7054,5.7355,5.743,5.7531,5.7882,5.8127,5.8252,5.8403,5.878,5.9056,5.9131,5.9332,5.9558,5.9859,6.0387,6.0487,6.0487,6.0814,6.1014,6.0788,6.0713,6.0638,6.0406,6.0563,6.0563,6.0387,6.018,6.0256,6.0406,6.001,6.001,6.0306,6.0356,6.0286,6.0337,6.0362,6.0487,6.0758,6.0964,6.1271,6.1592,6.1918,6.2144,6.2199,6.2024,6.1868,6.1743,6.1567,6.1567,6.1592,6.1718,6.1893,6.2119,6.2275,6.24,6.2425,6.2325,6.2375,5.6734,5.6319,5.6226,5.6219,5.6219,5.6194,5.6168,5.6075,5.5735,5.5516,5.5408,5.4974,5.4479,5.4077,5.3884,5.354,5.3289,5.3071,5.3339,5.3775,5.3163,5.3339,5.3557,5.3389,5.3071,5.302,5.292,5.2895,5.2895,5.2895,5.2895,5.2895,5.2895,5.2895,5.2895,5.2895,5.2895,5.2895,5.2895,5.3138,5.3557,5.3658,5.416,5.4988,5.5189,5.5491,5.5917,5.6068,5.6194,5.6326,5.6778,5.6778,5.6702,5.6828,5.7154,5.7154,5.7506,5.7801,5.7932,5.8008,5.8058,5.8108,5.866,5.8936,5.9087,5.9483,5.9784,5.9829,5.9954,6.006,6.0412,6.0964,6.1235,6.1235,6.126,6.1411,6.1361,6.1341,6.1391,6.1135,6.114,6.1165,6.1065,6.0889,6.1065,6.1115,6.0719,6.0543,6.0839,6.0959,6.0839,6.0763,6.0763,6.1014,6.1266,6.1642,6.1948,6.2074,6.2421,6.2526,6.2701,6.2551,6.23,6.2245,6.2144,6.2119,6.2124,6.2275,6.2476,6.2777,6.2777,6.2651,6.2701,6.2802,6.2802,5.696,5.6809,5.6376,5.6219,5.6219,5.6219,5.6244,5.6175,5.6075,5.6068,5.5968,5.5491,5.5207,5.4981,5.4622,5.4396,5.4102,5.3808,5.3901,5.4177,5.3582,5.3532,5.4202,5.3876,5.3582,5.3432,5.3239,5.302,5.2895,5.2895,5.2895,5.2895,5.2895,5.2895,5.2945,5.2895,5.2995,5.3113,5.3096,5.3364,5.3758,5.4009,5.4411,5.5365,5.5491,5.5767,5.6118,5.6251,5.6401,5.6809,5.696,5.7255,5.7524,5.77,5.7775,5.7782,5.7926,5.8227,5.8485,5.861,5.883,5.9207,5.9689,5.9966,6.0116,6.0462,6.0638,6.0783,6.0833,6.0959,6.1059,6.1542,6.1592,6.1567,6.1893,6.227,6.2024,6.2074,6.2049,6.1567,6.1642,6.1793,6.1667,6.1542,6.1567,6.1542,6.1266,6.1145,6.1341,6.1361,6.121,6.116,6.1115,6.1441,6.1793,6.2245,6.2551,6.2501,6.2651,6.2651,6.2777,6.2777,6.2701,6.2526,6.2526,6.2551,6.2651,6.2752,6.2752,6.2802,6.2802,6.2802,6.2802,6.2802,6.2802,5.7713,5.7449,5.7173,5.7097,5.7029,5.6728,5.6627,5.6577,5.6326,5.6219,5.6143,5.5917,5.5641,5.5408,5.5182,5.4881,5.4554,5.4346,5.4522,5.468,5.4253,5.4202,5.4898,5.4429,5.4228,5.4102,5.3884,5.3414,5.2945,5.2895,5.2945,5.2895,5.2895,5.302,5.3264,5.3356,5.3507,5.3632,5.3758,5.4009,5.4554,5.4762,5.534,5.5616,5.5842,5.6093,5.6502,5.6627,5.6885,5.7405,5.7738,5.8008,5.8284,5.8529,5.8579,5.8428,5.8579,5.8805,5.9156,5.9357,5.9664,5.991,6.0437,6.0738,6.0814,6.0989,6.124,6.1285,6.1537,6.1617,6.1617,6.2094,6.2245,6.2195,6.2501,6.2601,6.2551,6.2676,6.2395,6.2019,6.222,6.23,6.225,6.2169,6.2069,6.1943,6.1743,6.1793,6.1893,6.1768,6.1662,6.1793,6.1818,6.1969,6.2245,6.2476,6.2802,6.2802,6.2802,6.2802,6.2802,6.2802,6.2802,6.2727,6.2802,6.2802,6.2802,6.2777,6.2802,6.2802,6.2802,6.2802,6.2802,6.2802,6.2802,5.8459,5.8052,5.7951,5.7901,5.7826,5.7405,5.7179,5.7085,5.6753,5.6502,5.6369,5.6326,5.6068,5.5666,5.5534,5.5333,5.4906,5.4873,5.5056,5.529,5.4848,5.4873,5.5282,5.5082,5.4773,5.473,5.4705,5.4228,5.3557,5.3389,5.3289,5.3364,5.3289,5.3432,5.3808,5.3884,5.4228,5.4421,5.4622,5.4856,5.5383,5.5892,5.6219,5.6244,5.6319,5.6577,5.6885,5.7111,5.7481,5.7983,5.8384,5.871,5.8886,5.9282,5.9332,5.9182,5.9458,5.9608,5.9784,6.0161,6.0417,6.0512,6.1059,6.1285,6.1436,6.1517,6.1617,6.1592,6.1868,6.2169,6.2199,6.2526,6.2727,6.2752,6.2727,6.2802,6.2752,6.2777,6.2777,6.2651,6.2802,6.2727,6.2576,6.2551,6.2425,6.24,6.2225,6.2275,6.2325,6.225,6.2225,6.2501,6.2601,6.2601,6.2651,6.2626,6.2802,6.2802,6.2802,6.2802,6.2802,6.2802,6.2802,6.2802,6.2802,6.2802,6.2802,6.2802,6.2802,6.2802,6.2802,6.2802,6.2802,6.2802,6.2802,5.866,5.856,5.8102,5.7901,5.7926,5.7851,5.7801,5.7775,5.7625,5.738,5.6835,5.6853,5.6527,5.6168,5.6068,5.6043,5.5842,5.5559,5.5584,5.5817,5.5207,5.5232,5.5892,5.5541,5.5333,5.5308,5.5308,5.4981,5.4454,5.4328,5.4303,5.4253,5.4202,5.4446,5.4454,5.4479,5.4504,5.4622,5.4672,5.4906,5.5433,5.5993,5.6219,5.6351,5.6652,5.701,5.7255,5.7581,5.8052,5.8535,5.866,5.8936,5.9307,5.9433,5.9759,5.9985,6.0186,6.0217,6.0311,6.0738,6.1065,6.1165,6.1592,6.1843,6.1994,6.2245,6.2425,6.2626,6.2651,6.2626,6.2601,6.2727,6.2802,6.2802,6.2802,6.2802,6.2802,6.2802,6.2802,6.2802,6.2802,6.2802,6.2727,6.2752,6.2777,6.2756,6.2756,6.2731,6.2727,6.2601,6.2551,6.2727,6.2802,6.2802,6.2802,6.2802,6.2802,6.2802,6.2802,6.2802,6.2802,6.2802,6.2802,6.2802,6.2802,6.2802,6.2802,6.2802,6.2802,6.2802,6.2802,6.2802,6.2802,6.2802,6.2802,5.9182,5.9131,5.8886,5.8805,5.8755,5.8485,5.8353,5.8227,5.7656,5.7255,5.696,5.6634,5.6401,5.6244,5.6219,5.6194,5.615,5.5942,5.5968,5.6143,5.5742,5.5742,5.6043,5.5993,5.5867,5.5817,5.5842,5.5792,5.5408,5.4881,5.4597,5.4647,5.4647,5.4748,5.5024,5.5074,5.5257,5.5433,5.5541,5.5641,5.5924,5.6326,5.6652,5.6677,5.7204,5.7606,5.7932,5.8158,5.8629,5.9037,5.9156,5.9232,5.9533,5.9759,6.0111,6.0267,6.0944,6.109,6.0939,6.1366,6.1567,6.1768,6.2099,6.2425,6.2501,6.2626,6.2802,6.2802,6.2802,6.2802,6.2802,6.2802,6.2802,6.2802,6.2802,6.2802,6.2802,6.2802,6.2802,6.2802,6.2802,6.2802,6.2802,6.2802,6.2802,6.2802,6.2756,6.2777,6.2777,6.2752,6.2727,6.2777,6.2802,6.2802,6.2802,6.2802,6.2802,6.2802,6.2802,6.2802,6.2802,6.2802,6.2802,6.2802,6.2802,6.2802,6.2802,6.2802,6.2802,6.2802,6.2802,6.2802,6.2802,6.2802,6.2802,5.9527,5.9527,5.9527,5.9527,5.9458,5.9081,5.8886,5.8761,5.7907,5.738,5.7054,5.6552,5.6244,5.6219,5.6219,5.6219,5.6219,5.6219,5.6219,5.6219,5.6219,5.6168,5.6194,5.6168,5.6168,5.6219,5.6143,5.6093,5.5892,5.5516,5.5107,5.4999,5.5157,5.5282,5.5509,5.5634,5.5785,5.6018,5.6068,5.6118,5.6269,5.6684,5.691,5.7204,5.77,5.8284,5.8635,5.8861,5.9156,5.9357,5.9433,5.9508,5.9784,6.006,6.0493,6.0819,6.1522,6.1793,6.1768,6.1974,6.2149,6.2325,6.2476,6.2727,6.2752,6.2802,6.2802,6.2802,6.2802,6.2802,6.2802,6.2802,6.2802,6.2802,6.2802,6.2802,6.2802,6.2802,6.2802,6.2802,6.2802,6.2802,6.2802,6.2802,6.2802,6.2802,6.2802,6.2802,6.2802,6.2802,6.2802,6.2802,6.2802,6.2802,6.2802,6.2802,6.2802,6.2802,6.2802,6.2802,6.2802,6.2802,6.2802,6.2802,6.2802,6.2802,6.2802,6.2802,6.2802,6.2802,6.2802,6.2802,6.2802,6.2802,6.2802,5.9527,5.9527,5.9527,5.9527,5.9527,5.9477,5.9433,5.9332,5.8786,5.8183,5.7549,5.6771,5.6269,5.6219,5.6219,5.6219,5.6219,5.6219,5.6219,5.6219,5.6219,5.6219,5.6219,5.6219,5.6219,5.6219,5.6219,5.6219,5.6194,5.6043,5.5942,5.6093,5.5817,5.5993,5.6068,5.6018,5.6043,5.6219,5.6219,5.6269,5.642,5.6778,5.7085,5.7355,5.8058,5.8685,5.8716,5.9112,5.9382,5.9527,5.9583,5.9759,6.0066,6.0417,6.0894,6.1497,6.1898,6.2199,6.24,6.2526,6.2676,6.2752,6.2777,6.2802,6.2802,6.2802,6.2802,6.2802,6.2802,6.2802,6.2802,6.2802,6.2802,6.2802,6.2802,6.2802,6.2802,6.2802,6.2802,6.2802,6.2802,6.2802,6.2802,6.2802,6.2802,6.2802,6.2802,6.2802,6.2802,6.2802,6.2802,6.2802,6.2802,6.2802,6.2802,6.2802,6.2802,6.2802,6.2802,6.2802,6.2802,6.2802,6.2802,6.2802,6.2802,6.2802,6.2802,6.2802,6.2802,6.2802,6.2802,6.2802,6.2802,6.2802,6.2802,5.9527,5.9527,5.9527,5.9527,5.9527,5.9527,5.9527,5.9408,5.8936,5.8158,5.733,5.686,5.6502,5.6294,5.6219,5.6219,5.6219,5.6219,5.6219,5.6219,5.6219,5.6219,5.6219,5.6219,5.6219,5.6219,5.6219,5.6219,5.6219,5.6219,5.6219,5.6219,5.6219,5.6194,5.6194,5.6219,5.6219,5.6244,5.6269,5.6344,5.6803,5.7255,5.7706,5.8133,5.8704,5.9156,5.9232,5.9382,5.9502,5.9583,5.979,6.0091,6.0468,6.0919,6.1492,6.2019,6.2275,6.2551,6.2727,6.2802,6.2802,6.2802,6.2802,6.2802,6.2802,6.2802,6.2802,6.2802,6.2802,6.2802,6.2802,6.2802,6.2802,6.2802,6.2802,6.2802,6.2852,6.2877,6.2802,6.2802,6.2802,6.2802,6.2802,6.2802,6.2802,6.2802,6.2802,6.2802,6.2802,6.2802,6.2802,6.2802,6.2802,6.2802,6.2802,6.2802,6.2802,6.2802,6.2802,6.2802,6.2802,6.2802,6.2802,6.2802,6.2802,6.2802,6.2802,6.2802,6.2802,6.2802,6.2802,6.2802,6.2802,6.2802,6.2802,5.9527,5.9527,5.9527,5.9527,5.9527,5.9527,5.9527,5.9408,5.8911,5.8064,5.701,5.6835,5.6559,5.6294,5.6219,5.6219,5.6219,5.6219,5.6219,5.6219,5.6219,5.6219,5.6219,5.6219,5.6219,5.6219,5.6219,5.6219,5.6219,5.6219,5.6219,5.6219,5.6219,5.6219,5.6219,5.6219,5.6276,5.6401,5.6477,5.6728,5.728,5.7807,5.8227,5.866,5.9156,5.9427,5.9452,5.9502,5.9608,5.9809,6.0091,6.0468,6.0944,6.1472,6.1999,6.23,6.2526,6.2802,6.2802,6.2802,6.2802,6.2802,6.2802,6.2802,6.2802,6.2802,6.2802,6.2802,6.2802,6.2802,6.2802,6.2802,6.3003,6.3078,6.2852,6.2827,6.2978,6.3053,6.2902,6.2802,6.2802,6.2827,6.2802,6.2802,6.2802,6.2802,6.2802,6.2802,6.2802,6.2802,6.2802,6.2802,6.2802,6.2802,6.2802,6.2802,6.2802,6.2802,6.2802,6.2802,6.2802,6.2802,6.2802,6.2802,6.2802,6.2802,6.2802,6.2802,6.2802,6.2802,6.2802,6.2802,6.2802,6.2802,6.2802,5.9527,5.9527,5.9527,5.9527,5.9527,5.9527,5.9527,5.9433,5.8961,5.8158,5.7111,5.6652,5.6326,5.6244,5.6219,5.6219,5.6219,5.6219,5.6219,5.6219,5.6219,5.6219,5.6219,5.6219,5.6219,5.6219,5.6219,5.6219,5.6294,5.6344,5.6319,5.642,5.652,5.642,5.6269,5.6244,5.6477,5.6928,5.6985,5.7355,5.7851,5.8328,5.8585,5.8911,5.9238,5.9483,5.9527,5.9633,5.9809,6.0091,6.0417,6.0944,6.1647,6.1873,6.2275,6.2656,6.2752,6.2802,6.2802,6.2802,6.2802,6.2802,6.2802,6.2802,6.2802,6.2802,6.2802,6.2802,6.2802,6.2802,6.2802,6.2852,6.3103,6.3274,6.3028,6.2952,6.3128,6.3254,6.3128,6.2927,6.2852,6.2827,6.2827,6.2802,6.2802,6.2802,6.2802,6.2802,6.2802,6.2802,6.2802,6.2802,6.2802,6.2802,6.2802,6.2802,6.2802,6.2802,6.2802,6.2802,6.2802,6.2802,6.2802,6.2802,6.2802,6.2802,6.2802,6.2802,6.2902,6.2978,6.2827,6.2802,6.2802,6.2902,6.2978,5.9527,5.9527,5.9527,5.9527,5.9527,5.9527,5.9527,5.9477,5.9232,5.8629,5.775,5.7374,5.6821,5.6445,5.6219,5.6219,5.6219,5.6219,5.6219,5.6219,5.6219,5.6219,5.6219,5.6219,5.6219,5.6219,5.6244,5.6451,5.6734,5.6728,5.7029,5.7204,5.7173,5.7079,5.6979,5.7029,5.7474,5.76,5.765,5.7876,5.8384,5.8635,5.8861,5.9182,5.9408,5.9508,5.9583,5.9809,6.0116,6.0493,6.0844,6.1547,6.2049,6.2245,6.2576,6.2802,6.2802,6.2802,6.2802,6.2802,6.2802,6.2802,6.2802,6.2802,6.2802,6.2802,6.2802,6.2827,6.2877,6.2852,6.2802,6.2827,6.3053,6.3375,6.3324,6.3254,6.3329,6.345,6.34,6.3174,6.3003,6.3003,6.2978,6.2952,6.2952,6.2827,6.2802,6.2802,6.2802,6.2802,6.2802,6.2802,6.2802,6.2802,6.2802,6.2802,6.2802,6.2802,6.2802,6.2802,6.2802,6.2802,6.2802,6.2802,6.2802,6.2802,6.2902,6.3003,6.3128,6.3153,6.3153,6.3078,6.3053,6.3229,6.345,5.9527,5.9527,5.9527,5.9527,5.9527,5.9527,5.9527,5.9458,5.9307,5.8805,5.8202,5.7757,5.7204,5.6577,5.6294,5.6219,5.6219,5.6219,5.6219,5.6219,5.6219,5.6219,5.6219,5.6244,5.6219,5.6269,5.647,5.6702,5.696,5.723,5.7455,5.7732,5.8077,5.7932,5.7782,5.7832,5.7951,5.8077,5.8208,5.8428,5.8811,5.9037,5.9156,5.9382,5.9552,5.9583,5.9809,6.0116,6.0493,6.0964,6.1517,6.2119,6.232,6.2551,6.2802,6.2802,6.2802,6.2802,6.2802,6.2802,6.2802,6.2802,6.2802,6.2802,6.2802,6.2802,6.2802,6.2852,6.2978,6.3103,6.3128,6.3128,6.35,6.3852,6.3852,6.3802,6.3802,6.3923,6.3797,6.3525,6.3475,6.34,6.3229,6.3153,6.3128,6.2952,6.2802,6.2802,6.2802,6.2802,6.2802,6.2802,6.2802,6.2802,6.2802,6.2802,6.2802,6.2802,6.2802,6.2802,6.2802,6.2802,6.2802,6.2802,6.2802,6.2877,6.3078,6.3229,6.3429,6.3626,6.3726,6.3601,6.3379,6.3626,6.3927,5.9527,5.9527,5.9483,5.9483,5.9527,5.9527,5.9527,5.9477,5.9006,5.8761,5.8591,5.7587,5.7204,5.6985,5.6527,5.642,5.6394,5.6369,5.642,5.6369,5.6445,5.6394,5.6445,5.6451,5.6595,5.6602,5.6778,5.7154,5.7161,5.7807,5.8102,5.8152,5.8535,5.8585,5.851,5.8384,5.8453,5.8635,5.8736,5.8956,5.9257,5.9382,5.9408,5.9527,5.9527,5.9784,6.006,6.0387,6.097,6.1497,6.1999,6.235,6.2601,6.2802,6.2802,6.2802,6.2802,6.2802,6.2802,6.2802,6.2802,6.2802,6.2802,6.2802,6.2852,6.2902,6.3028,6.3199,6.34,6.3576,6.3701,6.4099,6.4475,6.4551,6.4526,6.45,6.4475,6.44,6.4224,6.4124,6.4174,6.4099,6.3797,6.3626,6.3425,6.3153,6.2978,6.2802,6.2802,6.2802,6.2802,6.2802,6.2802,6.2802,6.2802,6.2827,6.2802,6.2802,6.2802,6.2802,6.2802,6.2802,6.2802,6.2802,6.2802,6.2952,6.3254,6.3576,6.3873,6.4073,6.435,6.4199,6.4002,6.4228,6.4526,5.9527,5.9477,5.9106,5.9137,5.9483,5.9527,5.9527,5.9477,5.9307,5.9106,5.866,5.8365,5.7932,5.765,5.7474,5.738,5.7204,5.7079,5.7154,5.7079,5.6878,5.7079,5.7223,5.7298,5.7349,5.7424,5.7575,5.7782,5.8234,5.873,5.8975,5.9125,5.9106,5.9187,5.9156,5.9081,5.9131,5.9156,5.9207,5.9307,5.9433,5.9527,5.9527,5.9527,5.9558,5.9885,6.0286,6.0763,6.1366,6.1868,6.2375,6.2701,6.2752,6.2802,6.2802,6.2802,6.2802,6.2802,6.2802,6.2802,6.2802,6.2802,6.2802,6.2802,6.2902,6.3149,6.335,6.35,6.3877,6.4199,6.4325,6.4626,6.4978,6.5103,6.5028,6.4902,6.4902,6.4978,6.4777,6.4651,6.4726,6.4601,6.4325,6.4023,6.3776,6.345,6.3224,6.3053,6.2852,6.2877,6.2952,6.2952,6.2827,6.2852,6.2852,6.2852,6.2827,6.2802,6.2802,6.2802,6.2802,6.2802,6.2802,6.2902,6.3053,6.3299,6.355,6.3877,6.4274,6.4752,6.5003,6.4802,6.4722,6.4902,6.5078,5.9527,5.9458,5.9156,5.9207,5.9477,5.9527,5.9527,5.9527,5.9527,5.9307,5.9006,5.8761,5.851,5.8227,5.7976,5.7826,5.7801,5.7506,5.7405,5.723,5.7455,5.7355,5.7575,5.7826,5.7826,5.7951,5.8133,5.8334,5.8786,5.9207,5.9477,5.9452,5.9527,5.9527,5.9477,5.9427,5.9452,5.9477,5.9502,5.9527,5.9527,5.9527,5.9527,5.9558,5.9659,6.0111,6.0638,6.121,6.1743,6.2199,6.2701,6.2802,6.2802,6.2802,6.2802,6.2802,6.2802,6.2802,6.2802,6.2802,6.2802,6.2827,6.2827,6.2978,6.3199,6.3475,6.3576,6.3726,6.435,6.4827,6.4902,6.5028,6.5329,6.5584,6.5383,6.5229,6.5333,6.5484,6.5383,6.5208,6.5128,6.5053,6.4802,6.4454,6.4203,6.4002,6.3877,6.3776,6.3425,6.3078,6.3178,6.3274,6.3053,6.2902,6.2902,6.2902,6.2852,6.2827,6.2802,6.2802,6.2802,6.2902,6.2978,6.3178,6.3425,6.3751,6.4178,6.4379,6.4726,6.5183,6.5559,6.5434,6.538,6.5484,6.5609,5.9433,5.9433,5.9483,5.9433,5.9433,5.9477,5.9527,5.9527,5.9527,5.9502,5.9357,5.8987,5.8786,5.8704,5.8428,5.8252,5.8202,5.8077,5.7857,5.7236,5.7757,5.7882,5.7832,5.7775,5.8278,5.8328,5.8459,5.8811,5.8911,5.9232,5.9527,5.9527,5.9527,5.9527,5.9527,5.9527,5.9527,5.9527,5.9527,5.9527,5.9527,5.9527,5.9552,5.9684,6.0041,6.0543,6.1165,6.1743,6.2225,6.2601,6.2781,6.2802,6.2802,6.2802,6.2802,6.2802,6.2802,6.2802,6.2802,6.2802,6.2902,6.2902,6.2877,6.3274,6.3601,6.3847,6.3948,6.4279,6.4927,6.5283,6.5409,6.5534,6.576,6.586,6.576,6.5609,6.5609,6.576,6.5785,6.566,6.5634,6.5534,6.5358,6.5057,6.4731,6.4601,6.4375,6.4274,6.4099,6.355,6.35,6.3626,6.3375,6.3153,6.3078,6.3053,6.2927,6.2877,6.2877,6.2978,6.3124,6.3174,6.3178,6.3525,6.3923,6.4454,6.4902,6.4978,6.5132,6.566,6.5936,6.6036,6.604,6.5965,6.5961,5.8905,5.8936,5.9332,5.9282,5.8961,5.9332,5.9527,5.9527,5.9527,5.9527,5.9477,5.9357,5.9282,5.9182,5.91,5.8975,5.8956,5.8654,5.8685,5.8535,5.8629,5.851,5.8736,5.8755,5.9025,5.9151,5.9257,5.9238,5.9282,5.9408,5.9527,5.9527,5.9527,5.9527,5.9527,5.9527,5.9527,5.9527,5.9527,5.9527,5.9527,5.9558,5.9633,5.994,6.0392,6.0919,6.1492,6.1918,6.2325,6.2701,6.2777,6.2802,6.2802,6.2802,6.2802,6.2802,6.2802,6.2802,6.2802,6.2852,6.2978,6.3324,6.35,6.3827,6.4099,6.4224,6.45,6.4953,6.5333,6.566,6.5911,6.6036,6.6112,6.6112,6.6112,6.5986,6.5886,6.5986,6.6112,6.6112,6.6112,6.5986,6.581,6.5609,6.5308,6.5003,6.4626,6.4471,6.4547,6.4224,6.3952,6.3998,6.3726,6.3525,6.3475,6.3375,6.3324,6.3103,6.3053,6.3224,6.3425,6.3626,6.3802,6.4099,6.4475,6.4927,6.5208,6.5233,6.5509,6.5961,6.6112,6.6112,6.6112,6.6061,6.6086,5.8334,5.8409,5.893,5.8961,5.8836,5.9282,5.9527,5.9527,5.9527,5.9527,5.9527,5.9527,5.9527,5.9527,5.9527,5.9527,5.9458,5.9187,5.8961,5.8987,5.9182,5.9037,5.9232,5.9408,5.9427,5.9502,5.9502,5.9502,5.9527,5.9527,5.9527,5.9527,5.9527,5.9527,5.9527,5.9527,5.9527,5.9527,5.9527,5.9527,5.9578,5.9734,5.9935,6.0292,6.0844,6.1371,6.1748,6.2195,6.2501,6.2727,6.2802,6.2802,6.2802,6.2802,6.2802,6.2802,6.2802,6.2802,6.2802,6.2877,6.3124,6.3525,6.3701,6.3902,6.4705,6.4852,6.4877,6.5279,6.566,6.5986,6.6011,6.6112,6.6112,6.6112,6.6112,6.6061,6.6011,6.6061,6.6112,6.6112,6.6112,6.6086,6.5961,6.5936,6.571,6.5685,6.5279,6.5153,6.5128,6.4902,6.4676,6.4475,6.43,6.4279,6.4404,6.4153,6.3847,6.3601,6.3324,6.3676,6.4023,6.4249,6.4496,6.4726,6.4953,6.5204,6.5409,6.5509,6.566,6.6036,6.6112,6.6112,6.6112,6.6112,6.6112,5.7826,5.7976,5.8409,5.866,5.8761,5.9162,5.9433,5.9483,5.9527,5.9527,5.9527,5.9527,5.9527,5.9527,5.9527,5.9527,5.9477,5.9382,5.9162,5.9112,5.9332,5.9257,5.9232,5.9282,5.9452,5.9527,5.9527,5.9527,5.9527,5.9527,5.9527,5.9527,5.9527,5.9527,5.9527,5.9527,5.9527,5.9527,5.9527,5.9558,5.9759,6.006,6.0286,6.0763,6.1366,6.1969,6.2245,6.245,6.2756,6.2802,6.2802,6.2802,6.2802,6.2802,6.2802,6.2802,6.2802,6.2802,6.2802,6.2827,6.3249,6.3626,6.3726,6.4203,6.5032,6.5383,6.5405,6.5559,6.5961,6.6065,6.609,6.6112,6.6112,6.6112,6.6112,6.6112,6.6112,6.6112,6.6112,6.6112,6.6112,6.6112,6.609,6.6065,6.6065,6.6112,6.6112,6.6112,6.5986,6.5609,6.5308,6.5183,6.5057,6.5132,6.5078,6.4752,6.4249,6.4023,6.3802,6.4249,6.4647,6.4927,6.5153,6.5283,6.5509,6.5609,6.576,6.5911,6.6061,6.6112,6.6112,6.6112,6.6112,6.6112,6.6112,5.7455,5.7901,5.8027,5.8284,5.866,5.8811,5.9081,5.9458,5.9502,5.9527,5.9502,5.9502,5.9527,5.9502,5.9527,5.9527,5.9527,5.9527,5.9527,5.9433,5.9433,5.9382,5.9382,5.9402,5.9477,5.9527,5.9527,5.9527,5.9527,5.9527,5.9527,5.9527,5.9527,5.9527,5.9527,5.9527,5.9527,5.9527,5.9558,5.9608,6.0016,6.0311,6.0588,6.109,6.1642,6.2195,6.2551,6.2727,6.2802,6.2802,6.2802,6.2802,6.2802,6.2802,6.2802,6.2802,6.2802,6.2802,6.2802,6.2802,6.3224,6.3998,6.4224,6.4676,6.5333,6.5835,6.5835,6.586,6.609,6.609,6.6112,6.6112,6.6112,6.6112,6.6112,6.6112,6.6112,6.6112,6.6112,6.6112,6.6112,6.6112,6.6112,6.609,6.6112,6.6112,6.6112,6.6112,6.6112,6.599,6.5864,6.5785,6.5685,6.5204,6.4827,6.4927,6.4601,6.435,6.43,6.4651,6.5078,6.5609,6.5835,6.576,6.581,6.5864,6.604,6.6112,6.6112,6.6112,6.6112,6.6112,6.6112,6.6112,6.6112]}]]